[[{"header":{"parameterUnit":"m.s-1","parameterCategory":1,"la1":30.6,"la2":28.766,"lo1":-90.7593,"lo2":-88.6598,"dx":0.0162,"dy":0.0183,"nx":116,"ny":114,"refTime":"2022-11-12T06:00:00:Z","depth":0,"parameterNumber":2,"parameterNumberName":"U-component_of_WINDS"},"data":[0.0,0.0,0.0,0.0,0.0,0.0,0.0,0.0,0.0,0.0,0.0,0.0,0.0,0.0,0.0,0.0,0.0,0.0,0.0,0.0,0.0,0.0,0.0,0.0,0.0,0.0,0.0,0.0,0.0,0.0,0.0,0.0,0.0,0.0,0.0,0.0,0.0,0.0,0.0,0.0,0.0,0.0,0.0,0.0,0.0,0.0,0.0,0.0,0.0,0.0,0.0,0.0,0.0,0.0,0.0,0.0,0.0,0.0,0.0,0.0,0.0,0.0,0.0,0.0,0.0,0.0,0.0,0.0,0.0,0.0,0.0,0.0,0.0,0.0,0.0,0.0,0.0,0.0,0.0,0.0,0.0,0.0,0.0,0.0,0.0,0.0,0.0,0.0,0.0,0.0,0.0,0.0,0.0,0.0,0.0,0.0,0.0,0.0,0.0,0.0,0.0,0.0,0.0,0.0,0.0,0.0,0.0,0.0,0.0,0.0,0.0,0.0,0.0,0.0,0.0,0.0,0.0,0.0,0.0,0.0,0.0,0.0,0.0,0.0,0.0,0.0,0.0,0.0,0.0,0.0,0.0,0.0,0.0,0.0,0.0,0.0,0.0,0.0,0.0,0.0,0.0,0.0,0.0,0.0,0.0,0.0,0.0,0.0,0.0,0.0,0.0,0.0,0.0,0.0,0.0,0.0,0.0,0.0,0.0,0.0,0.0,0.0,0.0,0.0,0.0,0.0,0.0,0.0,0.0,0.0,0.0,0.0,0.0,0.0,0.0,0.0,0.0,0.0,0.0,0.0,0.0,0.0,0.0,0.0,0.0,0.0,0.0,0.0,0.0,0.0,0.0,0.0,0.0,0.0,0.0,0.0,0.0,0.0,0.0,0.0,0.0,0.0,0.0,0.0,0.0,0.0,0.0,0.0,0.0,0.0,0.0,0.0,0.0,0.0,0.0,0.0,0.0,0.0,0.0,0.0,0.0,0.0,0.0,0.0,0.0,0.0,0.0,0.0,0.0,0.0,0.0,0.0,0.0,0.0,0.0,0.0,0.0,0.0,0.0,0.0,0.0,0.0,0.0,0.0,0.0,0.0,0.0,0.0,0.0,0.0,0.0,0.0,0.0,0.0,0.0,0.0,0.0,0.0,0.0,0.0,0.0,0.0,0.0,0.0,0.0,0.0,0.0,0.0,0.0,0.0,0.0,0.0,0.0,0.0,0.0,0.0,0.0,0.0,0.0,0.0,0.0,0.0,0.0,0.0,0.0,0.0,0.0,0.0,0.0,0.0,0.0,0.0,0.0,0.0,0.0,0.0,0.0,0.0,0.0,0.0,0.0,0.0,0.0,0.0,0.0,0.0,0.0,0.0,0.0,0.0,0.0,0.0,0.0,0.0,0.0,0.0,0.0,0.0,0.0,0.0,0.0,0.0,0.0,0.0,0.0,0.0,0.0,0.0,0.0,0.0,0.0,0.0,0.0,0.0,0.0,0.0,0.0,0.0,0.0,0.0,0.0,0.0,0.0,0.0,0.0,0.0,0.0,0.0,0.0,0.0,0.0,0.0,0.0,0.0,0.0,0.0,0.0,0.0,0.0,0.0,0.0,0.0,0.0,0.0,0.0,0.0,0.0,0.0,0.0,0.0,0.0,0.0,0.0,0.0,0.0,0.0,0.0,0.0,0.0,0.0,0.0,0.0,0.0,0.0,0.0,0.0,0.0,0.0,0.0,0.0,0.0,0.0,0.0,0.0,0.0,0.0,0.0,0.0,0.0,0.0,0.0,0.0,0.0,0.0,0.0,0.0,0.0,0.0,0.0,0.0,0.0,0.0,0.0,0.0,0.0,0.0,0.0,0.0,0.0,0.0,0.0,0.0,0.0,0.0,0.0,0.0,0.0,0.0,0.0,0.0,0.0,0.0,0.0,0.0,0.0,0.0,0.0,0.0,0.0,0.0,0.0,0.0,0.0,0.0,0.0,0.0,0.0,0.0,0.0,0.0,0.0,0.0,0.0,0.0,0.0,0.0,0.0,0.0,0.0,0.0,0.0,0.0,0.0,0.0,0.0,0.0,0.0,0.0,0.0,0.0,0.0,0.0,0.0,0.0,0.0,0.0,0.0,0.0,0.0,0.0,0.0,0.0,0.0,0.0,0.0,0.0,0.0,0.0,0.0,0.0,0.0,0.0,0.0,0.0,0.0,0.0,0.0,0.0,0.0,0.0,0.0,0.0,0.0,0.0,0.0,0.0,0.0,0.0,0.0,0.0,0.0,0.0,0.0,0.0,0.0,0.0,0.0,0.0,0.0,0.0,0.0,0.0,0.0,0.0,0.0,0.0,0.0,0.0,0.0,0.0,0.0,0.0,0.0,0.0,0.0,0.0,0.0,0.0,0.0,0.0,0.0,0.0,0.0,0.0,0.0,0.0,0.0,0.0,0.0,0.0,0.0,0.0,0.0,0.0,0.0,0.0,0.0,0.0,0.0,0.0,0.0,0.0,0.0,0.0,0.0,0.0,0.0,0.0,0.0,0.0,0.0,0.0,0.0,0.0,0.0,0.0,0.0,0.0,0.0,0.0,0.0,0.0,0.0,0.0,0.0,0.0,0.0,0.0,0.0,0.0,0.0,0.0,0.0,0.0,0.0,0.0,0.0,0.0,0.0,0.0,0.0,0.0,0.0,0.0,0.0,0.0,0.0,0.0,0.0,0.0,0.0,0.0,0.0,0.0,0.0,0.0,0.0,0.0,0.0,0.0,0.0,0.0,0.0,0.0,0.0,0.0,0.0,0.0,0.0,0.0,0.0,0.0,0.0,0.0,0.0,0.0,0.0,0.0,0.0,0.0,0.0,0.0,0.0,0.0,0.0,0.0,0.0,0.0,0.0,0.0,0.0,0.0,0.0,0.0,0.0,0.0,0.0,0.0,0.0,0.0,0.0,0.0,0.0,0.0,0.0,0.0,0.0,0.0,0.0,0.0,0.0,0.0,0.0,0.0,0.0,0.0,0.0,0.0,0.0,0.0,0.0,0.0,0.0,0.0,0.0,0.0,0.0,0.0,0.0,0.0,0.0,0.0,0.0,0.0,0.0,0.0,0.0,0.0,0.0,0.0,0.0,0.0,0.0,0.0,0.0,0.0,0.0,0.0,0.0,0.0,0.0,0.0,0.0,0.0,0.0,0.0,0.0,0.0,0.0,0.0,0.0,0.0,0.0,0.0,0.0,0.0,0.0,0.0,0.0,0.0,0.0,0.0,0.0,0.0,0.0,0.0,0.0,0.0,0.0,0.0,0.0,0.0,0.0,0.0,0.0,0.0,0.0,0.0,0.0,0.0,0.0,0.0,0.0,0.0,0.0,0.0,0.0,0.0,0.0,0.0,0.0,0.0,0.0,0.0,0.0,0.0,0.0,0.0,0.0,0.0,0.0,0.0,0.0,0.0,0.0,0.0,0.0,0.0,0.0,0.0,0.0,0.0,0.0,0.0,0.0,0.0,0.0,0.0,0.0,0.0,0.0,0.0,0.0,0.0,0.0,0.0,0.0,0.0,0.0,0.0,0.0,0.0,0.0,0.0,0.0,0.0,0.0,0.0,0.0,0.0,0.0,0.0,0.0,0.0,0.0,0.0,0.0,0.0,0.0,0.0,0.0,0.0,0.0,0.0,0.0,0.0,0.0,0.0,0.0,0.0,0.0,0.0,0.0,0.0,0.0,0.0,0.0,0.0,0.0,0.0,0.0,0.0,0.0,0.0,0.0,0.0,0.0,0.0,0.0,0.0,0.0,0.0,0.0,0.0,0.0,0.0,0.0,0.0,0.0,0.0,0.0,0.0,0.0,0.0,0.0,0.0,0.0,0.0,0.0,0.0,0.0,0.0,0.0,0.0,0.0,0.0,0.0,0.0,0.0,0.0,0.0,0.0,0.0,0.0,0.0,0.0,0.0,0.0,0.0,0.0,0.0,0.0,0.0,0.0,0.0,0.0,0.0,0.0,0.0,0.0,0.0,0.0,0.0,0.0,0.0,0.0,0.0,0.0,0.0,0.0,0.0,0.0,0.0,0.0,0.0,0.0,0.0,0.0,0.0,0.0,0.0,0.0,0.0,0.0,0.0,0.0,0.0,0.0,0.0,0.0,0.0,0.0,0.0,0.0,0.0,0.0,0.0,0.0,0.0,0.0,0.0,0.0,0.0,0.0,0.0,0.0,0.0,0.0,0.0,0.0,0.0,0.0,0.0,0.0,0.0,0.0,0.0,0.0,0.0,0.0,0.0,0.0,0.0,0.0,0.0,0.0,0.0,0.0,0.0,0.0,0.0,0.0,0.0,0.0,0.0,0.0,0.0,0.0,0.0,0.0,0.0,0.0,0.0,0.0,0.0,0.0,0.0,0.0,0.0,0.0,0.0,0.0,0.0,0.0,0.0,0.0,0.0,0.0,0.0,0.0,0.0,0.0,0.0,0.0,0.0,0.0,0.0,0.0,0.0,0.0,0.0,0.0,0.0,0.0,0.0,0.0,0.0,0.0,0.0,0.0,0.0,0.0,0.0,0.0,0.0,0.0,0.0,0.0,0.0,0.0,0.0,0.0,0.0,0.0,0.0,0.0,0.0,0.0,0.0,0.0,0.0,0.0,0.0,0.0,0.0,0.0,0.0,0.0,0.0,0.0,0.0,0.0,0.0,0.0,0.0,0.0,0.0,0.0,0.0,0.0,0.0,0.0,0.0,0.0,0.0,0.0,0.0,0.0,0.0,0.0,0.0,0.0,0.0,0.0,0.0,0.0,0.0,0.0,0.0,0.0,0.0,0.0,0.0,0.0,0.0,0.0,0.0,0.0,0.0,0.0,0.0,0.0,0.0,0.0,0.0,0.0,0.0,0.0,0.0,0.0,0.0,0.0,0.0,0.0,0.0,0.0,0.0,0.0,0.0,0.0,0.0,0.0,0.0,0.0,0.0,0.0,0.0,0.0,0.0,0.0,0.0,0.0,0.0,0.0,0.0,0.0,0.0,0.0,0.0,0.0,0.0,0.0,0.0,0.0,0.0,0.0,0.0,0.0,0.0,0.0,0.0,0.0,0.0,0.0,0.0,0.0,0.0,0.0,0.0,0.0,0.0,0.0,0.0,0.0,0.0,0.0,0.0,0.0,0.0,0.0,0.0,0.0,0.0,0.0,0.0,0.0,0.0,0.0,0.0,0.0,0.0,0.0,0.0,0.0,0.0,0.0,0.0,0.0,0.0,0.0,0.0,0.0,0.0,0.0,0.0,0.0,0.0,0.0,0.0,0.0,0.0,0.0,0.0,0.0,0.0,0.0,0.0,0.0,0.0,0.0,0.0,0.0,0.0,0.0,0.0,0.0,0.0,0.0,0.0,0.0,0.0,0.0,0.0,0.0,0.0,0.0,0.0,0.0,0.0,0.0,0.0,0.0,0.0,0.0,0.0,0.0,0.0,0.0,0.0,0.0,0.0,0.0,0.0,0.0,0.0,0.0,0.0,0.0,0.0,0.0,0.0,0.0,0.0,0.0,0.0,0.0,0.0,0.0,0.0,0.0,0.0,0.0,0.0,0.0,0.0,0.0,0.0,0.0,0.0,0.0,0.0,0.0,0.0,0.0,0.0,0.0,0.0,0.0,0.0,0.0,0.0,0.0,0.0,0.0,0.0,0.0,0.0,0.0,0.0,0.0,0.0,0.0,0.0,0.0,0.0,0.0,0.0,0.0,0.0,0.0,0.0,0.0,0.0,0.0,0.0,0.0,0.0,0.0,0.0,0.0,0.0,0.0,0.0,0.0,0.0,0.0,0.0,0.0,0.0,0.0,0.0,0.0,0.0,0.0,0.0,0.0,0.0,0.0,0.0,0.0,0.0,0.0,0.0,0.0,0.0,0.0,0.0,0.0,0.0,0.0,0.0,0.0,0.0,0.0,0.0,0.0,0.0,0.0,0.0,0.0,0.0,0.0,0.0,0.0,0.0,0.0,0.0,0.0,0.0,0.0,0.0,0.0,0.0,0.0,0.0,0.0,0.0,0.0,0.0,0.0,0.0,0.0,0.0,0.0,0.0,0.0,0.0,0.0,0.0,0.0,0.0,0.0,0.0,0.0,0.0,0.0,0.0,0.0,0.0,0.0,6.3054,0.0,0.0,0.0,0.0,0.0,0.0,0.0,0.0,0.0,0.0,0.0,0.0,0.0,0.0,0.0,0.0,0.0,0.0,0.0,0.0,0.0,0.0,0.0,0.0,4.2283,4.2231,4.2235,4.2623,0.0,0.0,0.0,0.0,0.0,0.0,0.0,4.3805,4.3772,4.4168,4.492,4.4945,4.5328,4.6113,4.6129,4.5466,4.4285,0.0,0.0,0.0,0.0,0.0,0.0,0.0,0.0,0.0,0.0,0.0,0.0,0.0,0.0,0.0,0.0,0.0,0.0,0.0,0.0,0.0,0.0,0.0,0.0,0.0,0.0,0.0,0.0,0.0,0.0,0.0,0.0,0.0,0.0,0.0,0.0,0.0,0.0,0.0,0.0,0.0,0.0,0.0,0.0,0.0,0.0,0.0,0.0,0.0,0.0,0.0,0.0,0.0,0.0,0.0,0.0,0.0,0.0,0.0,0.0,0.0,0.0,0.0,0.0,0.0,0.0,0.0,0.0,0.0,0.0,0.0,6.4497,0.0,0.0,0.0,0.0,0.0,0.0,0.0,0.0,0.0,0.0,0.0,0.0,0.0,0.0,0.0,0.0,0.0,0.0,0.0,0.0,0.0,4.3599,4.3614,4.3611,4.3661,4.3813,4.3883,4.398,4.4048,4.4137,0.0,0.0,0.0,0.0,4.5135,4.5256,4.5962,4.7348,4.7627,4.8098,4.8765,4.9637,4.8921,4.6887,4.6468,0.0,0.0,0.0,0.0,0.0,0.0,0.0,0.0,0.0,0.0,0.0,0.0,0.0,0.0,0.0,0.0,0.0,0.0,0.0,0.0,0.0,0.0,0.0,0.0,0.0,0.0,0.0,0.0,0.0,0.0,0.0,0.0,0.0,0.0,0.0,0.0,0.0,0.0,0.0,0.0,0.0,0.0,0.0,0.0,0.0,0.0,0.0,0.0,0.0,0.0,0.0,0.0,0.0,0.0,0.0,0.0,0.0,0.0,0.0,0.0,0.0,0.0,0.0,7.1168,7.1552,7.1552,7.1706,7.1783,7.1629,6.8928,6.7402,6.6864,0.0,0.0,0.0,0.0,0.0,0.0,0.0,0.0,0.0,0.0,0.0,0.0,0.0,0.0,0.0,0.0,0.0,0.0,0.0,0.0,4.3606,4.3598,4.3597,4.3877,4.4564,4.5261,4.5963,4.663,4.7353,0.0,0.0,0.0,4.7636,4.7692,4.8449,4.8906,4.9065,5.0531,5.1318,5.1424,5.2216,5.2412,5.2023,4.9855,4.8904,4.8827,0.0,0.0,0.0,0.0,0.0,0.0,0.0,0.0,0.0,0.0,0.0,0.0,0.0,0.0,0.0,0.0,0.0,0.0,0.0,0.0,0.0,0.0,0.0,0.0,0.0,0.0,0.0,0.0,0.0,0.0,0.0,0.0,0.0,0.0,0.0,0.0,0.0,0.0,0.0,0.0,0.0,5.977,6.0695,0.0,0.0,0.0,0.0,0.0,0.0,0.0,0.0,0.0,0.0,0.0,0.0,0.0,7.0796,7.1531,7.1755,7.2245,7.3007,7.3818,7.4203,7.4203,7.4976,7.5322,7.5284,7.4853,0.0,7.0354,7.0333,0.0,0.0,0.0,0.0,0.0,0.0,0.0,0.0,0.0,0.0,0.0,0.0,0.0,0.0,0.0,0.0,0.0,0.0,0.0,0.0,0.0,4.6138,4.656,4.6907,4.7236,4.7559,4.7843,4.8622,0.0,0.0,4.9441,4.9866,5.0343,5.0654,5.1315,5.2285,5.3436,5.4031,5.3993,5.4824,5.5204,5.5143,5.4037,5.275,5.1361,5.0478,0.0,0.0,0.0,0.0,0.0,0.0,0.0,0.0,0.0,0.0,0.0,0.0,0.0,0.0,0.0,0.0,0.0,0.0,0.0,0.0,0.0,0.0,0.0,0.0,0.0,0.0,0.0,0.0,0.0,0.0,0.0,0.0,0.0,0.0,0.0,0.0,0.0,0.0,0.0,6.0512,6.1944,6.3236,6.4029,6.4948,0.0,0.0,0.0,0.0,0.0,0.0,0.0,0.0,0.0,7.2472,7.2857,7.3437,7.4326,7.4826,7.5249,7.5668,7.6438,7.6823,7.6861,7.7249,7.7403,7.7403,7.7403,7.6581,7.5136,7.4209,7.3573,7.3192,0.0,0.0,0.0,0.0,7.1846,7.1532,0.0,0.0,0.0,0.0,0.0,0.0,0.0,0.0,0.0,0.0,0.0,0.0,4.7707,4.8426,4.9009,4.9204,4.9382,4.9529,4.9686,5.0267,5.0555,5.0566,5.1263,5.1977,5.2612,5.301,5.3949,5.5467,5.6063,5.642,5.6577,5.7186,5.7574,5.7738,5.7499,5.6103,5.3915,5.3055,5.2541,5.2256,0.0,0.0,0.0,0.0,0.0,0.0,0.0,0.0,0.0,0.0,0.0,0.0,0.0,0.0,0.0,0.0,0.0,0.0,0.0,0.0,0.0,0.0,0.0,0.0,0.0,0.0,0.0,0.0,0.0,0.0,0.0,0.0,0.0,0.0,0.0,0.0,0.0,6.2742,6.3947,6.5161,6.6335,6.7362,0.0,0.0,0.0,0.0,0.0,0.0,7.2787,7.3248,7.4095,7.5322,7.5549,7.6088,7.6976,7.763,7.8057,7.8288,7.9096,7.9481,7.9485,7.9715,7.9792,7.9792,7.9792,7.9792,7.9638,7.7519,7.6288,7.5749,7.576,7.5308,7.4617,7.4658,7.4504,7.4313,0.0,0.0,0.0,0.0,0.0,0.0,0.0,0.0,0.0,0.0,0.0,4.8607,4.8556,4.9322,5.0143,5.0929,5.1672,5.2446,5.3187,5.3226,5.3162,5.3125,5.3894,5.4328,5.4366,5.5914,5.717,5.8094,5.8094,5.8451,5.9202,5.9102,5.9522,6.0269,5.9387,5.811,5.6553,5.5676,5.4877,5.4143,5.407,0.0,0.0,0.0,0.0,0.0,0.0,0.0,0.0,0.0,0.0,0.0,0.0,0.0,0.0,0.0,0.0,0.0,0.0,0.0,0.0,0.0,0.0,0.0,0.0,0.0,0.0,0.0,0.0,0.0,0.0,0.0,0.0,0.0,0.0,0.0,0.0,0.0,0.0,6.6152,6.8243,0.0,0.0,0.0,0.0,7.3238,7.4011,7.4472,7.4588,7.613,7.7096,7.7172,7.7907,7.8711,7.9588,7.9665,8.0089,8.0939,8.1708,8.2097,8.2135,8.2982,8.3332,8.3332,8.3332,8.3332,8.3101,7.9754,7.8354,7.83,7.8296,7.7826,7.7139,7.7185,7.6681,7.5978,0.0,0.0,0.0,0.0,0.0,4.5785,4.6383,4.6986,4.759,4.816,4.9447,5.0289,5.0235,5.1476,5.2411,5.2634,5.3434,5.3992,5.4267,5.5255,5.5832,5.5758,5.6538,5.7181,5.7708,5.8858,5.9831,6.0666,6.118,6.1535,6.1722,6.168,6.1784,6.2024,6.17,6.1249,6.0577,5.8103,5.6878,5.6582,5.6036,5.5487,0.0,0.0,0.0,0.0,0.0,0.0,0.0,0.0,0.0,0.0,0.0,0.0,0.0,0.0,0.0,0.0,0.0,0.0,0.0,0.0,0.0,0.0,0.0,0.0,0.0,0.0,0.0,0.0,0.0,0.0,0.0,0.0,0.0,0.0,0.0,0.0,0.0,6.9303,7.0147,0.0,0.0,7.3364,7.4165,7.5049,7.5899,7.6823,7.7934,7.855,7.94,8.0481,8.0789,8.1366,8.2251,8.2251,8.2404,8.2712,8.2982,8.3135,8.3135,8.3447,8.3601,8.3601,8.3601,8.3601,8.3524,8.2293,8.1439,8.0931,8.0943,8.0439,7.9696,7.9127,7.8738,7.8415,0.0,0.0,0.0,0.0,4.561,4.6318,4.723,4.763,4.8226,4.9407,5.0767,5.1692,5.1942,5.3495,5.4474,5.4364,5.5417,5.6038,5.5975,5.6975,5.7667,5.7921,5.8985,5.9944,6.0745,6.1343,6.1882,6.2397,6.29,6.3237,6.345,6.3428,6.3535,6.3738,6.3455,6.3333,6.3159,6.066,5.9404,5.9074,5.8277,5.7755,5.7385,0.0,0.0,0.0,0.0,0.0,0.0,0.0,0.0,0.0,0.0,0.0,0.0,0.0,0.0,0.0,0.0,0.0,0.0,0.0,0.0,0.0,0.0,0.0,0.0,0.0,0.0,0.0,0.0,0.0,0.0,0.0,0.0,0.0,0.0,0.0,7.0136,7.1445,7.2302,7.3199,7.4291,7.5351,7.6322,7.7207,7.8092,7.9173,8.055,8.0935,8.1747,8.3131,8.317,8.3712,8.4867,8.4867,8.502,8.5332,8.5332,8.5332,8.5332,8.5332,8.5332,8.5332,8.5332,8.5332,8.5332,8.5332,8.4982,8.4328,8.3174,8.2404,8.1866,8.1293,8.1062,8.1023,0.0,0.0,0.0,4.591,4.5963,4.6314,4.7217,4.807,4.9283,5.1022,5.193,5.2793,5.3697,5.5205,5.6164,5.6162,5.7661,5.8578,5.8585,5.8498,5.8838,5.9669,6.1254,6.2524,6.3315,6.3257,6.3278,6.331,6.3172,6.3577,6.4417,6.4333,6.473,6.5448,6.465,6.4321,6.4255,6.3416,6.2568,6.1665,6.0835,5.995,5.9147,0.0,0.0,0.0,0.0,0.0,0.0,0.0,0.0,0.0,0.0,0.0,0.0,0.0,0.0,0.0,0.0,0.0,0.0,0.0,0.0,0.0,0.0,0.0,0.0,0.0,0.0,0.0,0.0,0.0,0.0,0.0,0.0,0.0,7.0243,7.0851,7.1661,7.2424,7.466,7.609,7.6137,7.7596,7.8942,7.9819,8.0708,8.1554,8.2366,8.3251,8.4136,8.4974,8.5012,8.5786,8.7406,8.744,8.7867,8.8718,8.8718,8.8718,8.8718,8.8718,8.8718,8.8718,8.8718,8.8718,8.8718,8.8718,8.8718,8.8372,8.5063,8.3755,8.3755,8.3717,8.364,8.3605,0.0,0.0,0.0,4.5907,4.6473,4.7257,4.812,4.898,5.0148,5.1848,5.2797,5.3906,5.5349,5.6433,5.7252,5.7794,5.9368,6.0285,6.0223,6.1336,6.2098,6.2259,6.2732,6.3366,6.416,6.4167,6.4688,6.5822,6.5776,6.6136,6.6927,6.6895,6.7,6.7203,6.6967,6.6872,6.6888,6.6632,6.6059,6.5104,6.3045,6.2086,6.1787,0.0,0.0,0.0,0.0,0.0,0.0,0.0,0.0,0.0,0.0,0.0,0.0,0.0,0.0,0.0,0.0,0.0,0.0,0.0,0.0,0.0,0.0,0.0,0.0,0.0,0.0,0.0,0.0,0.0,0.0,0.0,0.0,7.1283,7.1001,7.2225,7.3611,7.4933,7.567,7.6783,7.8596,7.9746,8.0746,8.1554,8.3012,8.4205,8.5016,8.5867,8.6752,8.7637,8.7675,8.7867,8.8329,8.8329,8.8449,8.8718,8.8718,8.8718,8.8718,8.8718,8.8718,8.8718,8.8718,8.8718,8.8718,8.8718,8.8718,8.8603,8.7675,8.7294,8.7136,8.5867,8.4636,8.3601,0.0,0.0,0.0,4.6414,4.6944,4.7727,4.8945,4.9886,5.105,5.2737,5.3684,5.4821,5.6502,5.7404,5.8317,5.9463,6.0722,6.1588,6.192,6.3175,6.3903,6.3841,6.4193,6.475,6.5545,6.5508,6.6116,6.729,6.7267,6.7473,6.7909,6.7898,6.7907,6.789,6.7888,6.7908,6.7881,6.7897,6.7633,6.7056,6.5605,6.4382,6.3354,6.2515,6.2206,6.2136,6.1246,6.0958,6.0922,6.0523,0.0,0.0,0.0,0.0,0.0,0.0,0.0,0.0,0.0,0.0,0.0,0.0,0.0,0.0,0.0,0.0,0.0,0.0,0.0,0.0,0.0,0.0,0.0,0.0,7.2263,7.3021,7.3302,7.4193,7.525,7.6479,7.7553,7.8752,8.0212,8.1439,8.2631,8.3785,8.482,8.5936,8.7132,8.7675,8.8483,8.9714,8.9752,9.0099,9.0791,9.0791,9.0791,9.0791,9.0791,9.0791,9.0791,9.0791,9.0791,0.0,9.0791,9.0791,9.0791,9.0791,9.0791,0.0,0.0,0.0,0.0,0.0,8.6559,8.5756,4.5874,4.5923,4.6186,4.7127,4.7377,4.7995,4.9645,5.0704,5.1907,5.3478,5.4374,5.555,5.7327,5.8119,5.9213,6.0966,6.1808,6.2669,6.3607,6.4353,6.475,6.475,6.5583,6.6336,6.6971,6.6994,6.7386,6.8143,6.8083,6.8094,6.8175,6.8175,6.8165,6.8171,6.8171,6.8183,6.8168,6.8168,6.8134,6.8058,6.8058,6.6602,6.4389,6.3614,6.3314,6.3274,6.3225,6.3264,6.3335,6.3283,0.0,0.0,0.0,0.0,0.0,0.0,0.0,0.0,0.0,0.0,0.0,0.0,0.0,0.0,0.0,0.0,0.0,0.0,0.0,0.0,0.0,0.0,0.0,0.0,7.3708,7.5426,7.623,7.6568,7.7042,7.7736,7.9746,8.1208,8.1516,8.2943,8.4559,8.6128,8.6436,8.7248,8.8906,0.0,0.0,0.0,0.0,9.221,9.3676,9.3715,9.3715,9.3715,9.3715,9.3715,9.3715,9.3715,9.3715,9.3715,9.3715,9.3715,9.3715,9.3715,9.3715,9.3407,9.0445,8.9141,8.8983,8.8983,8.8872,8.8718,4.5882,4.5923,4.6242,4.7144,4.7889,4.8699,4.9759,5.1174,5.2535,5.3558,5.4343,5.5732,5.8101,5.8435,5.9391,6.1704,6.2675,6.378,6.5308,6.5545,6.5663,6.5663,6.6378,6.6814,6.6933,6.7492,6.8181,6.8977,6.8949,6.9292,6.9932,6.9932,6.994,6.991,6.991,6.9914,6.9918,6.9918,6.954,6.8933,6.8933,6.7859,6.6216,6.6021,6.5536,6.4874,6.4262,6.4106,6.4069,6.3447,6.3165,6.3069,6.3125,6.3044,0.0,0.0,0.0,0.0,0.0,0.0,0.0,0.0,0.0,0.0,0.0,0.0,0.0,0.0,0.0,0.0,0.0,0.0,0.0,7.4227,7.5273,7.6295,7.705,7.8959,8.0279,8.0354,8.0793,8.19,8.3974,8.5051,8.6055,8.7055,8.8397,8.9628,9.0671,9.1364,9.2215,9.3172,9.3215,9.3369,9.3715,9.3715,9.3715,9.3715,0.0,0.0,9.3715,9.3715,9.3715,9.3715,9.3715,9.3715,9.3715,9.3715,9.3715,9.3638,9.2984,9.1907,9.071,9.071,8.9868,8.8718,4.6501,4.6618,4.6914,4.7797,4.8676,4.9511,5.0375,5.1946,5.3165,5.3558,5.4646,5.6205,5.8334,5.846,5.9568,6.25,6.3938,6.5029,6.5862,6.59,6.6061,6.6416,6.6814,6.7355,6.8093,6.846,6.9013,6.9813,6.9813,7.0012,7.0411,7.0831,7.1064,7.1068,7.1527,7.145,7.1068,7.1068,7.0572,6.9803,6.9803,6.9039,6.7897,6.7477,6.7018,6.6613,6.6265,6.6163,6.6175,6.5868,6.5772,6.5811,6.5881,6.5927,6.5967,0.0,0.0,0.0,0.0,0.0,0.0,0.0,0.0,0.0,0.0,0.0,0.0,0.0,0.0,7.2672,0.0,0.0,7.5202,7.5568,7.6643,7.7711,7.8521,8.0099,8.1139,8.1096,8.2247,8.3666,8.5359,8.6247,8.7478,8.9171,9.009,9.1129,9.2364,9.2869,9.3484,9.433,9.433,9.4561,9.5018,9.5403,9.5595,9.5595,9.6023,9.6254,9.6254,9.6254,9.6254,9.6254,9.6254,9.6254,9.6254,9.6254,9.6254,9.6254,9.6254,9.4677,9.2441,9.2441,9.1907,9.1214,4.7414,4.7682,4.803,4.8736,4.9417,5.0179,5.0965,5.2554,5.3659,5.3509,5.4942,5.6626,5.8287,5.8376,5.9663,6.3096,6.4762,6.5702,6.59,6.59,6.6218,6.6971,6.7134,6.7885,6.9262,6.9453,6.9813,7.0411,7.0411,7.0487,7.0678,7.1366,7.179,7.199,7.2677,7.2601,7.1956,7.1764,7.1302,7.0644,7.0487,6.9994,6.9349,6.8665,6.8168,6.7913,6.7967,6.7994,6.8028,6.8195,6.8259,6.8293,6.8351,6.8421,6.8478,6.8491,6.8571,0.0,0.0,0.0,0.0,0.0,0.0,0.0,0.0,0.0,7.217,7.2775,7.3542,7.4143,7.4241,7.5505,7.6566,7.6648,7.7894,7.9161,7.9994,8.0977,8.1708,8.2016,8.3897,8.5435,8.6282,8.744,8.8979,9.1052,9.1513,9.2364,9.3869,9.41,9.46,9.5451,9.5643,9.6062,9.6783,9.7442,9.775,9.775,9.8442,9.8793,9.8793,9.8793,9.8793,9.8793,9.8793,9.8793,9.8793,9.8793,9.8793,9.8793,9.8793,9.7139,9.4638,9.4326,9.41,9.3946,4.8435,4.9073,4.9637,4.9753,4.9828,5.0179,5.0965,5.2514,5.3578,5.3494,5.4942,5.6616,5.822,5.8325,5.9634,6.3031,6.4203,6.5067,6.5862,6.59,6.6218,6.6971,6.7682,6.843,6.9296,6.9932,7.033,7.0411,7.0411,7.0793,7.1553,7.1642,7.2104,7.2868,7.2945,7.2945,7.2792,7.2028,7.165,7.1493,7.072,7.0334,7.0262,7.0147,6.9196,6.7905,6.7913,6.7956,6.8009,6.8028,6.817,6.8283,6.8293,6.8345,6.8414,6.8478,6.8504,6.8686,6.9482,7.0857,7.213,7.2243,7.2812,7.3364,0.0,0.0,7.3648,7.3676,7.4316,7.5103,7.5806,7.6713,7.7571,7.8227,7.9134,8.0029,8.0846,8.2331,8.3866,8.5363,8.5782,8.6324,8.7171,8.9402,9.0898,9.1167,9.2595,9.383,9.4797,9.5595,9.636,9.7173,9.7985,9.8408,9.8519,9.8601,9.8639,9.8678,9.8755,9.8793,9.8793,9.8793,9.8793,9.8793,9.8793,9.8793,9.8793,9.8793,9.8793,9.8793,9.8793,9.8562,9.8062,9.6557,9.5518,9.4758,4.9263,4.9641,5.0061,5.0572,5.0611,5.0729,5.1044,5.2105,5.3005,5.3372,5.4469,5.5818,5.7474,5.8904,6.0527,6.2429,6.3834,6.475,6.5109,6.5622,6.6218,6.6894,6.7752,6.8534,6.9216,7.0012,7.0411,7.0411,7.0907,7.1328,7.1718,7.2711,7.3361,7.3705,7.4244,7.4168,7.3662,7.3323,7.2601,7.1688,7.1302,7.0835,7.0411,7.0411,6.9956,6.9349,6.9349,6.9365,0.0,6.9486,6.993,7.0453,7.0503,7.0916,7.136,7.1387,7.1431,7.1557,7.1971,7.2626,7.3197,7.3255,7.3537,7.3894,7.442,7.4908,7.5383,7.586,7.6604,7.7257,7.753,7.8329,7.8998,0.0,8.0408,8.1401,8.1754,8.3285,8.4786,8.5974,8.7017,8.794,8.8782,9.0282,9.1595,9.2595,9.3753,9.5023,9.6369,9.6788,9.7365,9.8211,9.8601,9.8793,9.8793,9.9293,9.9562,9.9562,10.0019,10.0289,10.0289,10.0289,10.0289,10.0289,10.0289,10.0515,10.0981,10.0481,10.0596,10.0981,10.0481,10.0289,10.0096,9.8365,9.7524,9.7177,5.014,5.0258,5.0454,5.1083,5.1122,5.111,5.1111,5.1763,5.2577,5.3318,5.408,5.5244,5.6875,5.9102,6.0784,6.1657,6.3054,6.4109,6.4555,6.5186,6.5939,6.6852,6.7713,6.8499,6.9174,6.9974,7.0411,7.0411,7.1251,7.1828,7.2108,7.3509,7.4312,7.4584,7.5237,7.5161,7.4545,7.4312,7.3361,7.2032,7.1803,7.1183,7.0411,7.0411,7.0411,7.0411,7.0411,7.0568,7.0771,7.087,7.1523,7.2337,7.2386,7.2886,7.3444,7.3504,7.3703,7.3919,7.3989,7.4353,7.4703,7.4723,7.4922,7.5227,7.5809,7.6423,7.7076,7.7673,7.8283,7.8725,7.8916,7.944,8.0003,8.0408,8.1516,8.2481,8.2939,8.4281,8.5628,8.6709,8.8329,8.971,9.0552,9.1398,9.2479,9.3946,9.5061,9.6215,9.7442,9.7942,9.8524,9.9139,9.9365,9.9481,9.9481,10.0101,10.0409,10.0409,10.1289,10.1707,10.1707,10.1899,10.2015,10.2015,10.2015,10.2404,10.2904,10.2289,10.2404,10.2904,10.2289,10.2015,10.1904,10.0717,9.9755,9.9101,5.1122,5.116,5.116,5.1122,5.1083,5.1118,5.109,5.1771,5.2554,5.3302,5.4111,5.52,5.6818,5.8508,5.9873,6.0745,6.1654,6.2876,6.4481,6.4552,6.5266,6.6814,6.7609,6.8372,6.9178,6.9974,7.0411,7.0411,7.1259,7.2147,7.2983,7.3815,7.466,7.5471,7.5471,7.5471,7.5395,7.4541,7.3705,7.2907,7.2032,7.1183,7.0411,7.0411,7.0411,7.0411,7.0411,7.0954,7.165,7.1654,7.2281,7.3089,7.3142,7.3223,7.3336,7.3447,7.4049,7.4686,7.4767,7.6013,7.7299,7.7371,7.797,7.8545,7.8584,7.8626,7.8602,7.8567,7.8591,7.8835,7.9608,7.9785,8.0323,8.1943,8.2289,8.2901,8.4589,8.5551,8.6709,8.8406,9.0094,9.1479,0.0,9.3138,9.3984,9.4874,9.6485,9.7442,9.7519,9.9101,9.999,10.0106,10.0789,10.1207,10.1207,10.1284,10.1284,10.1284,10.2092,10.2597,10.2597,10.3405,10.3789,10.3789,10.3789,10.3789,10.391,10.3789,10.3789,10.391,10.3789,10.3789,10.3789,10.3794,10.2217,9.9947,5.1122,5.1122,5.1122,5.1083,5.1048,5.1003,5.0987,5.1215,5.1649,5.2438,5.3711,0.0,0.0,0.0,0.0,0.0,6.126,6.2554,6.3667,6.4234,6.4945,6.598,6.6788,6.7577,6.8339,6.9172,6.9854,7.0411,7.1833,7.2716,7.3021,7.4435,7.5237,7.5509,7.5509,7.5509,7.5471,7.5199,7.4244,7.2983,7.2677,7.168,7.0411,7.0411,7.0411,7.0487,0.0,7.1446,7.1803,7.2376,7.3195,7.397,7.4054,7.452,7.5176,7.5839,7.6595,7.7218,7.7244,7.7675,7.814,7.817,7.8366,7.8558,7.8558,7.9017,7.9429,7.9403,7.9857,8.0508,8.1327,8.1477,8.1823,8.2982,8.3632,8.4243,8.482,8.6094,8.7401,8.856,9.0171,0.0,0.0,0.0,0.0,9.5788,9.6865,9.8019,9.9178,9.9798,10.0293,10.0904,10.1707,10.2212,10.2212,10.2712,10.302,10.302,10.3289,10.3486,10.3486,10.3794,10.391,10.391,10.391,10.4217,10.4718,10.4102,10.4217,10.4602,10.4102,10.391,10.391,10.391,10.341,10.2602,5.1089,5.1089,5.1089,5.1089,5.1009,0.0,0.0,0.0,0.0,0.0,0.0,0.0,0.0,0.0,0.0,0.0,0.0,6.1657,6.2805,6.358,6.4345,6.515,6.6174,6.7114,6.7864,6.8768,6.959,7.0411,7.1833,7.2677,7.3021,7.4397,7.5204,7.5509,7.5509,7.5509,7.5509,7.5509,7.4511,7.2983,7.2983,7.1947,7.0411,7.0411,7.0572,0.0,7.1833,7.2329,7.2682,7.3246,7.4053,7.4813,7.489,7.5618,7.6563,7.7465,7.8099,7.8484,7.8484,7.8711,7.8981,7.8981,7.9211,7.9442,7.9442,8.0092,8.0704,8.0704,8.14,8.2135,8.2674,8.2751,8.3058,8.3905,8.4512,8.5128,8.5705,8.6978,8.8291,8.9445,9.1056,9.2633,0.0,0.0,0.0,9.6673,9.7788,9.8908,9.999,10.0409,10.0904,10.1707,10.2284,10.2712,10.3097,10.3597,10.3987,10.4294,10.4294,10.4487,10.4789,10.4789,10.4789,10.4789,10.4789,10.5097,10.5482,10.4982,10.5097,10.5482,10.4982,10.4789,10.4789,10.4789,10.4789,10.4713,5.1097,5.1097,5.1057,0.0,0.0,0.0,0.0,0.0,0.0,0.0,0.0,0.0,0.0,0.0,0.0,0.0,0.0,0.0,6.1935,6.2671,6.3436,6.4352,6.5815,6.698,6.7828,6.8677,6.9514,7.0338,7.1264,7.2104,7.2945,7.3777,7.4584,7.5356,7.5356,7.5356,7.5356,7.5356,7.4439,7.2945,7.2945,7.1909,7.0411,7.0411,7.0932,7.1797,7.2686,7.3522,7.4214,7.424,7.4855,7.5587,7.5721,7.654,7.7553,7.8327,7.86,7.8638,7.8638,7.925,7.9858,7.9858,8.0473,8.1093,8.1131,8.1747,8.2328,8.2366,8.302,8.3601,0.0,0.0,8.3943,8.482,8.5012,8.5589,8.7171,8.8175,8.9368,0.0,0.0,0.0,0.0,0.0,0.0,9.7634,0.0,10.0106,10.0183,10.0904,10.1707,10.2597,10.2712,10.3097,10.3987,10.3987,10.441,10.5218,10.5218,10.5597,10.64,10.64,10.64,10.64,10.64,10.64,10.64,10.6395,10.6515,10.6515,10.6515,10.6515,10.6515,10.6515,10.6515,10.6285,0.0,0.0,0.0,0.0,0.0,0.0,0.0,0.0,0.0,0.0,0.0,0.0,0.0,0.0,0.0,0.0,0.0,0.0,6.1062,6.1752,6.2804,6.4317,6.4696,6.5524,6.6984,6.7802,6.8669,6.9502,7.0996,7.1803,7.207,7.2907,7.3403,7.3633,7.3633,7.3633,7.3633,7.3633,7.3021,7.2028,7.2028,7.1374,7.0411,7.0411,7.0958,7.1811,7.2694,7.3539,7.4316,7.4932,7.5778,7.6578,7.6623,7.7768,7.9126,7.9381,7.9939,8.0442,8.0442,8.0592,8.0785,8.0785,8.0939,8.1246,8.1862,8.2131,8.2481,8.3135,8.3443,8.3789,8.4439,8.4555,8.4824,8.5666,8.6324,0.0,8.7325,8.8671,0.0,9.1052,0.0,9.4292,9.5826,9.748,0.0,0.0,9.9837,10.0409,10.1019,10.1784,10.2404,10.2597,10.3789,10.4602,10.4794,10.54,10.59,10.6097,10.6097,10.6208,10.64,10.64,10.64,10.64,10.64,10.64,10.6515,10.7092,10.7405,10.74,10.8016,10.829,10.829,10.829,10.829,10.8213,0.0,0.0,0.0,0.0,0.0,0.0,0.0,0.0,0.0,0.0,0.0,0.0,0.0,0.0,0.0,0.0,0.0,0.0,0.0,6.0864,6.187,6.3216,6.3852,6.4814,6.6093,6.6953,6.7973,6.9196,7.0155,7.0996,7.1726,7.2181,7.2639,7.2983,7.2983,7.2983,7.2983,7.2983,7.2486,0.0,0.0,7.1183,7.0411,7.0411,7.092,7.1815,7.269,7.376,7.4851,7.5356,7.6135,7.6986,7.7436,7.8553,7.9786,8.0258,8.0708,8.1093,8.1093,8.1093,8.117,8.1554,8.1631,8.1866,8.2674,8.317,8.3593,8.4055,8.4439,8.4863,8.5359,8.5743,8.6132,8.6594,8.7401,8.8098,8.8436,8.9628,9.0936,0.0,9.3484,0.0,9.6668,9.7976,9.9067,0.0,10.0384,10.0917,10.1715,10.2207,10.2796,10.3488,10.4492,10.5209,10.5602,10.6105,10.64,10.64,10.64,10.64,10.64,10.6785,10.7015,10.7015,0.0,10.7516,10.7516,10.8016,10.8213,10.829,10.8713,10.8906,10.8906,10.8906,10.8906,10.8983,0.0,0.0,0.0,0.0,0.0,0.0,0.0,0.0,0.0,5.0709,5.1383,5.2222,0.0,0.0,0.0,0.0,0.0,0.0,0.0,0.0,6.0788,6.1625,6.3045,6.4279,6.5215,6.6097,6.7282,6.8852,6.8971,6.9773,7.1191,7.1306,7.176,7.2486,7.2601,7.2639,7.2639,7.2639,7.2219,7.1535,7.1535,7.1068,7.0411,0.0,7.0928,7.1827,7.2805,7.4184,7.5509,7.5509,7.6207,7.7194,7.8024,7.8989,7.9984,8.0819,8.1077,8.1077,8.1089,8.117,8.1439,8.2135,8.2404,8.2712,8.3559,8.4362,8.4935,8.5051,8.5705,8.6282,8.6282,8.6978,8.7555,8.7555,8.8291,8.9094,8.9816,9.0744,9.1941,9.3523,9.4561,9.5826,9.75,9.8336,9.9122,9.9995,10.0791,10.1592,10.2294,10.2506,10.3295,10.4906,10.4982,10.5383,10.621,10.6307,10.6402,10.6418,10.6495,10.6621,10.6592,10.7521,10.7905,10.7905,10.8598,10.8906,10.8906,10.8983,10.9098,10.9098,10.9213,10.9213,10.9213,10.9213,10.9213,10.9406,0.0,0.0,0.0,0.0,0.0,0.0,0.0,0.0,0.0,0.0,5.1383,5.2247,0.0,0.0,0.0,0.0,0.0,0.0,0.0,0.0,0.0,6.0787,6.1628,6.2792,6.4379,6.5207,6.6139,6.7129,6.7786,6.8287,6.8555,6.9315,6.9693,6.9884,7.0568,7.0831,7.0831,7.0831,7.0759,7.0644,7.0644,7.0529,7.0411,7.0411,0.0,0.0,7.3441,7.4638,7.5509,7.5509,7.6546,7.7867,7.8079,7.9194,8.0502,8.0825,8.0947,8.0963,8.1073,8.1593,8.2135,8.2289,8.2828,8.3597,8.4478,8.4782,8.5089,8.5743,8.6594,8.7171,8.7171,8.7906,8.8483,8.8483,8.9171,8.9744,8.9893,9.1282,9.2638,9.3599,9.5095,9.6678,9.8245,9.918,0.0,0.0,10.1515,10.1997,10.2205,10.3613,10.4791,10.5793,10.5793,10.5919,10.6013,10.6112,10.609,10.6182,10.6999,10.7393,10.7521,10.829,10.8713,10.8713,10.879,0.0,10.8983,10.9719,10.9988,10.9988,11.0791,11.1016,11.1016,11.1016,11.1016,11.1093,0.0,0.0,0.0,0.0,0.0,0.0,0.0,5.0709,5.0709,5.0709,5.1383,5.2216,5.3087,5.3587,5.432,0.0,0.0,0.0,0.0,0.0,0.0,5.9873,6.0617,6.1617,6.2823,6.3661,6.4726,6.6025,0.0,6.706,6.7905,6.8321,6.8527,6.8525,6.894,6.9093,6.9093,6.9093,6.9093,6.9135,6.9576,6.9775,6.9813,7.0254,0.0,0.0,7.3119,7.4104,7.4872,7.5352,7.6622,7.8016,7.8095,7.9236,8.0641,8.0818,8.112,8.1474,8.1554,8.2185,8.2928,8.3435,8.3874,8.4425,8.5312,8.5897,8.6324,8.6709,8.7483,8.806,8.806,8.8748,8.9325,8.9325,9.0013,9.0744,9.1206,9.2326,9.3446,9.4292,9.5857,9.7337,9.8479,9.9255,10.0213,10.1399,10.2114,10.2591,10.2818,10.4306,10.5306,10.5694,10.5798,10.5786,10.5894,10.6411,10.6698,10.6792,10.7603,10.8086,10.8195,10.9085,10.9507,10.9603,11.0098,0.0,11.0285,11.0714,11.0906,11.0906,11.1285,11.1516,11.1516,11.1516,11.1516,11.1516,0.0,0.0,0.0,0.0,0.0,0.0,5.0709,5.0709,5.0709,5.0709,5.1412,5.2232,5.3094,5.3377,5.4081,0.0,0.0,0.0,0.0,0.0,0.0,0.0,5.9706,6.0575,6.1336,0.0,0.0,6.4879,6.4863,0.0,0.0,0.0,0.0,0.0,6.7827,6.7895,6.7895,6.789,6.7906,0.0,0.0,6.8923,6.9013,0.0,0.0,0.0,0.0,7.3509,7.4315,7.5191,7.6601,7.8009,7.8053,7.9248,8.0639,8.0966,8.1486,8.2023,8.2236,8.2897,8.3758,8.4485,8.4827,8.5207,8.6125,8.6885,8.744,8.7637,8.8367,8.8945,8.8945,8.9628,9.0163,9.0163,9.0898,9.171,9.2402,9.3369,9.4283,9.5149,9.6679,9.7955,9.8716,9.937,10.0302,10.1791,10.2587,10.3292,10.372,10.4792,10.5403,10.5403,10.5504,10.5687,10.5988,10.6802,10.7294,10.7509,10.8304,10.8807,10.8997,10.9803,11.0281,11.0413,11.1083,0.0,11.1484,11.1505,11.1516,11.1516,11.1516,11.1516,11.1516,11.1516,11.1516,11.1516,0.0,0.0,0.0,0.0,0.0,0.0,5.0709,5.0709,5.0709,5.0709,5.1416,5.2239,5.3107,5.3927,5.4753,0.0,0.0,0.0,0.0,0.0,0.0,0.0,0.0,0.0,0.0,0.0,0.0,6.3114,6.3131,0.0,0.0,0.0,0.0,0.0,0.0,6.7895,6.7903,6.7886,0.0,0.0,0.0,0.0,0.0,0.0,0.0,0.0,0.0,7.3509,7.4315,7.5191,7.6623,7.801,7.8004,7.9162,8.0691,8.1553,8.1843,8.2096,8.2951,8.3817,8.4503,8.4593,8.5239,8.6077,8.6927,8.7265,8.7637,8.8406,8.9248,8.9782,8.9782,9.0513,9.109,9.109,9.1825,9.2402,9.2479,9.3869,9.514,9.592,9.7475,9.8739,9.9376,10.0084,10.0792,10.169,10.2892,10.3992,10.4981,10.5196,10.5215,10.5215,10.519,10.5584,10.6396,10.6706,10.7209,10.8009,10.9012,10.9598,10.971,11.0598,11.0993,11.1011,11.1202,0.0,0.0,11.1396,11.1516,11.1516,11.1516,11.1516,11.1516,11.1516,11.1516,11.1516,0.0,0.0,0.0,0.0,0.0,0.0,5.0709,5.1128,5.1431,5.1431,5.26,5.3595,5.3927,5.4715,5.5349,5.5667,0.0,0.0,0.0,0.0,0.0,0.0,0.0,0.0,0.0,0.0,6.0759,6.2122,6.2135,0.0,0.0,0.0,0.0,0.0,0.0,6.5199,6.5684,6.5669,0.0,0.0,0.0,0.0,0.0,0.0,0.0,0.0,0.0,0.0,7.3674,7.5033,7.6622,7.8002,7.8018,7.9503,8.1356,8.1727,8.2535,8.3415,8.3801,8.4528,8.5145,8.525,8.5531,8.605,8.7002,8.7636,8.8333,8.9235,9.009,9.0667,9.0667,9.0975,9.1359,9.1902,9.2287,9.2864,9.3869,9.4968,9.5983,9.6784,9.8237,9.9201,9.9341,10.0513,10.1692,10.2715,10.3596,10.421,10.4616,10.4716,10.4811,10.4811,10.5389,10.5897,10.6405,10.7498,10.8285,10.8719,10.9611,11.0098,11.039,11.0702,11.0897,11.1085,11.1214,0.0,0.0,11.1207,11.1306,11.1317,11.1308,11.1418,11.1385,11.1495,11.1516,11.1516,0.0,0.0,0.0,0.0,0.0,5.0784,5.1012,5.1546,5.2003,5.2233,5.3574,5.4503,5.4497,5.5236,5.5706,5.5706,5.5706,0.0,0.0,0.0,0.0,0.0,0.0,0.0,0.0,0.0,5.9696,6.0856,6.1135,6.1694,0.0,0.0,6.2649,6.2889,0.0,0.0,0.0,0.0,0.0,0.0,0.0,0.0,0.0,0.0,0.0,0.0,0.0,0.0,0.0,0.0,0.0,7.7986,7.802,7.991,8.2154,8.2144,8.3176,8.4346,8.4571,8.5058,8.5526,8.5604,8.5839,8.6327,8.7337,8.8244,8.9134,9.0107,9.0782,9.1206,9.1206,9.1402,9.1787,9.2402,9.2907,9.3629,9.4794,9.5829,9.6793,9.7577,9.8741,9.9603,9.9966,10.1413,10.2615,10.3314,10.3905,10.4211,10.4211,10.4084,10.4184,10.441,10.5406,10.6084,10.642,10.8012,10.8902,10.9211,10.9906,11.0287,11.0612,11.0612,11.0697,11.0917,11.0997,0.0,0.0,11.1105,11.1085,11.1091,11.1184,11.1218,11.1306,11.1308,11.1413,11.1413,0.0,0.0,0.0,0.0,0.0,0.0,5.1772,5.1887,5.2195,5.3082,5.3933,5.4516,5.449,5.5214,5.5706,5.5706,5.5706,0.0,0.0,0.0,0.0,0.0,0.0,0.0,0.0,0.0,5.9099,5.9137,5.9977,6.0815,6.1614,6.1611,6.2053,6.2888,0.0,0.0,0.0,0.0,0.0,0.0,0.0,0.0,6.6804,0.0,0.0,0.0,0.0,0.0,0.0,0.0,0.0,0.0,0.0,8.0296,8.2999,8.2999,8.3606,8.4485,8.5277,8.5506,8.5506,8.5506,8.6202,8.715,8.8145,8.9125,9.0061,9.0996,9.1206,9.1206,9.1206,9.1902,9.2479,9.2479,9.3907,9.4914,9.4801,9.6285,9.7626,9.8211,9.8871,9.9928,10.1481,10.2809,10.3413,10.3112,10.3489,0.0,10.3778,10.3493,10.3581,10.4297,10.5112,10.5995,10.6795,10.7789,10.8819,10.9802,10.9889,11.0078,11.0301,11.0301,11.0384,0.0,0.0,0.0,0.0,11.0993,11.1085,11.1085,11.1085,11.1085,11.1085,11.1085,11.1085,11.1085,0.0,0.0,0.0,0.0,0.0,0.0,5.2736,5.3277,5.378,5.4049,5.4821,5.5324,5.5326,5.5555,5.5706,5.5706,5.5706,0.0,0.0,0.0,0.0,0.0,0.0,0.0,0.0,0.0,5.8556,5.9099,5.9977,6.0537,6.0777,6.0777,6.0936,6.1176,6.1176,6.1496,0.0,0.0,0.0,0.0,0.0,6.5054,6.5964,0.0,0.0,0.0,0.0,0.0,0.0,0.0,0.0,0.0,0.0,0.0,0.0,8.2846,8.4026,8.5162,8.543,8.5506,8.5659,8.6227,8.6596,8.7229,8.8797,8.9439,8.9922,9.0859,9.1123,9.1206,9.1206,9.1902,9.2688,9.3153,9.4143,9.5224,9.6306,9.7342,9.8271,9.8909,9.9846,10.1093,10.2793,10.2891,10.3108,10.3495,10.351,10.3496,10.3496,10.3386,10.3391,10.3618,10.4613,10.5187,10.561,10.7187,10.8184,10.8605,10.9218,10.9598,10.9795,10.9899,10.9992,0.0,0.0,0.0,11.0513,11.0582,11.0678,11.0697,11.088,11.0991,11.0997,11.1088,11.1085,11.1085,0.0,0.0,0.0,0.0,0.0,0.0,5.3623,5.4164,5.4629,5.4898,5.5398,5.5706,5.5706,5.5706,5.5706,5.5706,5.5706,0.0,0.0,0.0,0.0,0.0,0.0,0.0,5.6595,5.7433,5.8284,5.9099,5.9977,6.0415,6.0415,6.0415,6.0415,6.0415,6.0415,6.0697,0.0,0.0,0.0,0.0,6.392,6.4497,6.5131,0.0,0.0,0.0,0.0,0.0,0.0,0.0,0.0,0.0,0.0,0.0,0.0,0.0,8.3988,8.5129,8.543,8.5506,8.5697,8.6571,8.7035,8.7676,8.9163,8.9774,9.0206,9.088,9.1073,9.1114,9.1114,9.2113,9.3042,9.3477,9.4499,9.5654,9.6922,9.7768,9.8661,9.9794,10.0915,10.1897,10.3088,10.3115,10.3195,10.3589,10.3302,10.3187,10.3117,10.3009,10.2891,10.282,10.4,10.4716,10.4909,10.6302,10.709,10.73,10.8185,10.8684,10.8896,10.9393,10.9705,0.0,0.0,11.0078,0.0,11.0415,11.0394,11.0414,11.0587,11.0697,11.071,11.0793,11.0786,11.0793,0.0,0.0,0.0,0.0,0.0,0.0,0.0,5.459,5.4859,5.559,5.5706,5.5706,5.5706,5.5706,5.5706,5.57,5.57,0.0,0.0,0.0,0.0,0.0,0.0,0.0,5.6595,5.7503,5.835,5.9099,5.9977,6.0415,6.0415,6.0415,6.0415,6.0415,6.0415,6.0415,0.0,0.0,0.0,0.0,6.3412,6.4146,0.0,0.0,0.0,0.0,0.0,0.0,0.0,0.0,0.0,0.0,0.0,0.0,0.0,0.0,0.0,0.0,0.0,8.5468,8.5697,8.6571,8.746,8.8331,8.9273,9.0135,0.0,9.0924,9.1005,9.1009,9.1086,9.2468,9.3549,9.3479,9.4888,9.6232,9.6981,9.7761,9.8986,10.0919,10.1801,10.2415,10.2708,10.3287,10.3581,10.3308,10.3108,10.2921,10.2685,10.2501,10.2304,10.2114,10.3508,10.431,10.4383,10.5297,10.5813,10.589,10.6906,10.7495,10.7706,10.8705,10.9205,0.0,0.0,10.9809,11.0001,11.0189,11.0208,11.0208,11.0312,11.0319,11.0319,11.0288,11.0295,11.0315,0.0,0.0,0.0,0.0,0.0,0.0,0.0,0.0,0.0,0.0,5.5706,5.5706,5.5706,5.5706,5.569,0.0,0.0,0.0,0.0,0.0,0.0,0.0,0.0,0.0,5.6595,5.8046,5.8894,5.9099,5.9977,6.0415,6.0415,6.0415,6.0415,6.0415,6.0415,6.0415,0.0,0.0,0.0,0.0,6.2772,6.3605,0.0,0.0,0.0,0.0,6.888,7.0424,0.0,0.0,0.0,0.0,0.0,0.0,0.0,0.0,8.265,8.3496,8.4365,0.0,8.5697,8.6571,8.746,8.8311,0.0,9.0041,9.0724,9.0774,9.0853,9.1102,9.1716,9.2709,9.3628,9.4129,9.5651,9.6959,9.7593,9.9213,10.0696,10.1902,10.2282,10.2781,10.3494,10.3292,10.3106,10.2912,10.2704,10.251,10.2313,10.2209,10.2078,10.2114,10.2489,10.2807,10.3108,10.4098,10.4677,10.4907,10.5801,10.6182,10.6317,10.7382,10.7917,0.0,10.8998,10.9405,10.9497,10.9591,10.9697,10.972,11.0001,11.0094,11.0109,11.0215,11.0295,11.0301,0.0,0.0,0.0,0.0,0.0,0.0,0.0,0.0,0.0,0.0,5.5706,5.5706,5.5706,5.5682,5.5654,0.0,0.0,0.0,0.0,0.0,0.0,0.0,0.0,5.7011,5.7737,5.8658,5.9297,5.97,6.0175,6.0415,6.0415,6.0415,6.0415,6.0415,6.0415,6.0415,0.0,0.0,0.0,6.1169,6.241,0.0,0.0,0.0,0.0,0.0,6.8316,6.9669,0.0,7.2563,7.3862,7.5199,0.0,0.0,0.0,0.0,8.2077,8.319,8.4064,8.49,8.5697,8.6571,8.746,8.8306,8.9103,8.9985,9.0648,9.0699,9.0759,9.1067,9.192,9.2758,9.354,9.4256,9.5757,9.7177,9.8047,9.9823,10.1201,10.179,10.2301,10.2809,10.3401,10.3106,10.2794,10.2593,10.2398,10.219,10.2015,10.2006,10.1883,10.1805,10.1883,10.2086,10.2398,10.3011,10.339,10.3497,10.4499,10.4998,10.5087,10.6199,10.6882,0.0,10.8088,10.8696,10.9089,10.9302,10.9405,10.939,10.9606,10.9712,10.9682,10.981,10.9794,10.9809,0.0,0.0,0.0,0.0,0.0,0.0,0.0,0.0,0.0,0.0,0.0,0.0,0.0,0.0,0.0,0.0,0.0,0.0,0.0,0.0,0.0,0.0,5.7038,5.7697,5.9057,5.9196,5.9609,6.0348,6.0352,6.0339,6.0339,6.0369,6.0373,6.0377,6.0377,6.0377,0.0,0.0,6.0415,6.0568,6.2239,0.0,0.0,0.0,0.0,0.0,0.0,0.0,0.0,7.2219,7.3323,7.4312,7.5997,0.0,0.0,0.0,0.0,0.0,8.3873,8.4709,8.5506,8.638,8.7269,8.811,8.895,8.9785,9.0461,9.0669,9.0684,9.099,9.1975,9.2696,9.3425,9.4203,9.5729,9.7216,9.8483,9.9996,10.1086,10.1288,10.2083,10.2707,10.2888,10.2785,10.2612,10.2305,10.2208,10.2015,10.18,10.18,10.1721,10.1514,10.1711,10.1795,10.198,10.2085,10.22,10.2416,10.3307,10.3798,10.3989,10.5118,10.5916,10.6595,0.0,0.0,10.8608,10.8986,10.9109,10.9109,10.9203,10.919,10.919,10.9284,10.9308,10.9286,0.0,0.0,0.0,0.0,0.0,0.0,0.0,0.0,0.0,0.0,0.0,0.0,0.0,0.0,0.0,0.0,0.0,0.0,0.0,0.0,0.0,5.8529,5.8607,5.8765,5.9015,5.9644,6.0026,6.0134,6.013,6.0137,6.013,6.0144,6.0205,6.0335,6.0335,6.0339,6.0415,6.0415,6.0415,6.0568,6.2239,0.0,0.0,0.0,0.0,0.0,0.0,0.0,0.0,7.1344,7.2486,7.348,7.5165,0.0,0.0,0.0,0.0,0.0,8.2994,8.3835,8.4671,8.5506,8.6347,8.7226,8.8076,8.8912,8.9714,9.0456,9.0609,9.1079,9.2515,9.288,9.3402,9.482,9.6281,9.7731,9.9208,10.0503,10.1297,10.1308,10.2286,10.2886,10.2785,10.2584,10.2304,10.1883,10.1908,10.18,10.1601,10.1507,10.1497,10.1504,10.1497,10.1611,10.1604,10.1903,10.2086,10.2115,10.2301,10.2508,10.2705,10.3817,10.4409,10.4803,0.0,10.7196,10.7299,10.8109,10.8389,10.8387,10.87,10.8902,10.8898,10.9195,10.9308,10.9308,0.0,0.0,0.0,0.0,0.0,0.0,0.0,0.0,0.0,0.0,0.0,0.0,0.0,0.0,0.0,0.0,0.0,0.0,0.0,0.0,5.9142,5.9528,5.9501,5.9513,5.9607,5.9935,6.0109,6.0095,6.009,6.0087,6.0084,6.0109,6.0148,6.0173,6.019,6.0244,6.0332,6.0359,6.0369,6.0568,0.0,0.0,0.0,0.0,0.0,0.0,0.0,0.0,0.0,0.0,7.2299,7.3212,7.4431,0.0,0.0,0.0,0.0,0.0,8.277,8.3644,8.447,8.525,8.6116,8.703,8.7885,8.8674,8.9429,9.0312,9.0411,9.0884,9.2505,9.2804,9.3572,9.5952,9.7128,9.8215,9.9682,10.0689,10.1384,10.1509,10.2279,10.2813,10.2612,10.2313,10.2008,10.1812,10.1704,10.1604,10.1514,10.1504,10.1504,10.1504,10.1504,10.1504,10.1504,10.1694,10.1805,10.1903,10.1903,10.2009,10.2294,10.2694,10.3298,10.4096,0.0,10.6295,10.688,10.78,10.821,10.8191,10.8407,10.8515,10.8495,10.8594,10.8797,10.8898,0.0,0.0,0.0,0.0,0.0,0.0,0.0,0.0,0.0,0.0,0.0,0.0,0.0,0.0,0.0,0.0,0.0,0.0,0.0,5.9699,6.0022,5.9979,6.0087,6.0121,6.0059,6.0213,6.0293,6.0303,6.0273,6.0214,6.0016,6.0054,6.0075,6.0094,6.0099,6.015,6.0275,6.0294,6.0316,6.0502,0.0,0.0,0.0,0.0,0.0,0.0,0.0,0.0,0.0,0.0,0.0,0.0,0.0,0.0,0.0,7.7941,7.9513,8.1456,8.266,8.3452,8.4191,8.511,8.5925,8.6727,8.7775,8.8384,8.9082,9.0116,9.0431,9.0955,9.2331,9.3031,9.4193,9.6673,9.7571,9.8441,9.981,10.0615,10.1289,10.1696,10.2284,10.251,10.2295,10.1988,10.182,10.1687,10.1594,10.1504,10.1504,10.1504,10.1504,10.1504,10.1504,10.1504,10.1504,10.1504,10.1584,10.1687,10.1687,10.1795,10.2,10.2,10.2484,10.3407,10.4402,10.5396,10.64,10.7404,10.7887,10.8083,10.8091,10.822,10.821,10.821,10.8309,10.8506,0.0,0.0,0.0,0.0,0.0,0.0,0.0,0.0,0.0,0.0,0.0,0.0,0.0,0.0,0.0,0.0,0.0,0.0,0.0,5.9872,5.9836,5.9655,6.0397,6.0555,5.9939,6.0534,6.0856,6.0846,6.0844,6.0493,5.9811,5.989,5.9946,6.0021,6.0025,6.0038,6.0118,6.0261,6.029,6.0457,6.2206,0.0,0.0,0.0,0.0,0.0,0.0,0.0,0.0,0.0,0.0,0.0,0.0,0.0,7.6953,7.775,7.871,7.9995,8.2295,8.2957,8.3346,8.4832,8.5358,8.5873,8.7411,8.7759,8.8248,8.9885,0.0,0.0,9.2196,9.3991,9.5614,9.6343,9.711,9.8106,9.944,10.019,10.0905,10.1503,10.2083,10.2285,10.1881,10.1812,10.1687,10.1507,10.1514,10.1504,10.1504,10.1504,10.1504,10.1504,10.1504,10.1504,10.1504,10.1504,10.1514,10.1487,10.1487,10.1587,10.1812,10.1812,10.2013,10.229,10.3314,10.4316,10.5114,10.6092,10.6994,10.7682,10.7796,10.7981,10.821,10.821,10.8182,10.82,0.0,0.0,0.0,0.0,0.0,0.0,0.0,0.0,0.0,0.0,0.0,0.0,0.0,0.0,0.0,0.0,0.0,0.0,0.0,5.9749,5.9916,6.0375,6.0551,6.0782,6.1077,6.1471,6.1668,6.1636,6.1638,6.1254,6.049,6.0551,6.035,5.989,5.9914,5.9986,0.0,0.0,6.0437,6.1096,6.2326,6.3123,0.0,0.0,0.0,0.0,0.0,0.0,0.0,0.0,7.1565,7.2983,7.2983,7.4698,7.6876,7.775,7.8554,7.9724,8.2232,8.2858,8.3162,8.4682,8.5524,8.6258,8.7432,8.7643,8.802,8.9611,9.0596,0.0,0.0,9.4884,9.6298,9.6935,9.7642,9.8535,9.9853,10.0308,10.0781,10.1796,10.2014,10.2015,10.1812,10.1694,10.1594,10.1514,10.1504,10.1504,10.1504,10.1504,10.1504,10.1504,10.1504,10.1504,10.1504,10.1504,10.1504,10.1504,10.1504,10.1507,10.1614,10.1614,10.1687,10.2004,10.2893,10.3812,10.4808,10.5789,10.6691,10.7405,10.7617,10.7786,10.7805,10.7805,10.7889,10.8,0.0,0.0,0.0,0.0,0.0,0.0,0.0,0.0,0.0,0.0,0.0,0.0,0.0,0.0,0.0,0.0,0.0,0.0,5.971,5.9836,6.0146,6.073,6.1041,6.1469,6.2063,6.2469,6.2541,6.2278,6.2344,6.1963,6.1185,6.1307,6.1062,6.0533,0.0,0.0,0.0,6.0749,6.1147,6.1814,6.2776,6.3493,0.0,0.0,0.0,0.0,0.0,0.0,0.0,0.0,7.1565,7.2983,7.2983,7.4698,7.6867,7.7676,7.8503,7.9657,8.2099,8.2712,8.3003,8.4599,8.5567,8.6396,8.7317,8.7645,8.8228,8.9767,9.0806,9.2072,0.0,0.0,9.6467,9.7125,9.8001,9.8968,10.0113,10.0386,10.088,10.1908,10.1891,10.181,10.1714,10.1594,10.1504,10.1504,10.1504,10.1504,10.1504,10.1504,10.1504,10.1504,10.1504,10.1504,10.1504,10.1504,10.1504,10.1504,10.1504,10.1504,10.1504,10.1504,10.1584,10.1704,10.2409,10.3291,10.4603,10.5279,10.6302,10.72,10.7412,10.7386,10.7386,10.7386,10.7484,10.7702,0.0,0.0,0.0,0.0,0.0,0.0,0.0,0.0,0.0,0.0,0.0,0.0,0.0,0.0,0.0,0.0,0.0,0.0,5.9525,6.0125,6.0472,6.0413,6.1875,6.271,6.271,6.3489,6.3526,6.2715,6.2893,6.2617,6.1824,6.1996,6.2088,0.0,0.0,0.0,0.0,6.2404,6.2482,6.26,6.3518,6.3893,6.4015,0.0,0.0,0.0,0.0,0.0,0.0,0.0,7.1565,7.2983,7.3017,7.4698,7.6854,7.7588,7.8404,7.9585,8.1879,8.2499,8.2884,8.4507,8.5407,8.6112,8.6926,8.7757,8.8822,9.0393,9.178,9.3176,9.4639,9.5442,0.0,9.6804,9.8107,9.9224,9.9916,10.049,10.1104,10.1702,10.1793,10.1714,10.1487,10.1504,10.1504,10.1504,10.1504,10.1504,10.1504,10.1504,10.1504,10.1504,10.1504,10.1504,10.1504,10.1504,10.1504,10.1504,10.1504,10.1504,10.1504,10.1504,10.1504,10.1514,10.1714,10.2686,10.43,10.4509,10.5605,10.7009,10.7009,10.7009,10.7009,10.7009,10.7101,10.7316,0.0,0.0,0.0,0.0,0.0,0.0,0.0,0.0,0.0,0.0,0.0,0.0,0.0,0.0,0.0,0.0,0.0,0.0,6.0196,6.036,6.089,6.1982,6.2385,6.2849,6.3456,6.3629,6.3625,6.3526,6.3595,6.3215,6.2434,6.265,0.0,6.1883,0.0,0.0,6.2147,6.2237,6.2634,6.3258,6.3677,6.4153,6.4694,0.0,0.0,0.0,0.0,0.0,0.0,0.0,0.0,0.0,7.3593,7.5098,7.6754,7.7494,7.8292,7.9434,8.1837,8.2411,8.2687,8.4362,8.5691,8.6638,8.6651,8.7516,8.8838,9.0774,9.2247,9.3661,9.5177,9.5976,9.6797,9.8056,9.8462,9.9049,10.031,10.0593,10.0892,10.1504,10.1594,10.1611,10.1514,10.1504,10.1504,10.1504,10.1504,10.1504,10.1504,10.1504,10.1504,10.1504,10.1504,10.1504,10.1504,10.1504,10.1504,10.1504,10.1504,10.1504,10.1504,10.1504,10.1504,10.1514,10.1611,10.2513,10.4103,10.5505,10.6414,10.7009,10.7009,10.7009,10.7009,10.7009,10.7012,10.7109,0.0,0.0,0.0,0.0,0.0,0.0,0.0,0.0,6.0453,6.0376,6.0268,6.011,0.0,0.0,0.0,5.9688,5.9505,0.0,6.043,6.0658,6.1328,6.2566,6.2821,6.3154,6.3647,6.3568,6.3531,6.3626,6.377,6.3616,6.3137,6.3273,0.0,6.2643,0.0,6.2956,6.297,6.3114,6.3465,6.4006,6.4117,6.4675,6.544,0.0,0.0,0.0,0.0,0.0,0.0,0.0,0.0,0.0,7.3854,7.5449,7.7108,7.7501,7.8643,8.0167,8.1929,8.2515,8.3063,8.4684,8.5921,8.6944,8.7658,8.8598,8.9862,9.1747,9.2947,9.4134,9.5673,9.646,9.7258,9.8474,9.9067,9.9617,10.0487,10.0804,10.1083,10.1487,10.1504,10.1504,10.1504,10.1798,10.2018,10.2018,10.2312,10.2495,10.2495,10.2495,10.2495,10.2495,10.2081,10.2018,10.2018,10.1688,10.1504,10.1504,10.1504,10.1504,10.1504,10.1504,10.1504,10.1504,10.2212,10.3009,10.4,10.5788,10.6705,10.6792,10.6792,10.6792,10.6792,10.6792,10.6806,10.6914,0.0,0.0,6.0749,0.0,0.0,0.0,0.0,6.0412,6.0373,6.0279,6.0099,5.997,0.0,0.0,0.0,5.9516,5.9374,5.9642,6.0426,6.101,6.1704,6.2544,6.3221,6.3522,6.337,6.337,6.3306,6.3183,6.3579,6.3752,6.3758,6.3867,6.3883,6.3894,0.0,6.4269,6.4289,6.4562,6.4705,6.4802,6.4896,6.5443,6.6206,6.6346,0.0,0.0,0.0,0.0,0.0,0.0,0.0,0.0,7.4,7.5846,7.7654,7.762,7.9326,8.1398,8.2042,8.2761,8.3728,8.5298,8.6172,8.7218,8.9384,9.0534,9.1526,9.2875,9.371,9.4613,9.6026,9.6876,9.7664,9.8448,9.9699,10.0585,10.0696,10.122,10.1504,10.1504,10.1587,10.1614,10.1614,10.2301,10.2805,10.2805,10.3513,10.389,10.389,10.389,10.389,10.389,10.3182,10.2805,10.2805,10.2091,10.1688,10.1688,10.1614,10.1614,10.1614,10.1504,10.1504,10.1587,10.3109,10.3806,10.399,10.5605,10.6302,10.6386,10.6386,10.6386,10.6386,10.6386,10.6512,10.6716,0.0,0.0,6.062,6.0607,0.0,0.0,6.0412,6.0369,6.0264,6.0087,5.9982,5.9885,5.9824,5.9671,0.0,5.9369,5.9272,5.977,6.1016,6.1214,6.1933,6.3295,6.3411,6.3365,6.3267,6.3224,6.3212,6.3183,6.337,6.3505,6.3505,6.3719,0.0,6.3823,0.0,6.4026,6.4205,6.497,6.5392,6.5547,6.6343,6.6796,6.6976,6.712,6.7737,0.0,0.0,0.0,0.0,0.0,0.0,0.0,7.5375,7.6629,7.7653,7.8185,7.9594,8.1171,8.199,8.2624,8.3452,8.5011,8.6654,8.8376,9.0188,9.1479,9.2451,9.2885,9.4002,9.5128,9.5934,9.7138,9.8261,9.9081,9.9865,10.0609,10.1197,10.1387,10.1504,10.1504,10.2091,10.2401,10.2401,10.3182,10.3586,10.3586,10.3806,10.389,10.389,10.389,10.389,10.389,10.3696,10.3586,10.3586,10.3486,10.3413,10.3413,10.2705,10.2401,10.2412,10.1798,10.1504,10.1587,10.2522,10.3293,10.4,10.5018,10.5789,10.6386,10.6386,10.6386,10.6386,10.6386,10.6408,10.6497,0.0,0.0,0.0,0.0,0.0,0.0,0.0,0.0,6.0095,5.9974,5.9877,5.9795,5.9572,5.9465,0.0,0.0,5.9464,6.0092,6.1236,6.1624,6.2329,6.3442,6.3396,6.323,6.3099,6.3099,6.329,6.3634,6.3719,6.3815,6.3887,0.0,0.0,6.4759,0.0,6.5045,6.5154,6.5683,6.6019,6.6211,6.6736,6.729,6.7851,6.8324,6.9091,7.0019,7.0901,0.0,0.0,0.0,0.0,0.0,0.0,0.0,7.8073,7.8885,8.0212,8.1609,8.2374,8.3345,8.4437,8.5802,8.7474,8.904,9.0233,9.1548,9.2752,9.35,9.4622,9.5752,9.6852,9.7927,9.8897,9.9715,10.0399,10.099,10.1394,10.1788,10.2091,10.2091,10.2815,10.3293,10.3293,10.399,10.4504,10.4504,10.4918,10.5102,10.5102,10.5102,10.5102,10.5102,10.4687,10.4504,10.4504,10.41,10.389,10.389,10.3513,10.3109,10.2705,10.1908,10.1504,10.1504,10.2385,10.2915,10.3403,10.421,10.5007,10.5789,10.5789,10.6009,10.6386,10.6386,10.6386,10.6386,0.0,0.0,0.0,0.0,0.0,0.0,0.0,0.0,0.0,5.9857,5.9786,5.9627,5.9318,5.9262,5.9168,0.0,0.0,0.0,6.1241,6.2106,6.28,6.3293,6.3212,6.3167,6.3199,6.3193,6.3548,6.4316,6.4375,6.4518,6.4746,6.4756,6.5118,6.5779,6.6022,0.0,0.0,0.0,0.0,0.0,6.7257,6.8046,6.9133,6.9868,7.0628,7.1398,7.2334,7.279,7.3065,7.3982,0.0,0.0,0.0,0.0,7.8808,7.9617,8.0943,8.2302,8.2975,8.4386,8.5882,8.6959,8.8303,8.9586,9.0407,9.1694,9.3145,9.4429,9.5405,9.6464,9.7899,9.8775,9.9548,10.0209,10.099,10.1504,10.1688,10.2301,10.2815,10.2889,10.3586,10.41,10.41,10.4787,10.5301,10.5301,10.6009,10.6386,10.6386,10.6386,10.6386,10.6386,10.5715,10.5301,10.5301,10.4698,10.4284,10.4284,10.421,10.3696,10.2889,10.2091,10.1614,10.1504,10.2191,10.2595,10.2815,10.3403,10.421,10.4897,10.4897,10.5301,10.5983,10.5983,10.5983,10.5983,0.0,0.0,0.0,0.0,0.0,0.0,0.0,0.0,0.0,0.0,5.9496,5.9336,5.9295,5.914,5.9022,5.893,5.9644,6.0412,6.1171,0.0,0.0,6.3069,6.3039,6.3334,6.3944,6.3938,6.4329,6.5148,6.5161,6.5511,6.6204,0.0,0.0,6.5632,0.0,0.0,6.6071,0.0,0.0,0.0,0.0,7.0459,7.1325,7.1699,7.1935,7.2188,7.3126,7.3924,7.4725,7.5532,7.6361,0.0,0.0,0.0,7.966,8.0371,8.1563,8.2866,8.3666,8.5325,8.7019,8.77,8.8976,9.0436,9.1805,9.3201,9.4503,9.5415,9.628,9.707,9.779,9.9164,10.0209,10.0293,10.099,10.1688,10.2401,10.2585,10.2999,10.3707,10.4383,10.4887,10.4887,10.5715,10.6192,10.6192,10.6302,10.6386,10.6386,10.6386,10.6386,10.6386,10.6313,10.6192,10.6192,10.6093,10.6093,10.6093,10.5311,10.4493,10.3696,10.2889,10.2201,10.1504,10.1614,10.2091,10.2695,10.2805,10.3282,10.411,10.411,10.41,10.421,10.421,10.421,10.421,0.0,0.0,0.0,0.0,0.0,0.0,0.0,0.0,0.0,0.0,0.0,5.9225,5.9085,5.9398,5.9553,5.9477,6.0561,6.155,6.2285,6.2872,6.3123,6.3008,6.3413,6.3755,6.4103,6.4537,6.5191,6.5962,6.5962,6.6366,6.7187,6.7373,6.7243,0.0,0.0,0.0,0.0,0.0,0.0,0.0,0.0,7.1151,7.1837,7.2901,7.3377,7.3694,7.509,0.0,7.623,7.6614,7.7257,7.8068,7.8784,0.0,0.0,0.0,8.259,8.3706,8.53,8.6646,8.7759,8.8411,8.9576,9.0872,9.1994,9.3344,9.4614,9.5459,9.6993,9.8251,9.854,9.9512,10.0393,10.0917,10.1294,10.1798,10.2595,10.3109,10.3696,10.4504,10.5311,10.5789,10.5789,10.6203,10.6386,10.6386,10.6386,10.6386,10.6386,10.6386,10.6386,10.6386,10.6386,10.6386,10.6386,10.6386,10.6386,10.6386,10.6009,10.5385,10.4614,10.42,10.3403,10.2118,10.1688,10.1688,10.2008,10.2008,10.2485,10.3209,10.3209,10.3513,10.389,10.389,10.389,10.389,0.0,0.0,0.0,0.0,0.0,0.0,0.0,0.0,0.0,0.0,0.0,5.9718,5.9548,0.0,0.0,0.0,6.1398,6.2426,6.311,6.3235,6.3315,6.3291,6.4,6.45,6.472,6.5301,6.5999,6.6813,6.7026,6.743,6.8024,6.8825,6.896,0.0,6.9244,0.0,0.0,0.0,0.0,0.0,0.0,7.2196,7.2973,7.4312,7.4925,7.5273,7.664,0.0,0.0,0.0,0.0,0.0,0.0,8.0533,0.0,0.0,0.0,8.4968,8.6564,8.7617,8.8395,8.9038,9.0043,9.1227,9.2379,9.352,9.4602,9.5611,9.7557,9.9098,9.9098,9.9916,10.0806,10.1394,10.1504,10.1918,10.2889,10.3513,10.4284,10.5301,10.6009,10.6386,10.6386,10.6386,10.6386,10.6386,10.6386,10.6386,10.6386,10.6386,10.6386,10.6386,10.6386,10.6386,10.6386,10.6386,10.6386,10.6386,10.6386,10.6093,10.5411,10.5191,10.441,10.3293,10.2191,10.1688,10.1504,10.1504,10.1908,10.2412,10.2412,10.2789,10.3303,10.3303,10.3303,10.3303,0.0,0.0,0.0,0.0,0.0,0.0,0.0,0.0,0.0,0.0,0.0,6.1209,6.1193,6.1043,6.0954,6.0948,6.1601,6.2286,6.299,6.3732,6.4112,6.4042,6.4824,0.0,6.6366,6.6402,6.6849,6.7627,6.8385,6.8781,6.8855,6.9669,7.0007,6.9984,7.0165,7.0233,7.0297,0.0,0.0,0.0,0.0,0.0,7.5988,7.6348,0.0,0.0,0.0,0.0,0.0,0.0,0.0,0.0,0.0,0.0,8.2801,0.0,0.0,0.0,8.6681,8.7773,8.9046,8.9543,9.0296,9.1486,9.3658,9.4235,9.474,9.6318,9.796,9.9098,9.9098,10.0393,10.1514,10.1504,10.1504,10.2008,10.3586,10.389,10.4504,10.6082,10.6386,10.6386,10.6386,10.6386,10.6386,10.6386,10.6386,10.6386,10.6386,10.6386,10.6386,10.6386,10.6386,10.6386,10.6386,10.6386,10.6386,10.6386,10.6386,10.6386,10.6313,10.5484,10.5081,10.4897,10.3282,10.2191,10.1504,10.1504,10.1504,10.1587,10.1587,10.1587,10.1614,10.1614,10.1614,10.1614,0.0,0.0,0.0,0.0,0.0,0.0,0.0,0.0,0.0,0.0,0.0,0.0,0.0,0.0,0.0,6.1627,6.2249,6.2941,6.3664,6.3982,6.4361,6.4861,6.5632,6.6219,6.6476,6.7504,6.8164,6.8458,6.9265,6.9669,6.9706,7.0506,7.113,7.1615,7.115,7.1294,7.1869,7.2489,0.0,0.0,0.0,0.0,0.0,0.0,0.0,0.0,0.0,0.0,0.0,0.0,0.0,0.0,0.0,0.0,0.0,8.5267,8.6236,8.6949,8.7718,8.8679,8.9595,9.0313,9.0963,9.1968,9.3878,9.4309,9.4749,9.6355,9.796,9.9098,9.9098,10.0393,10.1504,10.1504,10.1504,10.2101,10.3707,10.389,10.4504,10.6203,10.6386,10.6386,10.6386,10.6386,10.6386,10.6386,10.6386,10.6386,10.6386,10.6386,10.6386,10.6386,10.6386,10.6386,10.6386,10.6386,10.6386,10.6386,10.6386,10.6386,10.6386,10.6093,10.5595,10.5117,10.4493,10.3502,10.2191,10.1688,10.1504,10.1504,10.1504,10.1504,10.1504,10.1504,10.1504,10.1504,0.0,0.0,0.0,0.0,0.0,0.0,0.0,0.0,0.0,0.0,0.0,0.0,0.0,0.0,0.0,6.2688,6.3094,6.3676,6.4463,6.4757,6.5154,6.5662,6.6726,6.732,6.732,6.8605,6.9302,6.9302,7.0103,7.0513,7.055,7.1608,7.2378,7.2899,7.2628,7.2869,0.0,0.0,0.0,7.6274,0.0,0.0,7.7669,0.0,0.0,0.0,0.0,0.0,0.0,0.0,0.0,0.0,0.0,0.0,0.0,0.0,8.6788,8.7147,8.8334,8.9158,8.9893,9.0604,9.1306,9.2244,9.3905,9.4309,9.4749,9.6355,9.7787,9.8768,9.9061,10.0209,10.121,10.1514,10.1504,10.1981,10.3293,10.3696,10.4394,10.5789,10.6192,10.6386,10.6386,10.6386,10.6386,10.6386,10.6386,10.6386,10.6386,10.6386,10.6386,10.6386,10.6386,10.6386,10.6386,10.6386,10.6386,10.6386,10.6386,10.6386,10.6386,10.6386,10.6093,10.5484,10.518,10.42,10.2705,10.2081,10.1688,10.1504,10.1504,10.1504,10.1504,10.1504,10.1504,10.1504,0.0,0.0,0.0,0.0,0.0,0.0,0.0,0.0,0.0,0.0,0.0,0.0,0.0,0.0,0.0,6.4072,6.4139,6.4494,6.5295,6.6109,6.6549,6.6586,6.8084,6.8928,6.8928,6.9706,7.0153,7.0153,7.0984,7.138,7.1417,7.2973,7.3751,7.3824,7.4617,7.4977,7.5028,0.0,7.614,7.768,0.0,7.9123,8.0721,0.0,0.0,0.0,8.114,8.114,0.0,0.0,0.0,0.0,0.0,0.0,0.0,0.0,0.0,8.7686,0.0,0.0,0.0,9.0481,9.1216,9.2244,9.3905,9.4309,9.4749,9.6355,9.7356,9.8163,9.8951,9.9769,10.0586,10.1394,10.1504,10.1798,10.2595,10.3403,10.421,10.5007,10.5789,10.6386,10.6386,10.6386,10.6386,10.6386,10.6386,10.6386,10.6386,10.6386,10.6386,10.6386,10.6386,10.6386,10.6386,10.6386,10.6386,10.6386,10.6386,10.6386,10.6386,10.6386,10.6386,10.6386,10.5484,10.4189,10.2815,10.2695,10.2191,10.1504,10.1504,10.1504,10.1504,10.1504,10.1504,10.1504,0.0,0.0,0.0,0.0,0.0,6.3376,6.3384,6.3312,6.3314,0.0,0.0,0.0,0.0,0.0,0.0,6.4964,6.4964,6.5301,6.6109,6.6923,6.762,6.8194,6.9229,6.9779,6.9779,7.0543,7.0984,7.0984,7.2349,7.3046,7.3046,7.4103,7.4874,7.5469,7.6261,7.6995,7.7524,7.6939,0.0,0.0,7.9427,7.9889,0.0,0.0,0.0,0.0,0.0,8.234,0.0,0.0,8.4077,8.4247,0.0,0.0,0.0,0.0,0.0,0.0,8.899,0.0,0.0,0.0,0.0,0.0,9.3905,9.4309,9.4749,9.6355,9.7356,9.8163,9.8951,9.9769,10.0586,10.1394,10.1504,10.1798,10.2595,10.2889,10.3282,10.41,10.5018,10.5495,10.5495,10.6009,10.6386,10.6386,10.6386,10.6386,10.6386,10.6386,10.6386,10.6386,10.6386,10.6386,10.6386,10.6386,10.6386,10.6386,10.6386,10.6386,10.6386,10.6386,10.6386,10.6386,10.6119,10.5411,10.43,10.3209,10.2191,10.1504,10.1504,10.1504,10.1504,10.1504,10.1504,10.1504,0.0,0.0,6.3982,6.4173,6.4186,6.4186,6.4186,6.4174,6.4175,0.0,0.0,0.0,0.0,0.0,0.0,0.0,6.6292,6.6806,6.7944,6.8428,6.8905,6.9376,7.0183,7.077,7.1101,7.1901,7.2452,7.2812,7.3736,7.4184,7.4221,7.538,7.6151,7.6636,7.781,7.8801,7.958,7.9425,0.0,0.0,8.0483,0.0,0.0,8.1437,8.2134,0.0,0.0,0.0,8.4522,8.4969,8.5269,0.0,0.0,0.0,0.0,0.0,0.0,8.8529,0.0,8.9987,9.0803,9.1583,0.0,0.0,9.3905,9.4309,9.4749,9.6355,9.7052,9.764,9.8447,9.8961,9.9668,10.0806,10.099,10.1284,10.2081,10.2485,10.2889,10.3293,10.41,10.4604,10.4604,10.5385,10.5899,10.5899,10.6192,10.6386,10.6386,10.6386,10.6386,10.6386,10.6386,10.6386,10.6386,10.6386,10.6386,10.6386,10.6386,10.6386,10.6386,10.6386,10.6386,10.6386,10.6386,10.5899,10.5007,10.3686,10.2705,10.1981,10.1614,10.1504,10.1504,10.1504,10.1504,10.1504,0.0,0.0,6.4752,6.5441,6.5583,6.5583,6.5583,6.552,6.5481,0.0,0.0,0.0,0.0,0.0,0.0,0.0,6.7958,6.8575,7.0007,7.0264,7.0374,7.0374,7.1204,7.2041,7.2753,7.345,7.4184,7.4903,7.4977,7.5094,7.5197,0.0,0.0,0.0,7.9213,8.0396,8.1195,8.2003,0.0,8.1423,8.1531,8.2007,0.0,0.0,8.357,0.0,8.442,8.4955,8.5542,8.5653,0.0,0.0,0.0,0.0,0.0,0.0,8.7896,8.861,8.9326,0.0,0.0,0.0,0.0,0.0,9.3905,9.4309,9.4749,9.6355,9.6685,9.6942,9.776,9.7906,9.8384,9.9916,10.0209,10.0513,10.1394,10.2081,10.2595,10.2595,10.3293,10.3817,10.3817,10.4504,10.5007,10.5007,10.5789,10.6313,10.6313,10.6302,10.6386,10.6386,10.6386,10.6386,10.6386,10.6386,10.6386,10.6386,10.6386,10.6386,10.6386,10.6386,10.6386,10.6386,10.6386,10.6019,10.5191,10.4394,10.3513,10.2585,10.1798,10.1504,10.1504,10.1504,10.1504,10.1504,6.5268,6.5286,6.5285,6.5355,6.5372,6.5372,6.5372,6.5353,6.5333,6.5333,0.0,0.0,0.0,0.0,0.0,0.0,0.0,6.975,7.008,7.1321,7.2018,7.2018,7.3406,7.428,7.4434,7.4581,7.4727,7.4903,7.5535,7.6195,7.6848,7.7884,0.0,0.0,8.0314,8.1195,8.2011,8.2802,0.0,8.3911,8.3945,0.0,8.4351,8.4416,8.4647,8.4894,8.4962,8.5052,8.5311,0.0,8.6692,8.73,0.0,0.0,0.0,0.0,0.0,0.0,0.0,0.0,0.0,0.0,0.0,0.0,9.3905,9.4309,9.4749,9.6355,9.6685,9.6942,9.776,9.7906,9.82,9.9172,9.9318,9.9842,10.1284,10.1614,10.1688,10.1688,10.2412,10.2915,10.2915,10.3696,10.41,10.41,10.4897,10.5411,10.5411,10.6009,10.6386,10.6386,10.6386,10.6386,10.6386,10.6386,10.6386,10.6386,10.6386,10.6386,10.6386,10.6386,10.6386,10.6386,10.6386,10.6313,10.6093,10.5191,10.4016,10.2585,10.1798,10.1504,10.1504,10.1504,10.1504,10.1504,6.5932,6.5992,6.612,6.6452,6.6512,6.6623,6.702,6.7093,6.724,6.7644,6.8391,0.0,0.0,0.0,0.0,0.0,0.0,0.0,7.2452,7.3259,7.37,7.37,7.4463,7.5094,7.5498,7.5894,7.6298,7.6746,7.7561,7.8156,7.8581,7.9396,0.0,0.0,8.1664,8.2435,8.2875,8.4095,8.4829,8.5159,8.4756,0.0,8.4706,8.478,8.5136,8.5603,8.5655,8.5946,8.6418,8.714,8.7668,0.0,0.0,8.8631,8.8944,0.0,8.9665,9.0583,0.0,0.0,0.0,9.1803,0.0,0.0,0.0,9.4309,9.4749,9.6355,9.6685,9.6832,9.7236,9.7309,9.7566,9.8374,9.8484,9.8924,10.0099,10.0613,10.0917,10.0917,10.1604,10.2081,10.2081,10.2815,10.3513,10.389,10.4284,10.4687,10.5117,10.5484,10.6019,10.6386,10.6386,10.6386,10.6386,10.6386,10.6386,10.6386,10.6386,10.6386,10.6386,10.6386,10.6386,10.6386,10.6386,10.6386,10.6302,10.5495,10.4383,10.3219,10.2412,10.1908,10.1504,10.1504,10.1504,10.1504,6.6623,6.6733,6.699,6.7804,6.7914,6.8208,6.9002,6.9112,6.9376,7.0007,7.022,7.0403,0.0,0.0,0.0,0.0,0.0,0.0,7.4793,7.5197,7.5344,7.5344,7.5682,7.6159,7.679,7.7443,7.8141,7.8809,7.9486,7.989,8.0028,8.0681,8.115,8.1517,8.2839,8.3564,8.394,8.5233,0.0,8.5976,0.0,8.5196,8.5094,8.5339,8.5876,8.6535,8.6787,8.7316,8.7963,8.8483,0.0,8.8774,8.9269,8.951,0.0,0.0,0.0,0.0,0.0,0.0,0.0,0.0,0.0,9.2464,0.0,0.0,0.0,9.6392,9.6685,9.6685,9.6685,9.6685,9.6906,9.7576,9.7686,9.7897,9.8548,9.9328,9.9879,10.0099,10.0613,10.11,10.1294,10.2008,10.2705,10.3413,10.3596,10.399,10.4604,10.4787,10.5311,10.6082,10.6119,10.6192,10.6386,10.6386,10.6386,10.6386,10.6386,10.6386,10.6386,10.6386,10.6386,10.6386,10.6386,10.6386,10.6302,10.5595,10.4798,10.3806,10.2999,10.2191,10.1504,10.1504,10.1504,10.1504,6.7694,6.7554,6.7804,6.8635,6.8745,6.9038,6.9853,6.997,7.0,7.0073,7.0727,7.1424,0.0,0.0,0.0,0.0,0.0,0.0,7.4903,0.0,7.7024,7.7024,7.8442,7.9302,7.9376,7.9478,7.9559,7.9669,7.9779,8.0175,8.0865,8.0967,8.1774,8.3124,8.3308,8.4197,8.5535,8.5719,8.6224,0.0,8.7545,8.7353,0.0,8.7526,8.7874,8.8057,8.8801,8.9094,8.9205,0.0,8.9288,8.9316,0.0,8.9877,0.0,0.0,0.0,0.0,0.0,0.0,0.0,0.0,9.2391,0.0,0.0,0.0,9.5611,9.6539,0.0,9.6685,9.6685,0.0,0.0,9.6832,9.6832,9.6869,9.6979,9.7686,9.8457,9.9135,9.9318,9.9659,10.0403,10.121,10.1688,10.1808,10.2412,10.2889,10.2999,10.3613,10.4394,10.518,10.518,10.5595,10.6386,10.6386,10.6386,10.6386,10.6386,10.6386,10.6386,10.6386,10.6386,10.6386,10.6386,10.6386,10.6386,10.6313,10.5311,10.3806,10.2999,10.2191,10.1504,10.1504,10.1504,10.1504,6.9162,6.9089,6.9199,6.9522,6.9596,6.9889,7.0653,7.1578,7.2172,7.2172,7.2892,7.3509,0.0,0.0,0.0,0.0,0.0,0.0,0.0,0.0,7.8736,7.8736,7.9404,7.9816,7.9816,8.0249,8.0498,8.0498,8.0946,8.1599,8.2398,8.2398,8.2986,8.4123,8.4572,8.5159,8.5865,0.0,8.7399,0.0,0.0,0.0,0.0,8.8785,8.8895,8.8931,8.929,8.94,8.9473,0.0,9.0106,0.0,0.0,0.0,0.0,0.0,0.0,0.0,0.0,0.0,0.0,0.0,0.0,0.0,0.0,0.0,9.5721,0.0,0.0,0.0,0.0,0.0,0.0,0.0,9.6685,0.0,9.6685,9.6979,9.7493,9.83,9.8814,9.9245,9.9575,10.0319,10.0806,10.0806,10.1494,10.2191,10.2705,10.2989,10.3586,10.4394,10.4897,10.5301,10.5595,10.6119,10.6386,10.6386,10.6386,10.6386,10.6386,10.6386,10.6386,10.6386,10.6386,10.6386,10.6386,10.6386,10.5395,10.389,10.3513,10.2595,10.1504,10.1504,10.1504,10.1504,7.0697,7.041,7.0183,7.0403,7.0624,7.1101,7.2114,7.3296,7.4037,7.4037,7.4544,0.0,7.5204,7.5417,0.0,0.0,0.0,7.8251,0.0,0.0,8.0139,0.0,8.0322,0.0,0.0,8.1269,8.1664,8.1664,8.248,8.3177,8.372,8.372,8.416,8.4939,8.5535,8.6049,8.6526,0.0,8.8316,8.861,8.9409,8.984,9.0024,8.9803,8.9877,9.0069,9.0069,9.0069,9.0143,9.073,9.0913,0.0,9.162,0.0,0.0,0.0,0.0,0.0,9.1803,0.0,0.0,0.0,0.0,0.0,0.0,0.0,0.0,0.0,0.0,0.0,0.0,0.0,0.0,0.0,0.0,9.6685,0.0,9.6685,0.0,9.7503,9.8264,9.8778,9.8778,9.9512,9.9989,9.9989,10.0686,10.1384,10.2008,10.2301,10.2705,10.3513,10.409,10.4714,10.5117,10.5705,10.6203,10.6386,10.6386,10.6386,10.6386,10.6386,10.6386,10.6386,10.6386,10.6386,10.6386,10.6386,10.5395,10.389,10.389,10.2899,10.1504,10.1504,10.1504,10.1504,7.2268,7.1174,7.033,7.1123,7.1901,7.2966,7.4536,7.4837,7.4874,7.4874,0.0,0.0,0.0,0.0,0.0,0.0,0.0,7.9743,7.9779,0.0,8.0967,0.0,0.0,0.0,0.0,0.0,8.3308,8.3308,8.4123,8.4535,8.4572,8.4572,8.4976,8.5755,8.5792,8.6673,8.8133,8.8169,8.8638,8.9436,9.0253,9.1033,9.1657,0.0,9.1069,9.173,9.173,0.0,0.0,9.1739,9.1767,0.0,0.0,0.0,0.0,0.0,0.0,0.0,0.0,0.0,0.0,9.2868,0.0,0.0,0.0,0.0,9.6685,0.0,0.0,0.0,0.0,0.0,0.0,0.0,0.0,0.0,0.0,0.0,0.0,0.0,0.0,0.0,0.0,9.8668,9.9135,0.0,9.9879,10.0319,10.0393,10.11,10.1908,10.2695,10.2815,10.3502,10.5117,10.5107,10.5605,10.6386,10.6386,10.6386,10.6386,10.6386,10.6386,10.6386,10.6386,10.6386,10.6386,10.6386,10.5395,10.389,10.389,10.2899,10.1504,10.1504,10.1504,10.1504,7.4023,7.3663,7.3186,7.2936,7.3553,7.4287,7.483,7.5351,7.5902,0.0,0.0,0.0,0.0,0.0,7.9066,0.0,0.0,8.0571,8.0571,8.1848,0.0,0.0,0.0,8.3801,0.0,0.0,8.4197,8.4197,8.4454,8.4866,8.5388,8.5388,8.582,8.6628,8.7142,8.7692,8.828,8.9344,0.0,0.0,0.0,9.2427,9.2648,0.0,9.2427,9.2721,9.3272,9.3455,0.0,9.3455,9.3455,9.3354,9.2831,9.2648,9.2537,9.195,9.1803,0.0,0.0,0.0,9.2721,9.3015,0.0,0.0,0.0,0.0,0.0,0.0,0.0,0.0,0.0,0.0,0.0,0.0,0.0,0.0,0.0,0.0,0.0,0.0,0.0,0.0,0.0,0.0,0.0,0.0,9.9035,0.0,9.9502,10.0293,10.0796,10.109,10.2108,10.2999,10.3502,10.4604,10.518,10.5484,10.6119,10.6386,10.6386,10.6386,10.6386,10.6386,10.6386,10.6386,10.6386,10.5789,10.4908,10.3806,10.3293,10.2412,10.1504,10.1504,10.1504,10.1504,7.4903,7.5124,7.5058,7.4258,7.5021,7.5858,7.6159,7.69,0.0,0.0,7.8662,0.0,7.9743,0.0,8.0359,0.0,8.1379,8.1958,8.2251,8.3242,0.0,8.383,8.4307,0.0,0.0,0.0,8.5013,8.5013,8.5306,8.571,8.6224,8.6518,8.6921,8.7463,8.8271,8.8793,8.9124,9.0143,9.0767,0.0,0.0,9.3272,0.0,0.0,9.3786,9.3602,0.0,9.4309,9.4309,9.4309,9.4309,9.4199,9.3675,9.3529,9.3418,9.284,9.2694,9.2694,9.2694,9.3088,0.0,9.3886,9.473,0.0,9.5868,0.0,0.0,0.0,0.0,0.0,0.0,0.0,0.0,0.0,0.0,0.0,0.0,0.0,0.0,0.0,0.0,0.0,0.0,0.0,0.0,0.0,0.0,0.0,0.0,9.9438,9.9989,10.0283,10.131,10.2108,10.2695,10.3686,10.4483,10.5117,10.5715,10.6082,10.6386,10.6386,10.6386,10.6386,10.6386,10.6386,10.6302,10.5495,10.4604,10.3806,10.2999,10.2191,10.1504,10.1504,10.1504,10.1504,7.5094,7.5718,7.6056,7.5278,7.6408,7.7693,7.8516,0.0,7.9816,0.0,7.9926,7.9963,8.0036,8.0718,8.1489,8.2268,8.3022,0.0,8.4535,8.4646,0.0,0.0,8.4719,8.4719,8.4719,0.0,0.0,0.0,8.6656,8.706,8.7096,8.7867,8.8243,8.828,8.9115,8.9877,9.0583,9.062,9.1143,9.195,9.2868,9.3675,9.4456,9.5236,9.508,9.4419,9.4419,9.4419,9.4419,9.4419,9.4419,9.4419,9.4382,9.4345,9.4345,9.4309,9.4309,9.4309,9.4309,9.4345,9.452,9.5318,0.0,0.0,0.0,0.0,9.6685,0.0,0.0,0.0,0.0,0.0,0.0,0.0,0.0,0.0,0.0,0.0,0.0,0.0,0.0,0.0,0.0,0.0,0.0,0.0,0.0,0.0,0.0,9.8594,9.9392,10.0209,10.0293,10.11,10.2585,10.2705,10.3502,10.5007,10.5117,10.5484,10.6302,10.6386,10.6386,10.6386,10.6386,10.6386,10.6302,10.5411,10.4604,10.3806,10.2999,10.2201,10.1504,10.1504,10.1504,10.1504,7.7635,7.8303,7.8788,7.8597,7.889,7.9221,7.9441,0.0,0.0,0.0,8.157,8.2048,8.3251,8.3544,8.3765,8.3985,8.416,0.0,0.0,0.0,0.0,8.5498,8.6069,8.6399,8.6399,8.6582,0.0,8.6693,0.0,8.7876,8.7912,8.8711,8.9069,8.9152,8.9922,9.04,9.062,9.1253,9.1987,9.2905,9.429,9.5024,9.5281,0.0,9.6245,9.6098,9.6098,9.6098,9.6098,9.6098,9.6098,9.5988,9.5401,9.5171,9.5061,9.4492,9.4309,9.4309,9.4309,9.474,9.5244,9.5465,9.5942,9.6456,0.0,0.0,0.0,0.0,0.0,0.0,0.0,0.0,0.0,0.0,0.0,0.0,0.0,0.0,0.0,0.0,0.0,0.0,0.0,0.0,0.0,0.0,0.0,0.0,9.7016,9.776,9.8594,9.9392,9.9989,10.0806,10.1798,10.2412,10.2915,10.3319,10.4483,10.518,10.5495,10.6082,10.6386,10.6386,10.6386,10.6386,10.6313,10.4798,10.41,10.3817,10.2385,10.1688,10.1504,10.1504,10.1504,10.1504,7.9111,7.9771,8.0432,8.0799,8.113,8.1277,8.0909,0.0,0.0,8.3067,8.3251,0.0,8.4499,8.4609,8.4756,8.5086,8.5123,0.0,0.0,0.0,0.0,8.682,8.7288,8.75,8.75,8.7867,0.0,8.8042,0.0,8.8711,8.8748,8.9555,8.9913,8.995,9.0767,9.1354,9.1758,9.2537,9.3382,9.4217,9.5134,9.5721,0.0,9.6539,9.6685,9.6685,9.6685,9.6685,9.6685,9.6685,9.6685,9.6612,9.6162,9.6015,9.5942,9.5474,9.5327,9.5327,9.5327,9.5694,9.6015,9.6015,9.6392,9.6685,9.6685,9.6685,9.6685,0.0,0.0,0.0,0.0,0.0,0.0,0.0,0.0,0.0,0.0,0.0,0.0,0.0,0.0,0.0,0.0,0.0,0.0,0.0,0.0,0.0,0.0,9.7126,9.775,9.8557,9.9365,10.0219,10.099,10.1798,10.2385,10.2695,10.399,10.4798,10.5107,10.6009,10.6386,10.6386,10.6386,10.6386,10.6313,10.4588,10.389,10.3696,10.2091,10.1504,10.1504,10.1504,10.1504,10.1504,8.0212,8.0901,8.1709,8.237,8.3096,0.0,0.0,8.3169,0.0,8.4646,0.0,8.4939,8.5049,8.5159,8.5527,8.6196,0.0,8.6885,8.828,8.7684,8.7647,8.8316,8.8353,8.8353,8.8353,8.9033,0.0,0.0,0.0,8.9546,8.9583,9.051,9.0913,9.095,9.1767,9.2537,9.3308,9.4116,9.485,9.5501,9.5611,9.6088,9.6722,9.6832,9.6869,9.6869,9.6979,9.6869,9.6685,9.6685,9.6685,9.6685,9.6685,9.6685,9.6685,9.6685,9.6685,9.6685,9.6685,9.6685,9.6685,9.6685,9.6685,9.6685,9.6685,9.6685,9.6685,9.6685,9.6685,9.6685,0.0,0.0,0.0,0.0,0.0,0.0,0.0,0.0,0.0,0.0,0.0,0.0,0.0,0.0,0.0,0.0,0.0,0.0,0.0,0.0,9.7052,9.787,9.8668,9.9502,10.0283,10.11,10.1908,10.2595,10.3486,10.4284,10.5007,10.6019,10.6386,10.6386,10.6386,10.6386,10.6313,10.4687,10.3917,10.3596,10.2091,10.1504,10.1504,10.1504,10.1504,10.1504,8.2508,8.3426,8.4022,8.4168,8.4315,8.4572,8.5094,8.4719,8.4682,8.5498,8.6187,8.6839,8.7509,8.8161,8.8629,8.8739,8.8785,0.0,0.0,0.0,0.0,8.9179,8.9179,8.9179,8.9179,8.9326,8.94,0.0,0.0,9.04,9.0436,9.1941,9.2638,9.2721,9.3492,9.3942,9.4153,9.4951,9.5354,9.5575,9.6199,9.6575,9.6759,9.7429,9.7686,9.7796,9.8447,9.7823,9.6685,9.6685,9.6685,9.6685,9.6685,9.6685,9.6685,9.6685,9.6685,9.6685,9.6685,9.6685,9.6685,9.6685,9.6685,9.6685,9.6685,9.6685,9.6685,9.6685,9.6685,9.6685,9.6685,0.0,0.0,0.0,0.0,0.0,0.0,0.0,0.0,0.0,0.0,0.0,0.0,0.0,0.0,0.0,0.0,0.0,0.0,0.0,9.7052,0.0,9.8668,9.9502,0.0,0.0,10.1587,10.1688,10.3193,10.4,10.421,10.5689,10.6386,10.6386,10.6386,10.6386,10.6313,10.5301,10.409,10.2815,10.1908,10.1504,10.1504,10.1504,10.1504,10.1504,8.3866,8.4344,0.0,0.0,0.0,0.0,0.0,8.7068,0.0,8.704,8.7757,8.8372,8.8785,8.9179,8.94,8.94,8.94,8.9583,8.9987,8.962,8.9583,8.9987,9.0024,0.0,9.0024,0.0,9.062,9.062,0.0,9.1427,9.1904,9.2721,9.3308,9.3749,9.4556,9.4923,9.4997,9.5758,9.6125,9.6162,9.6539,9.6942,9.7356,9.776,9.8163,9.8557,9.8951,9.8584,9.7924,9.7924,9.7924,9.7924,9.7924,9.7676,9.7309,9.7309,9.7016,9.6685,9.6685,9.6685,9.6685,9.6685,9.6685,9.6795,9.7236,9.7016,9.6832,9.7236,9.6979,9.6685,9.6685,9.6685,0.0,0.0,0.0,0.0,0.0,0.0,0.0,0.0,0.0,0.0,0.0,0.0,0.0,0.0,0.0,0.0,0.0,9.6685,9.7052,0.0,0.0,0.0,10.0283,0.0,10.1504,10.1504,10.3109,10.389,10.4,10.5605,10.6386,10.6386,10.6386,10.6386,10.6313,10.5018,10.3806,10.2585,10.1798,10.1504,10.1504,10.1504,10.1504,10.1504,8.4866,8.5123,0.0,0.0,8.6995,0.0,8.8353,8.9152,8.9363,8.8564,8.9152,8.9657,8.9657,8.9987,9.0207,9.0207,9.0354,9.073,9.1354,9.0803,9.0656,9.1097,9.1134,9.1023,9.084,9.1657,9.206,0.0,0.0,0.0,9.3345,9.3519,9.4042,9.4859,9.5465,9.5758,9.5795,9.6428,9.6685,9.6722,9.6906,9.7319,9.7943,9.8273,9.8814,9.9392,9.9539,9.9622,9.9622,9.9622,9.9392,9.9098,9.9098,9.8668,9.8163,9.8163,9.7713,9.7199,9.7199,9.7199,9.7199,9.7199,9.7199,9.7383,9.8007,9.764,9.7383,9.8016,9.753,9.6942,9.6942,9.6832,0.0,0.0,0.0,0.0,0.0,0.0,0.0,0.0,0.0,0.0,0.0,0.0,0.0,0.0,0.0,0.0,9.6685,9.6685,0.0,0.0,0.0,9.9502,10.0283,0.0,10.1504,10.1504,10.3109,10.389,10.4,10.5605,10.6386,10.6386,10.6386,10.6386,10.6313,10.4798,10.3696,10.2889,10.2091,10.1698,10.1504,10.1504,10.1504,10.1504,8.5682,8.6857,0.0,0.0,0.0,8.9216,8.929,8.995,9.0216,8.94,8.9996,9.0473,9.0473,9.1831,9.2749,9.2749,9.3418,9.3868,9.3942,9.3868,9.3529,9.2895,9.2859,9.2501,9.1693,9.2537,9.2978,0.0,0.0,9.4125,9.4199,9.4914,9.5685,9.6465,9.6539,9.6575,9.6575,9.6685,9.6685,9.6759,9.7503,9.7833,9.8053,9.9512,10.0099,10.0293,10.099,10.1284,10.1284,10.1284,10.0283,9.9098,9.9098,9.9061,9.8988,9.8988,9.8915,9.8878,9.8878,9.8878,9.8878,9.8878,9.8878,9.8915,9.8951,9.8915,9.8915,9.8951,9.8337,9.7796,9.7796,9.7199,9.6685,0.0,0.0,0.0,0.0,0.0,0.0,0.0,0.0,0.0,0.0,0.0,0.0,0.0,9.6685,0.0,0.0,0.0,0.0,9.787,9.8668,9.9502,10.0283,10.11,10.1504,10.1504,10.3109,10.389,10.4,10.5605,10.6386,10.6386,10.6386,10.6386,10.6302,10.5411,10.4493,10.3696,10.2889,10.2118,10.1504,10.1504,10.1504,10.1504,0.0,0.0,0.0,0.0,0.0,0.0,0.0,9.0704,9.118,9.1354,9.1794,9.2088,9.2088,9.3125,9.3822,9.3822,9.4116,9.4309,9.4309,9.4309,9.4162,9.3822,9.3822,9.3639,9.3318,9.3639,9.3822,0.0,0.0,0.0,9.5034,9.5364,9.5924,9.6685,9.6685,9.6685,9.6685,9.6685,9.6979,9.7466,9.776,9.8494,9.9402,10.0109,10.0613,10.111,10.1394,10.1504,10.1504,10.1504,10.11,10.0503,10.0503,10.0209,9.9805,9.9805,9.9465,9.9098,9.9098,9.9098,9.9098,9.9098,9.9098,9.9245,9.9695,9.9465,9.9245,9.9732,9.9181,9.8631,9.8631,9.797,9.7429,0.0,0.0,0.0,0.0,0.0,0.0,0.0,0.0,0.0,0.0,0.0,0.0,0.0,0.0,0.0,0.0,0.0,0.0,9.8594,9.9402,10.0209,10.099,10.132,10.1504,10.1504,10.3109,10.389,10.4,10.5605,10.6386,10.6386,10.6386,10.6386,10.6302,10.5495,10.4897,10.4504,10.3209,10.2522,10.2201,10.1688,10.1504,10.1504,8.8368,0.0,8.9596,0.0,9.0228,9.085,9.1107,9.1508,9.2036,9.2867,9.333,9.3525,9.3268,9.403,9.4545,9.4545,9.4858,9.5006,9.5006,9.5006,9.4887,9.4666,9.4666,0.0,9.4309,9.452,9.4666,9.4666,9.4887,0.0,9.5868,9.5851,9.6144,9.6685,9.6685,9.6685,9.6722,9.6942,9.7383,9.7943,9.842,9.9301,10.0319,10.0586,10.099,10.1504,10.1798,10.1908,10.1908,10.2091,10.2201,10.2091,10.1614,10.11,10.0696,10.0696,10.0293,9.9805,9.9805,9.9805,9.9805,9.9805,9.9805,9.9952,10.0503,10.0209,9.9989,10.0503,9.9989,9.9465,9.9465,9.8814,9.8163,9.7943,0.0,0.0,0.0,0.0,0.0,0.0,0.0,0.0,0.0,0.0,0.0,0.0,0.0,0.0,0.0,0.0,0.0,0.0,0.0,0.0,10.1504,10.1504,10.1614,10.1908,10.3182,10.399,10.4284,10.5715,10.6386,10.6386,10.6386,10.6386,10.6386,10.5705,10.5301,10.5007,10.3786,10.3293,10.2999,10.2081,10.1908,10.1798,8.8799,8.9446,8.9993,8.9993,9.0659,9.1471,9.2264,9.2364,9.2692,9.3484,9.426,9.4488,9.3676,9.4565,9.5204,9.5204,9.6093,9.6685,9.6685,9.6685,9.6318,0.0,0.0,9.5098,9.4309,9.507,9.5501,9.5501,0.0,0.0,9.6685,9.6685,9.6685,9.6685,9.6685,9.6685,9.6759,9.7539,9.7906,9.8053,9.9622,10.0293,10.0393,10.121,10.1504,10.1614,10.2412,10.2705,10.2815,10.3586,10.389,10.3596,10.1981,10.1504,10.1504,10.1504,10.1514,10.1514,10.1514,10.1514,10.1514,10.1514,10.1514,10.1514,10.1514,10.1514,10.1514,10.1514,10.0796,10.0283,10.0283,9.9612,9.8841,9.8016,0.0,0.0,0.0,0.0,0.0,0.0,0.0,9.6685,9.6685,0.0,0.0,0.0,0.0,0.0,0.0,0.0,0.0,9.9061,9.9879,0.0,10.1504,10.1504,10.1908,10.2695,10.3513,10.432,10.5117,10.6009,10.6386,10.6386,10.6386,10.6386,10.6386,10.6386,10.5899,10.5117,10.5117,10.4604,10.3817,10.2999,10.2705,10.2595,8.9629,9.0249,9.0805,9.0805,9.1498,9.2108,9.2364,9.2747,9.3303,9.4103,9.4309,9.4508,9.4809,9.5389,9.5745,0.0,9.6024,9.621,0.0,9.6394,9.6372,9.6116,9.6242,9.6208,9.5951,9.6208,9.6318,9.6318,0.0,0.0,9.6685,9.6685,9.6685,9.6685,9.6685,9.7016,9.7539,9.7796,9.853,9.9585,10.0099,10.0613,10.121,10.2008,10.2301,10.2412,10.3219,10.3513,10.3596,10.3806,10.389,10.3806,10.3303,10.3109,10.3109,10.3109,10.3109,10.3109,10.3109,10.3109,10.3109,10.3109,10.3109,10.3109,10.3109,10.2705,10.2301,10.2301,10.1688,10.11,10.11,10.0513,9.9842,9.9585,9.8604,0.0,0.0,0.0,0.0,0.0,0.0,9.6685,0.0,9.6685,0.0,0.0,0.0,0.0,0.0,0.0,0.0,0.0,10.0696,0.0,10.1504,10.1504,10.1908,10.2695,10.3513,10.4614,10.6009,10.6313,10.6386,10.6386,10.6386,10.6386,10.6386,10.6386,10.6192,10.5899,10.5301,10.4887,10.4604,10.3806,10.3182,10.2705,9.0238,9.0856,9.1448,9.1448,9.2093,9.2748,9.3029,9.3391,9.3927,9.4726,9.5011,9.529,9.5807,9.6338,0.0,9.6352,9.6688,9.6922,9.6922,9.7053,9.721,9.7299,9.7418,9.7525,9.7593,9.7593,9.7456,9.7163,9.6832,9.6685,9.6722,9.7016,9.7163,9.7163,9.7456,9.7897,9.8374,9.8668,9.9365,10.0319,10.0613,10.12,10.2008,10.2522,10.2889,10.3293,10.41,10.4394,10.4394,10.4687,10.4798,10.4798,10.4798,10.4798,10.4698,10.411,10.389,10.389,10.389,10.389,10.389,10.389,10.389,10.389,10.389,10.3513,10.3182,10.3182,10.2485,10.1981,10.1981,10.132,10.0696,10.0319,9.9448,9.8604,9.798,0.0,0.0,0.0,0.0,0.0,0.0,9.6685,0.0,0.0,0.0,0.0,0.0,0.0,0.0,10.0293,10.11,0.0,10.1504,10.1798,10.2385,10.3182,10.4284,10.5395,10.6386,10.6386,10.6386,10.6386,10.6386,10.6386,10.6386,10.6386,10.6386,10.6302,10.5789,10.5605,10.5495,10.4687,10.4016,10.3502,9.069,9.1342,9.1885,9.1885,9.2563,9.3324,9.4084,9.4265,9.4555,9.5373,9.6133,9.6604,9.6677,9.7401,9.7657,9.7096,9.785,9.8375,9.8375,9.8386,9.8489,9.8749,9.8789,9.889,9.9069,9.9088,9.8741,9.798,9.7236,9.6869,9.6869,9.764,9.798,9.8016,9.8778,9.9135,9.9245,9.9989,10.0403,10.0503,10.1284,10.2091,10.2815,10.2805,10.3282,10.41,10.4897,10.5191,10.5301,10.6119,10.6386,10.6386,10.6386,10.6386,10.6093,10.4504,10.411,10.411,10.411,10.411,10.411,10.411,10.411,10.411,10.411,10.399,10.4,10.4,10.3282,10.2815,10.2695,10.2081,10.132,10.0503,10.0319,9.9779,9.8273,0.0,0.0,0.0,0.0,0.0,0.0,9.6869,9.7163,0.0,0.0,0.0,0.0,0.0,10.0393,10.0393,10.11,10.1504,10.1587,10.2301,10.3099,10.399,10.5605,10.6386,10.6386,10.6386,10.6386,10.6386,10.6386,10.6386,10.6386,10.6386,10.6386,10.6386,10.6386,10.6386,10.6313,10.5484,10.5191,10.4897,9.1523,9.2165,9.2708,9.2708,9.3396,9.3975,9.4157,9.471,9.5409,9.6206,9.6495,9.6821,9.7437,9.8223,9.8643,9.8516,9.8171,9.7949,9.7949,9.8109,9.8177,9.8277,9.8617,9.882,9.8886,9.9009,9.9025,9.8814,9.8621,9.8511,9.8548,9.8741,9.8814,9.8805,9.9025,9.9428,9.9989,10.0209,10.1017,10.2108,10.2291,10.2889,10.3696,10.431,10.4714,10.4897,10.5789,10.6082,10.6119,10.6302,10.6386,10.6386,10.6386,10.6386,10.6313,10.5899,10.5799,10.5799,10.5799,10.5799,10.5799,10.5799,10.5799,10.5799,10.5799,10.5311,10.4787,10.4787,10.421,10.3403,10.2805,10.2512,10.2201,10.131,10.0696,10.0219,9.9769,9.9218,9.8731,0.0,9.8511,9.8511,9.8511,9.8511,9.8621,0.0,0.0,9.9879,10.0293,10.0917,10.121,10.121,10.1394,10.1798,10.2412,10.2585,10.3392,10.4787,10.5899,10.6386,10.6386,10.6386,10.6386,10.6386,10.6386,10.6386,10.6386,10.6386,10.6386,10.6386,10.6386,10.6386,10.6386,10.6203,10.5715,10.4997,9.2346,9.2998,9.3541,9.3541,9.4193,9.4855,9.5253,9.5662,9.6242,9.7039,9.7473,9.7861,9.8296,9.9056,9.9563,9.9563,9.9165,9.8911,9.8911,9.8984,9.9092,9.9199,9.9453,9.9682,9.9877,9.9999,9.9926,9.9659,9.9282,9.9098,9.9098,9.9465,9.9659,9.9649,9.9989,10.0613,10.1384,10.1384,10.2118,10.3209,10.3209,10.3686,10.4504,10.4887,10.529,10.5789,10.6192,10.6386,10.6386,10.6386,10.6386,10.6386,10.6386,10.6386,10.6386,10.6386,10.6386,10.6386,10.6386,10.6386,10.6386,10.6386,10.6386,10.6386,10.6386,10.6009,10.5715,10.5715,10.5007,10.431,10.3906,10.3502,10.2999,10.2201,10.1714,10.108,10.0393,9.9916,9.9502,9.9135,9.9098,9.9098,9.9098,9.9098,9.9245,9.9622,10.0099,0.0,10.0796,10.1294,10.1504,10.1504,10.1908,10.2301,10.2695,10.3392,10.442,10.5715,10.6203,10.6386,10.6386,10.6386,10.6386,10.6386,10.6386,10.6386,10.6386,10.6386,10.6386,10.6386,10.6386,10.6386,10.6386,10.6386,10.6082,10.5595,9.3179,9.3831,9.4374,9.4374,9.5036,9.5807,9.6495,9.6713,9.7075,9.7872,9.8585,9.9056,9.9165,9.9889,10.0396,10.0396,10.0505,10.0505,10.0204,10.0313,10.0485,10.0609,10.0798,10.0992,10.1393,10.1403,10.1098,10.0686,9.9879,9.9465,9.9465,10.0319,10.0686,10.0686,10.1504,10.2191,10.2889,10.2889,10.3282,10.41,10.41,10.4509,10.5212,10.5212,10.5715,10.6317,10.6317,10.6317,10.6317,10.6317,10.6317,10.6317,10.6317,10.6317,10.6317,10.6317,10.6317,10.6291,10.6402,10.6386,10.6386,10.6386,10.6386,10.6386,10.6386,10.6386,10.6386,10.6386,10.5789,10.5301,10.5107,10.4493,10.3806,10.2989,10.2815,10.2181,10.0907,10.0586,10.0209,9.9539,9.9465,9.9465,9.9465,9.9465,9.9769,10.0393,10.0513,10.0806,10.1514,10.1614,10.1688,10.1688,10.2291,10.2805,10.3109,10.4493,10.5715,10.6386,10.6386,10.6386,10.6386,10.6386,10.6386,10.6386,10.6386,10.6386,10.6386,10.6386,10.6386,10.6386,10.6386,10.6386,10.6386,10.6386,10.6386,10.6313,9.4012,9.4674,9.5228,9.5228,9.588,9.6459,9.6568,9.7184,9.7897,9.8694,9.8911,9.9274,9.9962,10.0711,10.1182,10.1182,10.1809,10.1723,10.0288,10.082,10.1193,10.131,10.2115,10.2586,10.2615,10.2395,10.2306,10.2291,10.1494,10.11,10.11,10.2008,10.2291,10.2412,10.3193,10.3596,10.3696,10.3696,10.421,10.4897,10.4897,10.5306,10.5916,10.5916,10.5812,10.5699,10.5699,10.5699,10.5699,10.5699,10.5699,10.5699,10.5699,10.5699,10.5699,10.5699,10.5699,10.5787,10.6317,10.6386,10.6386,10.6386,10.6386,10.6386,10.6386,10.6386,10.6386,10.6386,10.6313,10.6009,10.518,10.5007,10.4687,10.3806,10.3099,10.2585,10.2412,10.1714,10.1294,10.11,10.11,10.11,10.11,10.11,10.121,10.1284,10.1284,10.1394,10.1504,10.2118,10.2522,10.2522,10.2585,10.3403,10.4703,10.5715,10.6313,10.6386,10.6386,10.6386,10.6386,10.6386,10.6386,10.6386,10.6386,10.6386,10.6386,10.6386,10.6386,10.6386,10.6386,10.6386,10.6386,10.6386,10.6386,10.6386,9.6159,9.6449,9.6677,9.6677,9.7003,9.7401,9.7836,9.8223,9.873,9.9527,9.9987,10.0385,10.0784,10.1592,10.199,10.199,10.24,10.2302,10.1483,10.1809,10.199,10.199,10.2501,10.2783,10.2905,10.2998,10.3112,10.3217,10.2901,10.2789,10.2789,10.3193,10.3282,10.3403,10.3696,10.41,10.4483,10.4405,10.4792,10.5598,10.5423,10.5487,10.5802,10.5802,10.5688,10.5589,10.5589,10.5589,10.5589,10.5589,10.5589,10.5589,10.5589,10.5892,10.6209,10.6209,10.6298,10.6488,10.6801,10.7318,10.7708,10.7708,10.7708,10.7708,10.7708,10.7708,10.7598,10.7084,10.7011,10.679,10.6019,10.5789,10.5484,10.4687,10.42,10.3796,10.3403,10.2715,10.2118,10.2118,10.1798,10.1504,10.1504,10.1504,10.1504,10.1504,10.1908,10.2118,10.2118,10.2889,10.3502,10.4016,10.4016,10.4604,10.5789,10.6192,10.6386,10.6386,10.6386,10.6386,10.6386,10.6386,10.6386,10.6386,10.6386,10.6386,10.6386,10.6386,10.6386,10.6386,10.6386,10.6386,10.6386,10.6386,10.6386,10.6386,9.7789,9.7789,9.7789,9.7789,9.7934,9.8296,9.8911,9.931,9.9781,10.0396,10.1193,10.17,10.17,10.24,10.2918,10.2918,10.3015,10.3088,10.3088,10.3088,10.3099,10.2918,10.3015,10.319,10.3486,10.3584,10.3795,10.3901,10.3813,10.3912,10.389,10.41,10.4189,10.4101,10.4284,10.4683,10.5195,10.5109,10.5289,10.59,10.5714,10.5603,10.5511,10.5511,10.5514,10.5386,10.5386,10.5386,10.5386,10.5386,10.5615,10.5713,10.5713,10.6307,10.6889,10.6889,10.7204,10.7599,10.7388,10.7981,10.861,10.8701,10.8712,10.8686,10.8788,10.8799,10.8615,10.8002,10.7708,10.7388,10.679,10.6497,10.6203,10.5484,10.518,10.4897,10.4284,10.3513,10.2999,10.2999,10.2412,10.2101,10.2101,10.2101,10.2101,10.2101,10.2595,10.2999,10.2999,10.3686,10.4614,10.5411,10.5411,10.5705,10.6386,10.6386,10.6386,10.6386,10.6386,10.6386,10.6386,10.6386,10.6386,10.6386,10.6386,10.6386,10.6386,10.6386,10.6386,10.6386,10.6386,10.6386,10.6386,10.6386,10.6386,10.6386,9.7789,9.7789,9.7789,9.7789,9.8404,9.8948,9.8984,10.0288,10.1207,10.1291,10.199,10.2508,10.2508,10.3197,10.3584,10.3584,10.4308,10.4695,10.4695,10.4695,10.4417,10.3704,10.4296,10.4894,10.5085,10.4415,10.4283,10.4706,10.3985,10.3698,10.388,10.4687,10.4892,10.4811,10.5517,10.5717,10.5608,10.5513,10.5586,10.5611,10.56,10.5503,10.5301,10.5301,10.5212,10.5018,10.5018,10.5018,10.5018,10.5018,10.5393,10.6093,10.6093,10.6589,10.7289,10.7289,10.8009,10.8702,10.8082,10.8004,10.8108,10.8405,10.8412,10.8515,10.8708,10.8799,10.8799,10.8688,10.8112,10.7609,10.7498,10.69,10.6386,10.6313,10.5595,10.5117,10.4997,10.431,10.3806,10.3806,10.3817,10.3696,10.3696,10.3696,10.3696,10.3696,10.3817,10.3806,10.3806,10.4614,10.5411,10.6313,10.6313,10.6302,10.6386,10.6386,10.6386,10.6386,10.6386,10.6386,10.6386,10.6386,10.6386,10.6386,10.6386,10.6386,10.6386,10.6386,10.6386,10.6386,10.6386,10.6386,10.6386,10.6386,10.6386,10.6386,9.9274,9.9274,9.9455,9.9962,10.0277,10.0686,10.1204,10.1795,10.2099,10.2099,10.2787,10.3305,10.3305,10.3982,10.4405,10.4405,10.4695,10.4912,10.4912,10.4912,10.4815,10.4489,10.4695,10.4886,10.5014,10.4908,10.4896,10.511,10.4889,10.4899,10.4986,10.5315,10.5418,10.5294,10.5586,10.5677,10.5578,10.5517,10.5414,10.5402,10.5208,10.5094,10.5098,10.5098,10.5004,10.4912,10.4912,10.5202,10.56,10.56,10.618,10.6783,10.6783,10.7411,10.8111,10.8606,10.9088,10.9292,10.9097,10.9307,10.9488,10.9616,10.98,10.9898,10.9987,11.0205,11.0109,10.9606,10.9287,10.882,10.7792,10.7388,10.7021,10.6497,10.6082,10.5899,10.5899,10.5201,10.4604,10.4604,10.421,10.389,10.389,10.389,10.389,10.389,10.4394,10.4604,10.4604,10.5411,10.6313,10.7084,10.7084,10.69,10.6386,10.6386,10.6386,10.6386,10.6386,10.6386,10.6386,10.6386,10.6386,10.6386,10.6386,10.6386,10.6386,10.6386,10.6386,10.6386,10.6386,10.6386,10.6386,10.6386,10.6386,10.6386,10.0806,10.0781,10.0984,10.1689,10.1809,10.2001,10.2508,10.2798,10.2895,10.2895,10.3584,10.4091,10.4091,10.4598,10.4912,10.4912,10.4912,10.4985,10.5286,10.5491,10.5491,10.5322,10.5491,10.5684,10.5684,10.5799,10.6009,10.6089,10.5909,10.5887,10.6001,10.5698,10.5592,10.5478,10.5478,10.5481,10.5402,10.5197,10.5212,10.5201,10.4993,10.4912,10.4912,10.4912,10.5105,10.5322,10.5322,10.5781,10.6505,10.6505,10.7012,10.7712,10.7712,10.8183,10.8992,10.9487,10.9717,10.9717,10.9717,10.9884,11.0204,11.0285,11.0388,11.0597,11.0804,11.0914,11.0901,11.0513,11.0204,10.9701,10.86,10.7892,10.7388,10.69,10.6607,10.6386,10.6386,10.5899,10.5484,10.5484,10.5018,10.4698,10.4698,10.4698,10.4698,10.4698,10.5201,10.5484,10.5484,10.6302,10.7011,10.7609,10.7781,10.7708,10.7194,10.7194,10.7194,10.7194,10.69,10.679,10.6801,10.6497,10.6386,10.6386,10.6386,10.6386,10.6386,10.6386,10.6386,10.6386,10.6386,10.6386,10.6386,10.6386,10.6386,10.6386,10.211,10.2215,10.2296,10.2583,10.2617,10.2617,10.2617,10.3185,10.3692,10.3692,10.4405,10.4912,10.4912,10.4912,10.4912,10.4912,10.4912,10.5286,10.6119,10.6904,10.7012,10.6191,10.6904,10.7302,10.7302,10.7302,10.7384,10.7688,10.6914,10.6603,10.6814,10.599,10.5503,10.5315,10.5315,10.519,10.4912,10.4912,10.4912,10.4912,10.4912,10.4912,10.4912,10.4912,10.5383,10.6107,10.6107,10.6602,10.7302,10.7302,10.7809,10.8485,10.8485,10.9101,10.9717,10.9717,10.9717,10.9717,10.9717,10.9717,10.9813,11.0004,11.0112,11.0205,11.0677,11.0791,11.0906,11.1081,11.0597,10.9984,10.9984,10.871,10.7609,10.7609,10.69,10.6386,10.6386,10.6386,10.6386,10.6386,10.6386,10.6386,10.6386,10.6386,10.6386,10.6386,10.6386,10.6386,10.6386,10.7205,10.7609,10.7609,10.8406,10.8799,10.8799,10.8799,10.8799,10.8799,10.8002,10.7609,10.7609,10.6801,10.6386,10.6386,10.6386,10.6386,10.6386,10.6386,10.6386,10.6386,10.6386,10.6386,10.6386,10.6386,10.6386,10.6386,10.1913,10.1889,10.2092,10.281,10.2894,10.311,10.3603,10.4092,10.4306,10.4306,10.4711,10.4912,10.4912,10.4912,10.5093,10.5709,10.5709,10.6107,10.6904,10.7712,10.8002,10.7785,10.7483,10.7302,10.7302,10.7302,10.7301,10.742,10.7203,10.7093,10.7078,10.6897,10.679,10.6683,10.6683,10.6685,10.6614,10.6614,10.6288,10.5781,10.6397,10.6204,10.5817,10.6397,10.6723,10.6892,10.6892,10.7495,10.8111,10.8111,10.8702,10.9306,10.9306,10.9499,10.9717,10.9717,10.9717,10.9717,10.9717,10.9717,10.9692,10.9801,10.9993,11.0111,11.0312,11.0588,11.0813,11.0892,11.089,11.0707,11.0094,10.958,10.9103,10.8505,10.7781,10.7194,10.7194,10.6801,10.6386,10.6386,10.6386,10.6386,10.6386,10.6386,10.6386,10.6386,10.69,10.7194,10.7194,10.8002,10.8699,10.9297,10.9507,10.99,11.0487,10.9386,10.8799,10.8799,10.8589,10.8101,10.7609,10.7388,10.69,10.6386,10.6386,10.6386,10.6386,10.6386,10.6386,10.6386,10.6386,10.6386,10.6386,10.6386,10.6386,10.6386,10.2622,10.2598,10.2814,10.3401,10.3497,10.3593,10.4108,10.43,10.4407,10.4407,10.4909,10.5207,10.5207,10.5614,10.5987,10.6494,10.6916,10.7278,10.7701,10.8509,10.8992,10.8992,10.8509,10.8208,10.8208,10.8208,10.8208,10.8208,10.7882,10.7785,10.7785,10.7399,10.7302,10.7302,10.7302,10.7302,10.7302,10.7302,10.7012,10.6602,10.7121,10.7012,10.6602,10.7121,10.7483,10.7785,10.7785,10.8292,10.8992,10.8992,10.9318,10.9717,10.9717,10.9717,10.9717,10.9717,10.9717,10.9717,10.9717,10.9717,10.9717,10.9717,10.9789,11.0005,11.01,11.0392,11.0677,11.0779,11.1018,11.1111,11.0597,11.0204,10.979,10.9397,10.8589,10.8112,10.8112,10.7388,10.69,10.69,10.6607,10.6386,10.6386,10.6386,10.6497,10.6911,10.7598,10.8112,10.8112,10.8799,10.9507,10.9984,11.0304,11.0707,11.121,11.0182,10.9705,10.9705,10.9386,10.8993,10.8516,10.7902,10.7304,10.6911,10.6486,10.6386,10.6386,10.6386,10.6386,10.6386,10.6386,10.6386,10.6386,10.6386,10.6386,10.6386,10.3893,10.3906,10.4005,10.4286,10.4299,10.4311,10.4311,10.4383,10.4395,10.4395,10.5188,10.5777,10.5801,10.6702,10.7315,10.7411,10.8111,10.8594,10.8594,10.9318,10.9717,10.9717,10.9717,10.9717,10.9717,10.9717,10.9717,10.9717,10.8992,10.8594,10.8594,10.7894,10.7519,10.7519,10.7519,10.7519,10.7519,10.7519,10.7483,10.7411,10.7483,10.7483,10.7411,10.7483,10.8002,10.8594,10.8594,10.9101,10.9717,10.9717,10.9717,10.9717,10.9717,10.9717,10.9717,10.9717,10.9717,10.9717,10.9717,10.9717,10.9717,10.9717,10.9717,10.9813,10.9992,11.0204,11.0411,11.0711,11.0996,11.1188,11.121,11.0597,11.0094,11.0094,10.9386,10.8909,10.8909,10.8185,10.7719,10.7719,10.7095,10.6607,10.6607,10.6607,10.69,10.7682,10.8516,10.8909,10.8909,10.969,11.0094,11.0094,11.0817,11.121,11.121,11.121,11.121,11.121,11.0498,11.0094,10.9995,10.849,10.7708,10.7609,10.679,10.6497,10.6386,10.6386,10.6386,10.6386,10.6386,10.6386,10.6386,10.6386,10.6386,10.6386,10.4689,10.4801,10.4982,10.5082,10.5177,10.5401,10.5401,10.5591,10.5716,10.5716,10.6083,10.64,10.6607,10.6787,10.7305,10.8208,10.8992,10.9378,10.9378,10.9608,10.9717,10.9717,10.9717,10.9717,10.9717,10.9717,10.9717,10.9717,10.9487,10.9378,10.9378,10.9318,10.9209,10.9209,10.9209,10.9209,10.9209,10.9209,10.8799,10.8292,10.8908,10.8799,10.8292,10.8908,10.9318,10.9378,10.9378,10.9608,10.9717,10.9717,10.9717,10.9717,10.9717,10.9717,10.9717,10.9717,10.9717,10.9717,10.9717,10.9717,10.9717,10.9717,10.9717,10.968,10.9789,10.998,11.0192,11.0411,11.07,11.101,11.1188,11.1111,11.088,11.088,11.0314,10.969,10.969,10.8982,10.8505,10.8505,10.8395,10.8295,10.8295,10.8295,10.8406,10.8505,10.9287,10.969,10.969,11.0487,11.088,11.088,11.11,11.121,11.121,11.121,11.121,11.121,11.099,11.0597,10.9984,10.9617,10.8809,10.7609,10.7388,10.7021,10.6386,10.6386,10.6386,10.6386,10.6386,10.6386,10.6386,10.6386,10.6386,10.6386,10.4907,10.4991,10.5097,10.5097,10.5216,10.5409,10.5503,10.561,10.5787,10.5914,10.649,10.6919,10.7104,10.7492,10.8109,10.8811,10.9391,10.9717,10.9717,10.9717,10.9717,10.9717,10.9717,10.9717,10.9717,10.9717,10.9717,10.9717,10.9717,10.9717,10.9717,10.9717,10.9717,10.9717,10.9717,10.9717,10.9717,10.9717,10.9499,10.9101,10.9487,10.9378,10.9101,10.9487,10.9717,10.9717,10.9717,10.9717,10.9717,10.9717,10.9717,10.9717,10.9717,10.9717,10.9717,10.9717,10.9717,10.9717,10.9717,10.9717,10.9717,10.9717,10.9717,10.9717,10.9717,10.9897,11.0194,11.0403,11.0584,11.0906,11.1214,11.121,11.121,11.121,11.0806,11.0597,11.0597,10.9911,10.9397,10.9397,10.9019,10.8799,10.8799,10.9092,10.9397,10.9397,11.0083,11.0597,11.0597,11.1001,11.121,11.121,11.121,11.121,11.121,11.121,11.121,11.121,11.121,11.1001,11.0608,11.0204,10.9507,10.8699,10.8295,10.7881,10.7514,10.7514,10.7514,10.7514,10.7514,10.7514,10.7514,10.7514,10.7304,10.69,10.4999,10.4991,10.5094,10.5099,10.5188,10.5287,10.5593,10.5597,10.5689,10.6012,10.6815,10.7389,10.7514,10.8319,10.8991,10.9289,10.951,10.9704,10.9704,10.9717,10.9717,10.9717,10.9717,10.9717,10.9717,10.9717,10.9717,10.9717,10.9717,10.9717,10.9717,10.9717,10.9717,10.9717,10.9717,10.9717,10.9717,10.9717,10.9717,10.9717,10.9717,10.9717,10.9717,10.9717,10.9717,10.9717,10.9717,10.9717,10.9717,10.9717,10.9717,10.9704,10.962,10.9608,10.9596,10.9595,10.9583,10.9583,10.9583,10.9583,10.9583,10.9583,10.9607,10.9608,10.9608,10.9789,11.0087,11.0297,11.0599,11.0802,11.111,11.1188,11.121,11.121,11.121,11.121,11.121,11.0597,11.0204,11.0204,10.9606,10.9202,10.9202,10.979,11.0204,11.0204,11.0817,11.121,11.121,11.121,11.121,11.121,11.121,11.121,11.121,11.121,11.121,11.121,11.121,11.121,11.1221,11.0487,11.0094,10.9984,10.9287,10.8909,10.8799,10.8799,10.8799,10.8799,10.8799,10.8799,10.8799,10.8799,10.8295,10.7498,10.5308,10.549,10.5796,10.6086,10.6401,10.6593,10.6894,10.6886,10.7114,10.7396,10.7618,10.7817,10.8299,10.869,10.8991,10.9289,10.9302,10.9497,10.9692,10.9717,10.9717,10.9717,10.9717,10.9717,10.9717,10.9717,10.9717,10.9717,10.9717,10.9717,10.9717,10.9717,10.9717,10.9717,10.9717,10.9717,10.9717,10.9717,10.9717,10.9717,10.9717,10.9717,10.9717,10.9717,10.9717,10.9717,10.9717,10.9717,10.9717,10.9717,10.9717,10.9716,10.94,10.9399,10.9313,10.9102,10.8991,10.8991,10.8991,10.8991,10.8991,10.8991,10.9202,10.9399,10.9399,10.9607,10.9789,11.0112,11.0297,11.0503,11.0802,11.1004,11.121,11.121,11.121,11.121,11.121,11.11,11.099,11.099,11.0917,11.0891,11.0891,11.1001,11.099,11.099,11.11,11.121,11.121,11.121,11.121,11.121,11.121,11.121,11.121,11.121,11.121,11.121,11.121,11.121,11.121,11.1111,11.0718,10.9984,10.9911,10.9386,10.8799,10.8799,10.8799,10.8799,10.8799,10.8799,10.8799,10.8799,10.8295,10.7609,10.5389,10.5491,10.5588,10.5802,10.5911,10.6204,10.6584,10.6689,10.6905,10.7406,10.7595,10.7796,10.7999,10.8787,10.9383,10.9498,11.0208,11.0686,11.0811,11.1007,11.1008,11.1008,11.1008,11.1008,11.1008,11.1008,11.0791,11.0405,10.9886,10.9717,10.9717,10.9717,10.9717,10.9717,10.9717,10.9717,10.9717,10.9717,10.9717,10.9717,10.9717,10.9717,10.9717,10.9717,10.9717,10.9717,10.9717,10.9717,10.9717,10.9717,10.9607,10.9509,10.9302,10.9202,10.9113,10.8916,10.8891,10.8891,10.8891,10.8891,10.8891,10.8891,10.9015,10.9091,10.9312,10.94,10.9595,10.9992,11.0287,11.0494,11.0793,11.0981,11.121,11.121,11.121,11.121,11.121,11.121,11.121,11.121,11.121,11.121,11.121,11.121,11.121,11.121,11.121,11.121,11.121,11.121,11.121,11.121,11.121,11.121,11.121,11.121,11.121,11.121,11.121,11.121,11.121,11.121,11.099,11.0707,11.0707,11.0487,11.0109,11.0109,11.0109,11.0109,11.0109,11.0109,11.012,10.9606,10.8993,10.8185]},{"header":{"parameterUnit":"m.s-1","parameterCategory":1,"la1":30.6,"la2":28.766,"lo1":-90.7593,"lo2":-88.6598,"dx":0.0162,"dy":0.0183,"nx":116,"ny":114,"refTime":"2022-11-12T06:00:00:Z","depth":0,"parameterNumber":3,"parameterNumberName":"V-component_of_WINDS"},"data":[0.0,0.0,0.0,0.0,0.0,0.0,0.0,0.0,0.0,0.0,0.0,0.0,0.0,0.0,0.0,0.0,0.0,0.0,0.0,0.0,0.0,0.0,0.0,0.0,0.0,0.0,0.0,0.0,0.0,0.0,0.0,0.0,0.0,0.0,0.0,0.0,0.0,0.0,0.0,0.0,0.0,0.0,0.0,0.0,0.0,0.0,0.0,0.0,0.0,0.0,0.0,0.0,0.0,0.0,0.0,0.0,0.0,0.0,0.0,0.0,0.0,0.0,0.0,0.0,0.0,0.0,0.0,0.0,0.0,0.0,0.0,0.0,0.0,0.0,0.0,0.0,0.0,0.0,0.0,0.0,0.0,0.0,0.0,0.0,0.0,0.0,0.0,0.0,0.0,0.0,0.0,0.0,0.0,0.0,0.0,0.0,0.0,0.0,0.0,0.0,0.0,0.0,0.0,0.0,0.0,0.0,0.0,0.0,0.0,0.0,0.0,0.0,0.0,0.0,0.0,0.0,0.0,0.0,0.0,0.0,0.0,0.0,0.0,0.0,0.0,0.0,0.0,0.0,0.0,0.0,0.0,0.0,0.0,0.0,0.0,0.0,0.0,0.0,0.0,0.0,0.0,0.0,0.0,0.0,0.0,0.0,0.0,0.0,0.0,0.0,0.0,0.0,0.0,0.0,0.0,0.0,0.0,0.0,0.0,0.0,0.0,0.0,0.0,0.0,0.0,0.0,0.0,0.0,0.0,0.0,0.0,0.0,0.0,0.0,0.0,0.0,0.0,0.0,0.0,0.0,0.0,0.0,0.0,0.0,0.0,0.0,0.0,0.0,0.0,0.0,0.0,0.0,0.0,0.0,0.0,0.0,0.0,0.0,0.0,0.0,0.0,0.0,0.0,0.0,0.0,0.0,0.0,0.0,0.0,0.0,0.0,0.0,0.0,0.0,0.0,0.0,0.0,0.0,0.0,0.0,0.0,0.0,0.0,0.0,0.0,0.0,0.0,0.0,0.0,0.0,0.0,0.0,0.0,0.0,0.0,0.0,0.0,0.0,0.0,0.0,0.0,0.0,0.0,0.0,0.0,0.0,0.0,0.0,0.0,0.0,0.0,0.0,0.0,0.0,0.0,0.0,0.0,0.0,0.0,0.0,0.0,0.0,0.0,0.0,0.0,0.0,0.0,0.0,0.0,0.0,0.0,0.0,0.0,0.0,0.0,0.0,0.0,0.0,0.0,0.0,0.0,0.0,0.0,0.0,0.0,0.0,0.0,0.0,0.0,0.0,0.0,0.0,0.0,0.0,0.0,0.0,0.0,0.0,0.0,0.0,0.0,0.0,0.0,0.0,0.0,0.0,0.0,0.0,0.0,0.0,0.0,0.0,0.0,0.0,0.0,0.0,0.0,0.0,0.0,0.0,0.0,0.0,0.0,0.0,0.0,0.0,0.0,0.0,0.0,0.0,0.0,0.0,0.0,0.0,0.0,0.0,0.0,0.0,0.0,0.0,0.0,0.0,0.0,0.0,0.0,0.0,0.0,0.0,0.0,0.0,0.0,0.0,0.0,0.0,0.0,0.0,0.0,0.0,0.0,0.0,0.0,0.0,0.0,0.0,0.0,0.0,0.0,0.0,0.0,0.0,0.0,0.0,0.0,0.0,0.0,0.0,0.0,0.0,0.0,0.0,0.0,0.0,0.0,0.0,0.0,0.0,0.0,0.0,0.0,0.0,0.0,0.0,0.0,0.0,0.0,0.0,0.0,0.0,0.0,0.0,0.0,0.0,0.0,0.0,0.0,0.0,0.0,0.0,0.0,0.0,0.0,0.0,0.0,0.0,0.0,0.0,0.0,0.0,0.0,0.0,0.0,0.0,0.0,0.0,0.0,0.0,0.0,0.0,0.0,0.0,0.0,0.0,0.0,0.0,0.0,0.0,0.0,0.0,0.0,0.0,0.0,0.0,0.0,0.0,0.0,0.0,0.0,0.0,0.0,0.0,0.0,0.0,0.0,0.0,0.0,0.0,0.0,0.0,0.0,0.0,0.0,0.0,0.0,0.0,0.0,0.0,0.0,0.0,0.0,0.0,0.0,0.0,0.0,0.0,0.0,0.0,0.0,0.0,0.0,0.0,0.0,0.0,0.0,0.0,0.0,0.0,0.0,0.0,0.0,0.0,0.0,0.0,0.0,0.0,0.0,0.0,0.0,0.0,0.0,0.0,0.0,0.0,0.0,0.0,0.0,0.0,0.0,0.0,0.0,0.0,0.0,0.0,0.0,0.0,0.0,0.0,0.0,0.0,0.0,0.0,0.0,0.0,0.0,0.0,0.0,0.0,0.0,0.0,0.0,0.0,0.0,0.0,0.0,0.0,0.0,0.0,0.0,0.0,0.0,0.0,0.0,0.0,0.0,0.0,0.0,0.0,0.0,0.0,0.0,0.0,0.0,0.0,0.0,0.0,0.0,0.0,0.0,0.0,0.0,0.0,0.0,0.0,0.0,0.0,0.0,0.0,0.0,0.0,0.0,0.0,0.0,0.0,0.0,0.0,0.0,0.0,0.0,0.0,0.0,0.0,0.0,0.0,0.0,0.0,0.0,0.0,0.0,0.0,0.0,0.0,0.0,0.0,0.0,0.0,0.0,0.0,0.0,0.0,0.0,0.0,0.0,0.0,0.0,0.0,0.0,0.0,0.0,0.0,0.0,0.0,0.0,0.0,0.0,0.0,0.0,0.0,0.0,0.0,0.0,0.0,0.0,0.0,0.0,0.0,0.0,0.0,0.0,0.0,0.0,0.0,0.0,0.0,0.0,0.0,0.0,0.0,0.0,0.0,0.0,0.0,0.0,0.0,0.0,0.0,0.0,0.0,0.0,0.0,0.0,0.0,0.0,0.0,0.0,0.0,0.0,0.0,0.0,0.0,0.0,0.0,0.0,0.0,0.0,0.0,0.0,0.0,0.0,0.0,0.0,0.0,0.0,0.0,0.0,0.0,0.0,0.0,0.0,0.0,0.0,0.0,0.0,0.0,0.0,0.0,0.0,0.0,0.0,0.0,0.0,0.0,0.0,0.0,0.0,0.0,0.0,0.0,0.0,0.0,0.0,0.0,0.0,0.0,0.0,0.0,0.0,0.0,0.0,0.0,0.0,0.0,0.0,0.0,0.0,0.0,0.0,0.0,0.0,0.0,0.0,0.0,0.0,0.0,0.0,0.0,0.0,0.0,0.0,0.0,0.0,0.0,0.0,0.0,0.0,0.0,0.0,0.0,0.0,0.0,0.0,0.0,0.0,0.0,0.0,0.0,0.0,0.0,0.0,0.0,0.0,0.0,0.0,0.0,0.0,0.0,0.0,0.0,0.0,0.0,0.0,0.0,0.0,0.0,0.0,0.0,0.0,0.0,0.0,0.0,0.0,0.0,0.0,0.0,0.0,0.0,0.0,0.0,0.0,0.0,0.0,0.0,0.0,0.0,0.0,0.0,0.0,0.0,0.0,0.0,0.0,0.0,0.0,0.0,0.0,0.0,0.0,0.0,0.0,0.0,0.0,0.0,0.0,0.0,0.0,0.0,0.0,0.0,0.0,0.0,0.0,0.0,0.0,0.0,0.0,0.0,0.0,0.0,0.0,0.0,0.0,0.0,0.0,0.0,0.0,0.0,0.0,0.0,0.0,0.0,0.0,0.0,0.0,0.0,0.0,0.0,0.0,0.0,0.0,0.0,0.0,0.0,0.0,0.0,0.0,0.0,0.0,0.0,0.0,0.0,0.0,0.0,0.0,0.0,0.0,0.0,0.0,0.0,0.0,0.0,0.0,0.0,0.0,0.0,0.0,0.0,0.0,0.0,0.0,0.0,0.0,0.0,0.0,0.0,0.0,0.0,0.0,0.0,0.0,0.0,0.0,0.0,0.0,0.0,0.0,0.0,0.0,0.0,0.0,0.0,0.0,0.0,0.0,0.0,0.0,0.0,0.0,0.0,0.0,0.0,0.0,0.0,0.0,0.0,0.0,0.0,0.0,0.0,0.0,0.0,0.0,0.0,0.0,0.0,0.0,0.0,0.0,0.0,0.0,0.0,0.0,0.0,0.0,0.0,0.0,0.0,0.0,0.0,0.0,0.0,0.0,0.0,0.0,0.0,0.0,0.0,0.0,0.0,0.0,0.0,0.0,0.0,0.0,0.0,0.0,0.0,0.0,0.0,0.0,0.0,0.0,0.0,0.0,0.0,0.0,0.0,0.0,0.0,0.0,0.0,0.0,0.0,0.0,0.0,0.0,0.0,0.0,0.0,0.0,0.0,0.0,0.0,0.0,0.0,0.0,0.0,0.0,0.0,0.0,0.0,0.0,0.0,0.0,0.0,0.0,0.0,0.0,0.0,0.0,0.0,0.0,0.0,0.0,0.0,0.0,0.0,0.0,0.0,0.0,0.0,0.0,0.0,0.0,0.0,0.0,0.0,0.0,0.0,0.0,0.0,0.0,0.0,0.0,0.0,0.0,0.0,0.0,0.0,0.0,0.0,0.0,0.0,0.0,0.0,0.0,0.0,0.0,0.0,0.0,0.0,0.0,0.0,0.0,0.0,0.0,0.0,0.0,0.0,0.0,0.0,0.0,0.0,0.0,0.0,0.0,0.0,0.0,0.0,0.0,0.0,0.0,0.0,0.0,0.0,0.0,0.0,0.0,0.0,0.0,0.0,0.0,0.0,0.0,0.0,0.0,0.0,0.0,0.0,0.0,0.0,0.0,0.0,0.0,0.0,0.0,0.0,0.0,0.0,0.0,0.0,0.0,0.0,0.0,0.0,0.0,0.0,0.0,0.0,0.0,0.0,0.0,0.0,0.0,0.0,0.0,0.0,0.0,0.0,0.0,0.0,0.0,0.0,0.0,0.0,0.0,0.0,0.0,0.0,0.0,0.0,0.0,0.0,0.0,0.0,0.0,0.0,0.0,0.0,0.0,0.0,0.0,0.0,0.0,0.0,0.0,0.0,0.0,0.0,0.0,0.0,0.0,0.0,0.0,0.0,0.0,0.0,0.0,0.0,0.0,0.0,0.0,0.0,0.0,0.0,0.0,0.0,0.0,0.0,0.0,0.0,0.0,0.0,0.0,0.0,0.0,0.0,0.0,0.0,0.0,0.0,0.0,0.0,0.0,0.0,0.0,0.0,0.0,0.0,0.0,0.0,0.0,0.0,0.0,0.0,0.0,0.0,0.0,0.0,0.0,0.0,0.0,0.0,0.0,0.0,0.0,0.0,0.0,0.0,0.0,0.0,0.0,0.0,0.0,0.0,0.0,0.0,0.0,0.0,0.0,0.0,0.0,0.0,0.0,0.0,0.0,0.0,0.0,0.0,0.0,0.0,0.0,0.0,0.0,0.0,0.0,0.0,0.0,0.0,0.0,0.0,0.0,0.0,0.0,0.0,0.0,0.0,0.0,0.0,0.0,0.0,0.0,0.0,0.0,0.0,0.0,0.0,0.0,0.0,0.0,0.0,0.0,0.0,0.0,0.0,0.0,0.0,0.0,0.0,0.0,0.0,0.0,0.0,0.0,0.0,0.0,0.0,0.0,0.0,0.0,0.0,0.0,0.0,0.0,0.0,0.0,0.0,0.0,0.0,0.0,0.0,0.0,0.0,0.0,0.0,0.0,0.0,0.0,0.0,0.0,0.0,0.0,0.0,0.0,0.0,0.0,0.0,0.0,0.0,0.0,0.0,0.0,0.0,0.0,0.0,0.0,0.0,0.0,0.0,0.0,0.0,0.0,0.0,0.0,0.0,0.0,0.0,0.0,0.0,0.0,0.0,0.0,0.0,0.0,0.0,0.0,0.0,0.0,0.0,0.0,0.0,0.0,0.0,0.0,0.0,0.0,0.0,0.0,0.0,0.0,0.0,0.0,0.0,0.0,0.0,0.0,0.0,0.0,0.0,0.0,0.0,0.0,0.0,0.0,0.0,0.0,0.0,0.0,0.0,0.0,0.0,0.0,0.0,0.0,0.0,0.0,0.0,0.0,0.0,0.0,0.0,0.0,0.0,0.0,0.0,0.0,0.0,0.0,0.0,0.0,0.0,0.0,0.0,0.0,0.0,0.0,0.0,0.0,0.0,0.0,0.0,0.0,0.0,0.9125,0.0,0.0,0.0,0.0,0.0,0.0,0.0,0.0,0.0,0.0,0.0,0.0,0.0,0.0,0.0,0.0,0.0,0.0,0.0,0.0,0.0,0.0,0.0,0.0,0.2899,0.308,0.3533,0.4022,0.0,0.0,0.0,0.0,0.0,0.0,0.0,0.6035,0.6542,0.7045,0.753,0.7849,0.8146,0.8417,0.8108,0.7813,0.7535,0.0,0.0,0.0,0.0,0.0,0.0,0.0,0.0,0.0,0.0,0.0,0.0,0.0,0.0,0.0,0.0,0.0,0.0,0.0,0.0,0.0,0.0,0.0,0.0,0.0,0.0,0.0,0.0,0.0,0.0,0.0,0.0,0.0,0.0,0.0,0.0,0.0,0.0,0.0,0.0,0.0,0.0,0.0,0.0,0.0,0.0,0.0,0.0,0.0,0.0,0.0,0.0,0.0,0.0,0.0,0.0,0.0,0.0,0.0,0.0,0.0,0.0,0.0,0.0,0.0,0.0,0.0,0.0,0.0,0.0,0.0,1.0287,0.0,0.0,0.0,0.0,0.0,0.0,0.0,0.0,0.0,0.0,0.0,0.0,0.0,0.0,0.0,0.0,0.0,0.0,0.0,0.0,0.0,0.2512,0.2906,0.2954,0.334,0.4303,0.4383,0.4586,0.5043,0.5909,0.0,0.0,0.0,0.0,0.667,0.7649,0.8156,0.8163,0.8157,0.8413,0.89,0.8906,0.8695,0.8307,0.8207,0.0,0.0,0.0,0.0,0.0,0.0,0.0,0.0,0.0,0.0,0.0,0.0,0.0,0.0,0.0,0.0,0.0,0.0,0.0,0.0,0.0,0.0,0.0,0.0,0.0,0.0,0.0,0.0,0.0,0.0,0.0,0.0,0.0,0.0,0.0,0.0,0.0,0.0,0.0,0.0,0.0,0.0,0.0,0.0,0.0,0.0,0.0,0.0,0.0,0.0,0.0,0.0,0.0,0.0,0.0,0.0,0.0,0.0,0.0,0.0,0.0,0.0,0.0,1.2549,1.2617,1.2617,1.2644,1.2657,1.263,1.2425,1.2302,1.2204,0.0,0.0,0.0,0.0,0.0,0.0,0.0,0.0,0.0,0.0,0.0,0.0,0.0,0.0,0.0,0.0,0.0,0.0,0.0,0.0,0.3025,0.3144,0.3156,0.3586,0.4635,0.4732,0.5148,0.6126,0.6326,0.0,0.0,0.0,0.6841,0.7767,0.8447,0.8775,0.8776,0.8782,0.8818,0.8894,0.8899,0.9139,0.9539,0.9015,0.8788,0.8774,0.0,0.0,0.0,0.0,0.0,0.0,0.0,0.0,0.0,0.0,0.0,0.0,0.0,0.0,0.0,0.0,0.0,0.0,0.0,0.0,0.0,0.0,0.0,0.0,0.0,0.0,0.0,0.0,0.0,0.0,0.0,0.0,0.0,0.0,0.0,0.0,0.0,0.0,0.0,0.0,0.0,0.6447,0.7301,0.0,0.0,0.0,0.0,0.0,0.0,0.0,0.0,0.0,0.0,0.0,0.0,0.0,1.2404,1.2512,1.2592,1.2739,1.2914,1.3037,1.3105,1.3105,1.322,1.3281,1.3275,1.3241,0.0,1.2881,1.2778,0.0,0.0,0.0,0.0,0.0,0.0,0.0,0.0,0.0,0.0,0.0,0.0,0.0,0.0,0.0,0.0,0.0,0.0,0.0,0.0,0.0,0.3732,0.4291,0.4762,0.5004,0.5629,0.6777,0.6847,0.0,0.0,0.7458,0.8024,0.8495,0.8761,0.9063,0.941,0.9407,0.9406,0.9399,0.9405,0.9951,1.0906,1.0657,1.0522,1.0493,0.9926,0.0,0.0,0.0,0.0,0.0,0.0,0.0,0.0,0.0,0.0,0.0,0.0,0.0,0.0,0.0,0.0,0.0,0.0,0.0,0.0,0.0,0.0,0.0,0.0,0.0,0.0,0.0,0.0,0.0,0.0,0.0,0.0,0.0,0.0,0.0,0.0,0.0,0.0,0.0,0.6494,0.7383,0.808,0.8927,0.967,0.0,0.0,0.0,0.0,0.0,0.0,0.0,0.0,0.0,1.2799,1.2867,1.2949,1.3085,1.3173,1.3247,1.3342,1.3478,1.3546,1.3553,1.3599,1.3627,1.3627,1.3627,1.3568,1.3439,1.3294,1.3076,1.2762,0.0,0.0,0.0,0.0,1.0818,0.9993,0.0,0.0,0.0,0.0,0.0,0.0,0.0,0.0,0.0,0.0,0.0,0.0,0.3715,0.4476,0.4948,0.4955,0.5504,0.6246,0.7135,0.7204,0.74,0.7853,0.8679,0.9136,0.9129,0.9124,0.9422,1.003,1.0027,1.0028,1.004,1.0405,1.1093,1.2059,1.2058,1.2053,1.1999,1.1171,1.0764,1.0602,0.0,0.0,0.0,0.0,0.0,0.0,0.0,0.0,0.0,0.0,0.0,0.0,0.0,0.0,0.0,0.0,0.0,0.0,0.0,0.0,0.0,0.0,0.0,0.0,0.0,0.0,0.0,0.0,0.0,0.0,0.0,0.0,0.0,0.0,0.0,0.0,0.0,0.7287,0.8064,0.8723,0.9637,1.0424,0.0,0.0,0.0,0.0,0.0,0.0,1.2814,1.2895,1.3044,1.3281,1.3343,1.3438,1.3573,1.3688,1.3742,1.3782,1.3925,1.3992,1.3971,1.4011,1.4025,1.4025,1.4025,1.4025,1.3998,1.3647,1.343,1.3335,1.3273,1.3363,1.3451,1.2996,1.2029,1.0961,0.0,0.0,0.0,0.0,0.0,0.0,0.0,0.0,0.0,0.0,0.0,0.3732,0.5144,0.5334,0.5367,0.5367,0.643,0.7138,0.7194,0.7199,0.793,0.9592,0.973,0.9748,0.9754,0.9749,1.0049,1.0652,1.0652,1.0652,1.0672,1.2024,1.2686,1.2742,1.2759,1.275,1.2732,1.2359,1.1805,1.1123,1.0694,0.0,0.0,0.0,0.0,0.0,0.0,0.0,0.0,0.0,0.0,0.0,0.0,0.0,0.0,0.0,0.0,0.0,0.0,0.0,0.0,0.0,0.0,0.0,0.0,0.0,0.0,0.0,0.0,0.0,0.0,0.0,0.0,0.0,0.0,0.0,0.0,0.0,0.0,0.926,1.0351,0.0,0.0,0.0,0.0,1.2955,1.3071,1.3152,1.3173,1.3424,1.3572,1.3586,1.3693,1.3857,1.4056,1.407,1.4144,1.4272,1.4407,1.4453,1.446,1.4609,1.4647,1.4647,1.4647,1.4647,1.4606,1.4018,1.386,1.3939,1.374,1.3701,1.3775,1.374,1.3672,1.3611,0.0,0.0,0.0,0.0,0.0,0.4598,0.4505,0.4356,0.4177,0.3936,0.3498,0.3765,0.5238,0.5396,0.5827,0.6915,0.7406,0.7648,0.7657,0.7643,0.8297,0.9738,0.981,0.9986,1.037,1.0378,1.0482,1.0697,1.0702,1.1162,1.2067,1.3058,1.3503,1.3502,1.352,1.3386,1.317,1.2781,1.2349,1.1866,1.1417,1.1179,0.0,0.0,0.0,0.0,0.0,0.0,0.0,0.0,0.0,0.0,0.0,0.0,0.0,0.0,0.0,0.0,0.0,0.0,0.0,0.0,0.0,0.0,0.0,0.0,0.0,0.0,0.0,0.0,0.0,0.0,0.0,0.0,0.0,0.0,0.0,0.0,0.0,1.0126,1.0816,0.0,0.0,1.2689,1.3098,1.3254,1.3383,1.3546,1.3764,1.3873,1.4,1.4168,1.4223,1.4324,1.448,1.448,1.4507,1.4561,1.4609,1.4636,1.4636,1.4667,1.4694,1.4694,1.4694,1.4694,1.4681,1.4464,1.436,1.4316,1.425,1.4183,1.412,1.3974,1.3928,1.3959,0.0,0.0,0.0,0.0,0.5134,0.4766,0.4678,0.4599,0.4524,0.4472,0.4163,0.4352,0.5445,0.5977,0.6689,0.7807,0.7896,0.7969,0.8132,0.8578,0.9214,1.0066,1.0102,1.0284,1.0694,1.0903,1.0998,1.1002,1.1516,1.2256,1.318,1.3663,1.3904,1.3893,1.3904,1.3733,1.3425,1.3153,1.2864,1.254,1.2155,1.198,1.1838,0.0,0.0,0.0,0.0,0.0,0.0,0.0,0.0,0.0,0.0,0.0,0.0,0.0,0.0,0.0,0.0,0.0,0.0,0.0,0.0,0.0,0.0,0.0,0.0,0.0,0.0,0.0,0.0,0.0,0.0,0.0,0.0,0.0,0.0,0.0,0.9818,1.0857,1.1451,1.2024,1.2599,1.3117,1.3458,1.3614,1.377,1.3938,1.4226,1.4294,1.4414,1.4658,1.4665,1.4737,1.494,1.494,1.4968,1.4998,1.4998,1.4998,1.4998,1.4998,1.4998,1.4998,1.4998,1.4998,1.4998,1.4998,1.4961,1.4846,1.4642,1.4507,1.4412,1.4288,1.4248,1.4241,0.0,0.0,0.0,0.5599,0.5148,0.4804,0.4807,0.4907,0.4949,0.4829,0.5172,0.5563,0.5925,0.713,0.7909,0.7924,0.7927,0.8135,0.8641,0.9937,1.0706,1.0723,1.0732,1.0726,1.0737,1.1296,1.1621,1.1662,1.3176,1.3895,1.3894,1.3913,1.3925,1.393,1.3926,1.3782,1.353,1.3534,1.3388,1.3125,1.2896,1.2743,1.2572,0.0,0.0,0.0,0.0,0.0,0.0,0.0,0.0,0.0,0.0,0.0,0.0,0.0,0.0,0.0,0.0,0.0,0.0,0.0,0.0,0.0,0.0,0.0,0.0,0.0,0.0,0.0,0.0,0.0,0.0,0.0,0.0,0.0,0.9326,0.978,1.047,1.143,1.2285,1.2968,1.3382,1.366,1.3897,1.4097,1.4231,1.438,1.45,1.4656,1.4812,1.5007,1.5014,1.5126,1.5387,1.5418,1.5469,1.5593,1.5593,1.5593,1.5593,1.5593,1.5593,1.5593,1.5593,1.5593,1.5593,1.5593,1.5593,1.5533,1.4951,1.4721,1.4721,1.4714,1.4701,1.4671,0.0,0.0,0.0,0.5624,0.5154,0.4798,0.4806,0.4838,0.4939,0.5207,0.5535,0.6172,0.7241,0.768,0.803,0.838,0.841,0.8892,1.0044,1.0488,1.0897,1.1328,1.1344,1.1351,1.1349,1.1531,1.2154,1.328,1.37,1.3888,1.3921,1.4448,1.47,1.4687,1.4483,1.4367,1.4294,1.4182,1.406,1.3857,1.3401,1.3214,1.3116,0.0,0.0,0.0,0.0,0.0,0.0,0.0,0.0,0.0,0.0,0.0,0.0,0.0,0.0,0.0,0.0,0.0,0.0,0.0,0.0,0.0,0.0,0.0,0.0,0.0,0.0,0.0,0.0,0.0,0.0,0.0,0.0,0.9503,0.984,1.0392,1.1165,1.2309,1.2642,1.3086,1.3836,1.4061,1.4238,1.438,1.4661,1.4871,1.4991,1.5116,1.5272,1.5428,1.5435,1.5469,1.555,1.555,1.5546,1.5593,1.5593,1.5593,1.5593,1.5593,1.5593,1.5593,1.5593,1.5593,1.5593,1.5593,1.5593,1.5573,1.5435,1.5343,1.534,1.5116,1.49,1.4694,0.0,0.0,0.0,0.566,0.5154,0.4806,0.4794,0.4804,0.4944,0.5354,0.5687,0.6413,0.7752,0.8068,0.8309,0.8572,0.9143,0.9927,1.1005,1.1086,1.1232,1.158,1.1608,1.1599,1.1594,1.2234,1.3001,1.3901,1.4202,1.4361,1.4376,1.48,1.4938,1.4837,1.4662,1.457,1.4506,1.4432,1.4357,1.4253,1.3945,1.3685,1.3448,1.3074,1.2833,1.2589,1.1853,1.1487,1.1257,1.0604,0.0,0.0,0.0,0.0,0.0,0.0,0.0,0.0,0.0,0.0,0.0,0.0,0.0,0.0,0.0,0.0,0.0,0.0,0.0,0.0,0.0,0.0,0.0,0.0,0.9835,1.0344,1.0853,1.1233,1.1813,1.2777,1.3217,1.3621,1.4121,1.436,1.457,1.4774,1.498,1.5177,1.5364,1.5435,1.5577,1.5794,1.5801,1.5861,1.5983,1.5983,1.5983,1.5983,1.5983,1.5983,1.5983,1.5983,1.5983,0.0,1.5983,1.5983,1.5983,1.5983,1.5983,0.0,0.0,0.0,0.0,0.0,1.5238,1.5073,0.6473,0.6403,0.6209,0.5617,0.5149,0.4873,0.4862,0.4868,0.5012,0.54,0.585,0.6575,0.777,0.8314,0.8668,0.8823,1.0032,1.1033,1.1556,1.1601,1.1599,1.1599,1.1601,1.1604,1.1602,1.3193,1.4016,1.4019,1.4685,1.4999,1.4997,1.4997,1.4858,1.4646,1.4646,1.459,1.447,1.447,1.4444,1.4427,1.4427,1.4138,1.365,1.354,1.3259,1.2873,1.2522,1.2118,1.1739,1.1372,0.0,0.0,0.0,0.0,0.0,0.0,0.0,0.0,0.0,0.0,0.0,0.0,0.0,0.0,0.0,0.0,0.0,0.0,0.0,0.0,0.0,0.0,0.0,0.0,1.0503,1.1441,1.2116,1.2234,1.2482,1.3074,1.3837,1.4319,1.4373,1.4602,1.4886,1.5211,1.5265,1.5384,1.5652,0.0,0.0,0.0,0.0,1.6259,1.6491,1.6498,1.6498,1.6498,1.6498,1.6498,1.6498,1.6498,1.6498,1.6498,1.6498,1.6498,1.6498,1.6498,1.6498,1.6444,1.5922,1.5668,1.5665,1.5665,1.5621,1.5593,0.641,0.6403,0.6088,0.5124,0.5139,0.528,0.5285,0.528,0.5406,0.5762,0.6793,0.7616,0.7875,0.831,0.9058,1.0187,1.0998,1.1479,1.1589,1.1594,1.1597,1.1597,1.1592,1.1593,1.1595,1.3693,1.4784,1.4799,1.4931,1.5005,1.5004,1.5004,1.4966,1.492,1.492,1.4901,1.4881,1.4881,1.4781,1.4632,1.4632,1.4424,1.4075,1.4052,1.3893,1.3623,1.3111,1.2697,1.2273,1.1777,1.1369,1.1014,1.0687,1.0462,0.0,0.0,0.0,0.0,0.0,0.0,0.0,0.0,0.0,0.0,0.0,0.0,0.0,0.0,0.0,0.0,0.0,0.0,0.0,1.0742,1.1145,1.17,1.2678,1.3103,1.3502,1.3988,1.42,1.4441,1.483,1.5021,1.5174,1.535,1.5612,1.5829,1.5988,1.611,1.6234,1.6429,1.641,1.6437,1.6498,1.6498,1.6498,1.6498,0.0,0.0,1.6498,1.6498,1.6498,1.6498,1.6498,1.6498,1.6498,1.6498,1.6498,1.6485,1.6369,1.618,1.5995,1.5995,1.5821,1.5593,0.5594,0.5595,0.5423,0.4892,0.5129,0.5395,0.5406,0.5402,0.5764,0.6769,0.7483,0.7899,0.7906,0.8949,0.9935,1.0634,1.1256,1.1594,1.1595,1.1602,1.1593,1.1599,1.1593,1.2123,1.3274,1.4415,1.5004,1.4999,1.4999,1.5001,1.5006,1.5096,1.5125,1.5106,1.5204,1.5187,1.5106,1.5106,1.5,1.4857,1.4857,1.4694,1.4432,1.4343,1.4245,1.4083,1.3651,1.3367,1.3107,1.2431,1.2097,1.1882,1.1487,1.1217,1.0984,0.0,0.0,0.0,0.0,0.0,0.0,0.0,0.0,0.0,0.0,0.0,0.0,0.0,0.0,0.9426,0.0,0.0,1.082,1.1547,1.201,1.2504,1.3118,1.3629,1.4033,1.4277,1.4502,1.4776,1.5075,1.5208,1.5425,1.5723,1.5911,1.6094,1.6286,1.6349,1.6457,1.6606,1.6606,1.6647,1.6754,1.6822,1.6856,1.6856,1.6904,1.6945,1.6945,1.6945,1.6945,1.6945,1.6945,1.6945,1.6945,1.6945,1.6945,1.6945,1.6945,1.6667,1.63,1.63,1.618,1.6058,0.48,0.4867,0.4916,0.4921,0.518,0.5399,0.5399,0.5596,0.6262,0.7714,0.7905,0.799,0.824,0.972,1.0755,1.086,1.131,1.1603,1.1602,1.1602,1.1602,1.1602,1.2026,1.3119,1.4959,1.5,1.4999,1.5006,1.5006,1.5023,1.5063,1.521,1.528,1.5281,1.5427,1.5411,1.5254,1.5213,1.5135,1.5036,1.5023,1.4898,1.4741,1.4576,1.447,1.4358,1.4098,1.3969,1.3802,1.3159,1.2824,1.2638,1.2321,1.193,1.1594,1.1519,1.1033,0.0,0.0,0.0,0.0,0.0,0.0,0.0,0.0,0.0,0.9041,0.9238,0.9702,1.0214,1.064,1.1179,1.1742,1.2226,1.2839,1.3314,1.3543,1.4051,1.4407,1.4462,1.4817,1.5089,1.5238,1.5418,1.5689,1.608,1.6162,1.6286,1.6525,1.6566,1.6654,1.6777,1.6811,1.6911,1.7093,1.7182,1.7236,1.7236,1.7358,1.7392,1.7392,1.7392,1.7392,1.7392,1.7392,1.7392,1.7392,1.7392,1.7392,1.7392,1.7392,1.7101,1.6661,1.6632,1.6566,1.6539,0.4797,0.509,0.5327,0.5339,0.5375,0.5399,0.5399,0.6303,0.7217,0.7816,0.7905,0.8335,0.9465,1.0251,1.0918,1.1451,1.1555,1.1601,1.1595,1.1602,1.1602,1.1602,1.354,1.474,1.4986,1.5004,1.5009,1.5006,1.5006,1.5088,1.527,1.5228,1.5306,1.5468,1.5484,1.5484,1.5452,1.5289,1.5189,1.5176,1.5052,1.499,1.4955,1.493,1.4708,1.4395,1.4358,1.4154,1.3895,1.3802,1.3289,1.2694,1.2638,1.2359,1.1967,1.1594,1.1444,1.1302,1.1024,1.0827,1.0499,0.9691,0.9566,0.9557,0.0,0.0,0.9798,1.017,1.0672,1.1224,1.1795,1.2064,1.2394,1.2981,1.3242,1.3572,1.4119,1.4471,1.4764,1.5052,1.515,1.5221,1.5371,1.5764,1.6053,1.6101,1.6327,1.6518,1.6662,1.6856,1.7018,1.7134,1.725,1.7324,1.7372,1.7358,1.7365,1.7372,1.7385,1.7392,1.7392,1.7392,1.7392,1.7392,1.7392,1.7392,1.7392,1.7392,1.7392,1.7392,1.7392,1.7351,1.7263,1.7026,1.6842,1.6655,0.5151,0.5286,0.54,0.5399,0.5403,0.5402,0.5393,0.6427,0.7376,0.7843,0.7898,0.8389,0.9666,1.0337,1.0809,1.1043,1.1399,1.1599,1.159,1.1608,1.1602,1.1588,1.3784,1.4998,1.4989,1.5001,1.5006,1.5006,1.5112,1.5202,1.5244,1.5455,1.5593,1.5666,1.576,1.5744,1.5678,1.5585,1.5411,1.5197,1.5135,1.5077,1.5006,1.5006,1.489,1.4741,1.4741,1.4665,0.0,1.4275,1.3851,1.3416,1.3147,1.2844,1.2583,1.2427,1.2174,1.1894,1.154,1.1401,1.1287,1.0907,1.0867,1.0858,1.077,1.0945,1.1203,1.1443,1.1748,1.2128,1.2648,1.2844,1.3109,0.0,1.3907,1.4124,1.437,1.4685,1.495,1.5184,1.5343,1.5506,1.568,1.5945,1.6151,1.6327,1.6505,1.6728,1.6965,1.7066,1.7168,1.7317,1.7358,1.7392,1.7392,1.748,1.7528,1.7528,1.7636,1.7684,1.7684,1.7684,1.7684,1.7684,1.7684,1.7752,1.7806,1.7717,1.7738,1.7806,1.7717,1.7684,1.765,1.7344,1.7169,1.7108,0.5394,0.5393,0.54,0.5397,0.5401,0.5513,0.5852,0.6642,0.7331,0.7671,0.8128,0.8781,0.9693,1.0338,1.0701,1.0698,1.11,1.1412,1.1583,1.1604,1.1608,1.16,1.3584,1.4794,1.4999,1.4993,1.5006,1.5006,1.5186,1.5288,1.5286,1.5646,1.5817,1.5853,1.5971,1.5955,1.5845,1.5817,1.5593,1.527,1.5221,1.513,1.5006,1.5006,1.5006,1.5006,1.5006,1.502,1.5002,1.4721,1.445,1.4163,1.3702,1.3365,1.3136,1.3023,1.2789,1.2453,1.2029,1.1984,1.202,1.1898,1.1887,1.1957,1.2028,1.2147,1.2272,1.2498,1.264,1.2843,1.3361,1.3539,1.3725,1.4133,1.4373,1.4521,1.4624,1.4885,1.5123,1.5289,1.555,1.5818,1.5992,1.6142,1.6307,1.6539,1.6735,1.6938,1.7182,1.727,1.7345,1.7453,1.7521,1.7541,1.7541,1.7622,1.7677,1.7677,1.786,1.7962,1.7962,1.7996,1.8017,1.8017,1.8017,1.8057,1.8145,1.8036,1.8057,1.8145,1.8036,1.8017,1.7968,1.7731,1.7561,1.7446,0.5401,0.5405,0.5405,0.5401,0.5397,0.5796,0.6967,0.7175,0.7211,0.7224,0.8691,0.9749,0.9795,1.0333,1.0692,1.0694,1.0715,1.0981,1.1551,1.16,1.16,1.1593,1.3104,1.426,1.498,1.4993,1.5006,1.5006,1.5147,1.5294,1.5492,1.5711,1.5869,1.5999,1.5999,1.5999,1.5983,1.5865,1.5666,1.5476,1.527,1.513,1.5006,1.5006,1.5006,1.5006,1.5006,1.5082,1.5189,1.5169,1.5034,1.4787,1.4321,1.3902,1.3509,1.3116,1.3078,1.3064,1.2595,1.272,1.2849,1.2406,1.2371,1.2484,1.249,1.2475,1.2625,1.3081,1.3174,1.3369,1.3947,1.4068,1.4163,1.4426,1.4487,1.4618,1.4939,1.5109,1.5289,1.5563,1.5886,1.613,0.0,1.6397,1.6546,1.6675,1.6986,1.7182,1.7195,1.7446,1.7575,1.7595,1.7772,1.7874,1.7874,1.7888,1.7888,1.7888,1.803,1.8091,1.8091,1.8233,1.8301,1.8301,1.8301,1.8301,1.8293,1.8301,1.8301,1.8293,1.8301,1.8301,1.8301,1.8273,1.7995,1.7595,0.5401,0.5401,0.5401,0.5397,0.6056,0.6729,0.7137,0.7198,0.7201,0.7195,0.8717,0.0,0.0,0.0,0.0,0.0,1.0698,1.0784,1.0994,1.138,1.2055,1.3087,1.3626,1.4248,1.4975,1.4821,1.4808,1.5006,1.5268,1.5435,1.55,1.58,1.5971,1.6007,1.6007,1.6007,1.5999,1.5963,1.576,1.5492,1.5427,1.5236,1.5006,1.5006,1.5006,1.5023,0.0,1.5207,1.5221,1.5343,1.5245,1.4965,1.4541,1.419,1.387,1.35,1.3484,1.3551,1.3403,1.3434,1.3493,1.3322,1.3334,1.3366,1.3366,1.3467,1.3604,1.3755,1.3879,1.4015,1.4317,1.4367,1.4428,1.4609,1.4746,1.4878,1.498,1.5181,1.5411,1.5591,1.59,0.0,0.0,0.0,0.0,1.689,1.708,1.7283,1.746,1.7541,1.7656,1.7792,1.7962,1.8023,1.8023,1.8111,1.8165,1.8165,1.8213,1.8218,1.8218,1.8273,1.8293,1.8293,1.8293,1.8347,1.8435,1.8327,1.8347,1.8415,1.8327,1.8293,1.8293,1.8293,1.8205,1.8063,0.6047,0.6047,0.6047,0.6047,0.6687,0.0,0.0,0.0,0.0,0.0,0.0,0.0,0.0,0.0,0.0,0.0,0.0,1.0698,1.0704,1.1265,1.2289,1.3829,1.3896,1.417,1.4773,1.4656,1.4732,1.5006,1.5268,1.5427,1.55,1.5792,1.5942,1.6007,1.6007,1.6007,1.6007,1.6007,1.5817,1.5492,1.5492,1.5293,1.5006,1.5006,1.5,0.0,1.5268,1.5374,1.5408,1.5569,1.553,1.5327,1.4748,1.4271,1.3888,1.3725,1.3727,1.3795,1.3795,1.3857,1.3904,1.3904,1.3945,1.3985,1.3985,1.4122,1.4253,1.4253,1.4353,1.446,1.4554,1.4568,1.4622,1.4771,1.4926,1.5034,1.5136,1.5337,1.5543,1.5746,1.6056,1.6334,0.0,0.0,0.0,1.7046,1.7243,1.7412,1.7575,1.7677,1.7792,1.7962,1.8064,1.8111,1.8179,1.8267,1.8306,1.8361,1.8361,1.8394,1.8477,1.8477,1.8477,1.8477,1.8477,1.8531,1.8599,1.8511,1.8531,1.8599,1.8511,1.8477,1.8477,1.8477,1.8477,1.8464,0.7195,0.7195,0.7204,0.0,0.0,0.0,0.0,0.0,0.0,0.0,0.0,0.0,0.0,0.0,0.0,0.0,0.0,0.0,1.0695,1.1245,1.2259,1.3825,1.3896,1.4046,1.4379,1.4519,1.4716,1.4971,1.5127,1.5306,1.5484,1.5703,1.5853,1.5975,1.5975,1.5975,1.5975,1.5975,1.578,1.5484,1.5484,1.5285,1.5006,1.5006,1.4996,1.5056,1.5388,1.5586,1.5711,1.578,1.589,1.583,1.4976,1.4229,1.3675,1.3789,1.3815,1.3822,1.3822,1.3952,1.4104,1.4104,1.4212,1.4299,1.4306,1.4414,1.4493,1.45,1.4615,1.4694,0.0,0.0,1.4778,1.498,1.5014,1.5116,1.5371,1.5523,1.5733,0.0,0.0,0.0,0.0,0.0,0.0,1.7216,0.0,1.7595,1.7609,1.7792,1.7962,1.8091,1.8111,1.8179,1.8306,1.8306,1.8381,1.8523,1.8523,1.862,1.8791,1.8791,1.8791,1.8791,1.8791,1.8791,1.8791,1.882,1.8811,1.8811,1.8811,1.8811,1.8811,1.8811,1.8811,1.8771,0.0,0.0,0.0,0.0,0.0,0.0,0.0,0.0,0.0,0.0,0.0,0.0,0.0,0.0,0.0,0.0,0.0,0.0,1.0698,1.0836,1.1817,1.3799,1.3899,1.3946,1.4028,1.4315,1.4557,1.4773,1.507,1.5221,1.5278,1.5476,1.5581,1.563,1.563,1.563,1.563,1.563,1.55,1.5289,1.5289,1.5171,1.5006,1.5006,1.5062,1.5182,1.5535,1.5694,1.5796,1.5906,1.587,1.5667,1.5046,1.4677,1.442,1.4109,1.4095,1.4162,1.4162,1.4211,1.4245,1.4245,1.4272,1.4326,1.4434,1.4482,1.4521,1.4636,1.469,1.4751,1.4889,1.4909,1.4957,1.5129,1.5221,0.0,1.5398,1.5635,0.0,1.608,0.0,1.66,1.6897,1.7188,0.0,0.0,1.7548,1.7677,1.7812,1.7976,1.8057,1.8091,1.8301,1.8415,1.8449,1.8614,1.8703,1.8708,1.8708,1.8757,1.8791,1.8791,1.8791,1.8791,1.8791,1.8791,1.8811,1.8913,1.8938,1.8968,1.9076,1.9094,1.9094,1.9094,1.9094,1.9081,0.0,0.0,0.0,0.0,0.0,0.0,0.0,0.0,0.0,0.0,0.0,0.0,0.0,0.0,0.0,0.0,0.0,0.0,0.0,1.0698,1.1502,1.3347,1.3736,1.3906,1.3898,1.4174,1.4448,1.4708,1.4892,1.507,1.5205,1.5322,1.5419,1.5492,1.5492,1.5492,1.5492,1.5492,1.5387,0.0,0.0,1.513,1.5006,1.5006,1.5054,1.5162,1.5554,1.5783,1.591,1.5975,1.5879,1.5619,1.5162,1.4936,1.472,1.431,1.4231,1.4299,1.4299,1.4299,1.4312,1.438,1.4394,1.4412,1.4554,1.4665,1.474,1.4821,1.4889,1.4964,1.5075,1.5143,1.5187,1.5269,1.5411,1.5509,1.5619,1.5829,1.606,0.0,1.6457,0.0,1.7072,1.7524,1.7858,0.0,1.8039,1.8164,1.8364,1.8712,1.8965,1.9093,1.9249,1.9232,1.9037,1.8888,1.8791,1.8791,1.8791,1.8791,1.8791,1.8859,1.89,1.89,0.0,1.8988,1.8988,1.9076,1.9081,1.9094,1.9169,1.9203,1.9203,1.9203,1.9203,1.9217,0.0,0.0,0.0,0.0,0.0,0.0,0.0,0.0,0.0,0.8899,0.8901,0.9091,0.0,0.0,0.0,0.0,0.0,0.0,0.0,0.0,1.1335,1.2748,1.3401,1.3791,1.3899,1.4068,1.432,1.4635,1.4641,1.4811,1.5092,1.5116,1.5233,1.5387,1.5411,1.5419,1.5419,1.5419,1.533,1.5164,1.5164,1.5106,1.5006,0.0,1.5016,1.5104,1.5579,1.5853,1.6007,1.6007,1.5916,1.5771,1.5409,1.5153,1.4937,1.4501,1.4387,1.4387,1.4321,1.4312,1.436,1.446,1.4507,1.4561,1.471,1.4875,1.5,1.5021,1.5136,1.5238,1.5238,1.5337,1.5438,1.5438,1.5543,1.571,1.5888,1.6026,1.6212,1.6464,1.6647,1.6897,1.7302,1.7948,1.8427,1.8646,1.8851,1.903,1.9103,1.9664,2.0108,2.0421,2.0436,2.0216,1.9835,1.9313,1.9001,1.8914,1.8928,1.889,1.8825,1.8959,1.9027,1.9027,1.9149,1.9203,1.9203,1.9217,1.9237,1.9237,1.9257,1.9257,1.9257,1.9257,1.9257,1.9291,0.0,0.0,0.0,0.0,0.0,0.0,0.0,0.0,0.0,0.0,0.8901,0.8948,0.0,0.0,0.0,0.0,0.0,0.0,0.0,0.0,0.0,1.2748,1.2924,1.3275,1.3886,1.3935,1.4058,1.4288,1.4389,1.4476,1.4533,1.4714,1.4814,1.4854,1.502,1.5096,1.5096,1.5096,1.506,1.5036,1.5036,1.5012,1.5006,1.5006,0.0,0.0,1.5778,1.5971,1.6007,1.6007,1.6205,1.6374,1.593,1.5932,1.5967,1.5117,1.4888,1.48,1.4409,1.4387,1.446,1.4487,1.4581,1.4717,1.4896,1.4973,1.5027,1.5143,1.5269,1.5371,1.5371,1.5475,1.5577,1.5577,1.5723,1.5849,1.5901,1.6121,1.6308,1.6478,1.6768,1.7237,1.8015,1.8326,0.0,0.0,2.0049,2.0231,1.978,2.0111,2.0399,2.0564,2.0564,2.0529,2.0457,2.0356,2.0052,1.956,1.965,1.945,1.8959,1.9094,1.9169,1.9169,1.9183,0.0,1.9217,1.9316,1.9363,1.9363,1.9535,1.9606,1.9606,1.9606,1.9606,1.962,0.0,0.0,0.0,0.0,0.0,0.0,0.0,0.8899,0.8899,0.8899,0.8901,0.8899,0.8899,0.9449,0.9792,0.0,0.0,0.0,0.0,0.0,0.0,1.2726,1.2798,1.2974,1.3318,1.3695,1.3943,1.4034,0.0,1.4235,1.4395,1.4503,1.4663,1.4859,1.4968,1.5002,1.5002,1.5002,1.5002,1.4991,1.4987,1.499,1.4999,1.4993,0.0,0.0,1.5604,1.5857,1.6,1.5995,1.6221,1.6427,1.6044,1.6121,1.6269,1.5572,1.5447,1.5468,1.5253,1.5279,1.5346,1.5181,1.5167,1.5195,1.5115,1.517,1.5221,1.5289,1.5401,1.5503,1.5503,1.5649,1.575,1.575,1.5897,1.6026,1.6108,1.6279,1.6451,1.66,1.7172,1.7766,1.8252,1.8984,1.9792,2.063,2.1414,2.1427,2.051,2.1429,2.1994,2.2045,2.1735,2.1402,2.1064,2.0865,2.0619,2.0335,2.046,2.0216,1.9626,1.9756,1.9617,1.9295,1.9413,0.0,1.9477,1.9522,1.9556,1.9556,1.9654,1.9695,1.9695,1.9695,1.9695,1.9695,0.0,0.0,0.0,0.0,0.0,0.0,0.8899,0.8899,0.8899,0.8899,0.8964,0.9034,0.9093,0.9517,0.9795,0.0,0.0,0.0,0.0,0.0,0.0,0.0,1.2572,1.2807,1.2793,0.0,0.0,1.379,1.3861,0.0,0.0,0.0,0.0,0.0,1.494,1.4994,1.4994,1.4837,1.4763,0.0,0.0,1.4866,1.5004,0.0,0.0,0.0,0.0,1.5646,1.5987,1.6004,1.6129,1.627,1.6057,1.6258,1.6475,1.6036,1.6024,1.6129,1.6055,1.6137,1.621,1.5945,1.5817,1.5696,1.5453,1.5418,1.5418,1.5428,1.5557,1.5658,1.5658,1.5829,1.5949,1.5949,1.6053,1.6171,1.6293,1.6437,1.6651,1.6911,1.7673,1.8293,1.8686,1.9822,2.092,2.181,2.2743,2.2811,2.1751,2.2902,2.3578,2.3578,2.3118,2.2645,2.2166,2.1699,2.1433,2.1354,2.1359,2.1027,2.0447,2.0599,2.0377,1.9873,1.9899,0.0,1.9877,1.9755,1.9695,1.9695,1.9695,1.9695,1.9695,1.9695,1.9695,1.9695,0.0,0.0,0.0,0.0,0.0,0.0,0.8899,0.8899,0.8899,0.8899,0.9167,0.9446,0.9693,0.9767,0.9809,0.0,0.0,0.0,0.0,0.0,0.0,0.0,0.0,0.0,0.0,0.0,0.0,1.3451,1.3743,0.0,0.0,0.0,0.0,0.0,0.0,1.4994,1.4957,1.4294,0.0,0.0,0.0,0.0,0.0,0.0,0.0,0.0,0.0,1.5457,1.5987,1.6004,1.6025,1.6071,1.6291,1.6669,1.6991,1.6685,1.6628,1.6563,1.6265,1.6316,1.6474,1.6419,1.6159,1.5929,1.6062,1.5731,1.5428,1.5563,1.5737,1.5856,1.5856,1.5985,1.6087,1.6087,1.6191,1.6293,1.6307,1.6525,1.6963,1.7697,1.8093,1.8774,1.9993,2.0818,2.1625,2.2457,2.3873,2.4487,2.4026,2.4135,2.423,2.423,2.4164,2.4194,2.4319,2.3656,2.3185,2.2804,2.2396,2.1863,2.1294,2.1435,2.1449,2.1358,2.0767,0.0,0.0,1.9924,1.9695,1.9695,1.9695,1.9695,1.9695,1.9695,1.9695,1.9695,0.0,0.0,0.0,0.0,0.0,0.0,0.8899,0.9001,0.9083,0.9083,0.9201,0.9405,0.9767,0.9802,0.9806,0.98,0.0,0.0,0.0,0.0,0.0,0.0,0.0,0.0,0.0,0.0,1.288,1.3045,1.3172,0.0,0.0,0.0,0.0,0.0,0.0,1.4342,1.4318,1.4015,0.0,0.0,0.0,0.0,0.0,0.0,0.0,0.0,0.0,0.0,1.5996,1.5992,1.6221,1.6491,1.6605,1.6944,1.7246,1.6999,1.7144,1.7327,1.7192,1.7342,1.7444,1.7126,1.6916,1.6702,1.6297,1.6094,1.5973,1.581,1.5911,1.6013,1.6013,1.6067,1.6135,1.6205,1.6273,1.6374,1.6525,1.7039,1.7573,1.7965,1.8901,1.9873,2.0748,2.1623,2.2807,2.4452,2.5949,2.6708,2.6539,2.6139,2.592,2.592,2.5697,2.5424,2.5147,2.4756,2.4471,2.432,2.4269,2.3685,2.2679,2.2711,2.2342,2.1593,2.1335,0.0,0.0,2.0956,2.0849,2.0789,2.041,2.0242,2.0204,1.9816,1.9695,1.9695,0.0,0.0,0.0,0.0,0.0,0.8926,0.8981,0.9103,0.9213,0.9254,0.9296,0.9427,0.9686,0.9771,0.9807,0.9807,0.9807,0.0,0.0,0.0,0.0,0.0,0.0,0.0,0.0,0.0,1.2808,1.2797,1.2803,1.2797,0.0,0.0,1.3567,1.3565,0.0,0.0,0.0,0.0,0.0,0.0,0.0,0.0,0.0,0.0,0.0,0.0,0.0,0.0,0.0,0.0,0.0,1.6754,1.6784,1.7099,1.7439,1.7296,1.7514,1.7832,1.7904,1.8055,1.8106,1.7733,1.7562,1.7318,1.6631,1.6455,1.6369,1.604,1.6033,1.6108,1.6108,1.6117,1.6185,1.6293,1.6356,1.6536,1.6901,1.7545,1.8131,1.8608,1.9781,2.0831,2.1562,2.2802,2.4369,2.6268,2.772,2.8533,2.8533,2.8407,2.8038,2.7337,2.7076,2.6788,2.641,2.615,2.5957,2.5841,2.5785,2.5177,2.4079,2.4079,2.3498,2.244,2.2236,0.0,0.0,2.1691,2.1593,2.1562,2.1077,2.0895,2.0849,2.041,2.0272,2.0272,0.0,0.0,0.0,0.0,0.0,0.0,0.9172,0.9193,0.9247,0.939,0.951,0.9582,0.9501,0.9674,0.9807,0.9807,0.9807,0.0,0.0,0.0,0.0,0.0,0.0,0.0,0.0,0.0,1.2798,1.2806,1.28,1.2805,1.2798,1.2815,1.2801,1.2812,0.0,0.0,0.0,0.0,0.0,0.0,0.0,0.0,1.3933,0.0,0.0,0.0,0.0,0.0,0.0,0.0,0.0,0.0,0.0,1.7159,1.7595,1.7595,1.7747,1.7934,1.8151,1.8199,1.8199,1.8199,1.793,1.7582,1.7184,1.6845,1.6514,1.6173,1.6108,1.6108,1.6108,1.6205,1.6307,1.6307,1.6532,1.6896,1.7517,1.7872,1.8562,1.9842,2.0706,2.1554,2.2498,2.4564,2.6354,2.7508,2.8943,0.0,2.9788,3.0902,3.0467,2.8068,2.8195,2.837,2.8553,2.8158,2.7763,2.7377,2.6699,2.6078,2.5465,2.5465,2.5104,0.0,0.0,0.0,0.0,2.1858,2.1593,2.1593,2.1593,2.1593,2.1593,2.1593,2.1593,2.1593,0.0,0.0,0.0,0.0,0.0,0.0,0.9328,0.9409,0.9483,0.953,0.9651,0.9724,0.9709,0.9765,0.9807,0.9807,0.9807,0.0,0.0,0.0,0.0,0.0,0.0,0.0,0.0,0.0,1.2346,1.2798,1.28,1.2798,1.2797,1.2797,1.2796,1.2794,1.2794,1.2791,0.0,0.0,0.0,0.0,0.0,1.3902,1.3946,0.0,0.0,0.0,0.0,0.0,0.0,0.0,0.0,0.0,0.0,0.0,0.0,1.7562,1.7836,1.8126,1.8183,1.8199,1.8232,1.8377,1.8333,1.8169,1.7915,1.7486,1.7047,1.6712,1.6349,1.6108,1.6108,1.6205,1.6474,1.6976,1.7209,1.7595,1.8393,1.9004,1.9742,2.0714,2.265,2.4183,2.4797,2.6969,2.8564,2.9067,3.0293,3.1026,3.1026,3.1392,3.124,3.0478,3.0275,2.9976,2.963,2.9348,2.8956,2.8435,2.8405,2.8025,2.7407,2.6987,2.6438,0.0,0.0,0.0,2.4532,2.3852,2.3588,2.3498,2.2622,2.2266,2.2236,2.1782,2.1593,2.1593,0.0,0.0,0.0,0.0,0.0,0.0,0.947,0.9551,0.9617,0.9665,0.9753,0.9807,0.9807,0.9807,0.9807,0.9807,0.9807,0.0,0.0,0.0,0.0,0.0,0.0,0.0,1.1804,1.1799,1.2123,1.2798,1.28,1.2807,1.2807,1.2807,1.2807,1.2807,1.2807,1.2798,0.0,0.0,0.0,0.0,1.3787,1.3893,1.3918,0.0,0.0,0.0,0.0,0.0,0.0,0.0,0.0,0.0,0.0,0.0,0.0,0.0,1.7828,1.8095,1.8183,1.8199,1.824,1.8451,1.8525,1.8511,1.8267,1.801,1.7636,1.7023,1.6623,1.6399,1.6399,1.6579,1.693,1.7589,1.7861,1.8269,1.9114,1.9863,2.0943,2.2524,2.4257,2.5819,2.7141,2.8687,2.9835,3.0439,3.1398,3.204,3.2265,3.2479,3.2719,3.2944,3.192,3.1174,3.0796,3.0764,3.0423,2.982,2.9844,2.9503,2.8861,2.8355,2.7766,0.0,0.0,2.6078,0.0,2.5143,2.4885,2.4794,2.4011,2.3687,2.3627,2.3234,2.3075,2.3045,0.0,0.0,0.0,0.0,0.0,0.0,0.0,0.961,0.9658,0.9786,0.9807,0.9807,0.9807,0.9807,0.9807,0.9837,0.9837,0.0,0.0,0.0,0.0,0.0,0.0,0.0,1.1804,1.1846,1.2187,1.2798,1.28,1.2807,1.2807,1.2807,1.2807,1.2807,1.2807,1.2807,0.0,0.0,0.0,0.0,1.3551,1.3854,0.0,0.0,0.0,0.0,0.0,0.0,0.0,0.0,0.0,0.0,0.0,0.0,0.0,0.0,0.0,0.0,0.0,1.8191,1.824,1.8451,1.859,1.8624,1.8315,1.8389,0.0,1.7211,1.6995,1.697,1.6985,1.7242,1.7629,1.8197,1.8525,1.8978,1.9814,2.0668,2.22,2.4899,2.5559,2.6784,2.9269,2.98,3.0467,3.1646,3.2293,3.2883,3.3488,3.4048,3.4634,3.5192,3.3227,3.2109,3.2006,3.2224,3.2003,3.1335,3.1065,3.057,2.9964,2.9573,2.907,0.0,0.0,2.7188,2.6568,2.5946,2.5697,2.5697,2.5594,2.5564,2.5564,2.5525,2.5495,2.5405,0.0,0.0,0.0,0.0,0.0,0.0,0.0,0.0,0.0,0.0,0.9807,0.9807,0.9807,0.9807,0.9898,0.0,0.0,0.0,0.0,0.0,0.0,0.0,0.0,0.0,1.1804,1.2305,1.2636,1.2798,1.28,1.2807,1.2807,1.2807,1.2807,1.2807,1.2807,1.2807,0.0,0.0,0.0,0.0,1.2985,1.3393,0.0,0.0,0.0,0.0,1.4877,1.513,0.0,0.0,0.0,0.0,0.0,0.0,0.0,0.0,1.7544,1.77,1.7932,0.0,1.824,1.8451,1.859,1.8721,0.0,1.8652,1.8432,1.8185,1.7789,1.7528,1.7646,1.7863,1.8252,1.8937,1.9297,1.9919,2.1078,2.2962,2.4495,2.5318,2.7287,2.8866,2.9646,3.1026,3.2169,3.2911,3.3556,3.4144,3.473,3.4913,3.5055,3.5192,3.4697,3.3994,3.3067,3.2791,3.2378,3.1761,3.1906,3.1862,3.1682,3.0823,3.0372,0.0,2.9238,2.8772,2.8573,2.7896,2.7637,2.7547,2.6568,2.6177,2.6117,2.5667,2.5495,2.5465,0.0,0.0,0.0,0.0,0.0,0.0,0.0,0.0,0.0,0.0,0.9807,0.9807,0.9807,0.9943,1.0095,0.0,0.0,0.0,0.0,0.0,0.0,0.0,0.0,1.2102,1.2256,1.2619,1.2807,1.2792,1.2808,1.2807,1.2807,1.2807,1.2807,1.2807,1.2807,1.2807,0.0,0.0,0.0,1.2828,1.2999,0.0,0.0,0.0,0.0,0.0,1.4716,1.4928,0.0,1.5403,1.5679,1.5963,0.0,0.0,0.0,0.0,1.7423,1.7635,1.7844,1.8046,1.824,1.8451,1.859,1.8745,1.8939,1.8922,1.8803,1.8556,1.8259,1.8114,1.8232,1.8424,1.8898,1.9873,2.0326,2.1155,2.2805,2.4282,2.5702,2.7007,2.8551,2.9905,3.0936,3.2169,3.3152,3.3768,3.4355,3.4969,3.5594,3.5622,3.5735,3.5957,3.5735,3.5151,3.4231,3.3999,3.3593,3.3005,3.2948,3.2791,3.2505,3.1804,3.1565,0.0,3.0484,3.0048,3.0093,2.916,2.8772,2.8673,2.7996,2.7736,2.7696,2.7347,2.7248,2.7188,0.0,0.0,0.0,0.0,0.0,0.0,0.0,0.0,0.0,0.0,0.0,0.0,0.0,0.0,0.0,0.0,0.0,0.0,0.0,0.0,0.0,0.0,1.2531,1.2626,1.2806,1.2903,1.3027,1.312,1.2914,1.2791,1.2791,1.3021,1.3005,1.2799,1.2799,1.2799,0.0,0.0,1.2807,1.284,1.3247,0.0,0.0,0.0,0.0,0.0,0.0,0.0,0.0,1.533,1.5585,1.5817,1.6154,0.0,0.0,0.0,0.0,0.0,1.7804,1.8005,1.8199,1.841,1.855,1.8728,1.8907,1.911,1.9125,1.8704,1.863,1.8693,1.8948,1.9123,1.9645,2.0857,2.1551,2.2584,2.4498,2.5367,2.6614,2.8835,2.9604,3.0667,3.2471,3.318,3.3836,3.451,3.5037,3.5594,3.6206,3.6206,3.6428,3.6885,3.6455,3.5985,3.5457,3.5275,3.4941,3.4423,3.4097,3.3601,3.3006,3.2671,3.2603,3.2653,0.0,0.0,3.1367,3.032,2.9874,2.9874,2.9676,2.9577,2.9577,2.9378,2.9289,2.9219,0.0,0.0,0.0,0.0,0.0,0.0,0.0,0.0,0.0,0.0,0.0,0.0,0.0,0.0,0.0,0.0,0.0,0.0,0.0,0.0,0.0,1.3378,1.3564,1.3398,1.2814,1.3411,1.4013,1.4576,1.3382,1.28,1.2832,1.4024,1.3934,1.2807,1.2807,1.2791,1.2807,1.2807,1.2807,1.284,1.3247,0.0,0.0,0.0,0.0,0.0,0.0,0.0,0.0,1.5124,1.5387,1.5598,1.5934,0.0,0.0,0.0,0.0,0.0,1.7617,1.7796,1.7997,1.8199,1.8378,1.8565,1.8696,1.8899,1.9069,1.915,1.9182,1.9411,2.0166,2.0325,2.068,2.1673,2.2976,2.4282,2.5455,2.7283,2.8658,2.905,3.0845,3.2347,3.318,3.3796,3.4634,3.5735,3.59,3.6206,3.676,3.6789,3.6817,3.6913,3.6817,3.6733,3.6636,3.568,3.5151,3.5068,3.5007,3.4641,3.4053,3.367,3.3233,3.2762,0.0,3.2422,3.2485,3.2505,3.2525,3.2395,3.133,3.0906,3.0777,2.9706,2.9289,2.9289,0.0,0.0,0.0,0.0,0.0,0.0,0.0,0.0,0.0,0.0,0.0,0.0,0.0,0.0,0.0,0.0,0.0,0.0,0.0,0.0,1.3501,1.3743,1.4199,1.415,1.3573,1.3889,1.4344,1.4896,1.4253,1.3924,1.394,1.4344,1.418,1.3547,1.3292,1.3046,1.2824,1.3071,1.3021,1.284,0.0,0.0,0.0,0.0,0.0,0.0,0.0,0.0,0.0,0.0,1.5327,1.5541,1.5821,0.0,0.0,0.0,0.0,0.0,1.7546,1.7755,1.8003,1.8461,1.8525,1.8548,1.8656,1.9076,1.9468,1.9634,1.9914,2.0305,2.0932,2.1026,2.1522,2.3008,2.4442,2.5858,2.7176,2.8368,2.9491,3.0581,3.2065,3.322,3.3836,3.473,3.5498,3.6054,3.6359,3.6636,3.6885,3.6913,3.6913,3.6913,3.6913,3.6913,3.6913,3.6387,3.5957,3.568,3.568,3.5374,3.4786,3.4579,3.425,3.3823,0.0,3.3356,3.3187,3.3119,3.3115,3.3045,3.2466,3.224,3.217,3.1556,3.1133,3.0777,0.0,0.0,0.0,0.0,0.0,0.0,0.0,0.0,0.0,0.0,0.0,0.0,0.0,0.0,0.0,0.0,0.0,0.0,0.0,1.404,1.4202,1.4382,1.4929,1.4955,1.4384,1.4578,1.4911,1.535,1.515,1.5065,1.5051,1.4574,1.4319,1.4237,1.3875,1.3473,1.3087,1.3367,1.3268,1.2964,0.0,0.0,0.0,0.0,0.0,0.0,0.0,0.0,0.0,0.0,0.0,0.0,0.0,0.0,0.0,1.6589,1.6901,1.7337,1.7688,1.7905,1.8184,1.8917,1.8852,1.8657,1.8983,1.9493,1.9953,2.0159,2.054,2.1051,2.1688,2.212,2.2967,2.4805,2.6002,2.7271,2.8885,2.9475,3.0364,3.2095,3.308,3.3896,3.4662,3.5553,3.615,3.629,3.6664,3.6913,3.6913,3.6913,3.6913,3.6913,3.6913,3.6913,3.6913,3.6913,3.6692,3.629,3.629,3.5985,3.5402,3.5402,3.5194,3.4788,3.4395,3.4118,3.3931,3.3607,3.35,3.3528,3.3369,3.3215,3.3115,3.3115,3.2791,3.227,0.0,0.0,0.0,0.0,0.0,0.0,0.0,0.0,0.0,0.0,0.0,0.0,0.0,0.0,0.0,0.0,0.0,0.0,0.0,1.4824,1.5127,1.5828,1.6077,1.5784,1.4875,1.5708,1.6324,1.666,1.5913,1.5556,1.5538,1.5071,1.4686,1.4375,1.4359,1.4137,1.3793,1.3515,1.3383,1.3351,1.34,0.0,0.0,0.0,0.0,0.0,0.0,0.0,0.0,0.0,0.0,0.0,0.0,0.0,1.6357,1.6549,1.673,1.7072,1.808,1.8344,1.8573,1.9439,1.9241,1.9087,1.9904,2.0135,2.0272,2.0648,0.0,0.0,2.2747,2.4253,2.5759,2.7228,2.7674,2.845,3.0135,3.102,3.1876,3.2827,3.3693,3.469,3.5859,3.6054,3.629,3.6789,3.6885,3.6913,3.6913,3.6913,3.6913,3.6913,3.6913,3.6913,3.6913,3.6913,3.6885,3.6844,3.6844,3.6567,3.6054,3.6054,3.5718,3.5159,3.4819,3.4777,3.4979,3.4631,3.4636,3.4793,3.4182,3.3594,3.3115,3.3115,3.3074,3.3015,0.0,0.0,0.0,0.0,0.0,0.0,0.0,0.0,0.0,0.0,0.0,0.0,0.0,0.0,0.0,0.0,0.0,0.0,0.0,1.5469,1.5757,1.616,1.6703,1.6892,1.6705,1.6597,1.6614,1.6732,1.6426,1.6198,1.6031,1.5642,1.5327,1.5071,1.4817,1.4522,0.0,0.0,1.397,1.3895,1.3764,1.3778,0.0,0.0,0.0,0.0,0.0,0.0,0.0,0.0,1.5212,1.5492,1.5492,1.5878,1.6341,1.6549,1.6899,1.7401,1.8183,1.8606,1.9032,1.9916,2.0089,2.0038,2.016,2.0461,2.0903,2.1643,2.2221,0.0,0.0,2.6063,2.7244,2.8283,2.8923,2.989,3.1574,3.2079,3.2776,3.4184,3.5002,3.5594,3.6054,3.6387,3.6664,3.6885,3.6913,3.6913,3.6913,3.6913,3.6913,3.6913,3.6913,3.6913,3.6913,3.6913,3.6913,3.6913,3.6913,3.6789,3.6608,3.6608,3.629,3.5746,3.5806,3.5777,3.5641,3.53,3.5311,3.5514,3.4869,3.447,3.4282,3.4282,3.4017,3.3664,0.0,0.0,0.0,0.0,0.0,0.0,0.0,0.0,0.0,0.0,0.0,0.0,0.0,0.0,0.0,0.0,0.0,0.0,1.5772,1.6208,1.6556,1.6788,1.7557,1.8044,1.8237,1.782,1.7565,1.7491,1.7253,1.702,1.6753,1.6302,1.6005,1.5866,0.0,0.0,0.0,1.469,1.4539,1.4431,1.4259,1.4276,0.0,0.0,0.0,0.0,0.0,0.0,0.0,0.0,1.5212,1.5492,1.5492,1.5878,1.6382,1.671,1.7134,1.7705,1.8601,1.9072,1.9545,2.0432,2.0913,2.1141,2.0988,2.1295,2.187,2.2798,2.3775,2.494,0.0,0.0,2.8489,2.9289,3.0167,3.1264,3.268,3.3102,3.3846,3.5308,3.5831,3.6178,3.6331,3.6664,3.6913,3.6913,3.6913,3.6913,3.6913,3.6913,3.6913,3.6913,3.6913,3.6913,3.6913,3.6913,3.6913,3.6913,3.6913,3.6913,3.6913,3.6913,3.6692,3.6359,3.6359,3.6324,3.6241,3.5834,3.5859,3.6129,3.5744,3.5573,3.5573,3.5573,3.5151,3.4605,0.0,0.0,0.0,0.0,0.0,0.0,0.0,0.0,0.0,0.0,0.0,0.0,0.0,0.0,0.0,0.0,0.0,0.0,1.6455,1.7063,1.7554,1.7895,1.8733,1.921,1.921,1.9467,1.9479,1.9193,1.8462,1.8011,1.7801,1.7047,1.6709,0.0,0.0,0.0,0.0,1.5324,1.5001,1.5011,1.4865,1.4806,1.4797,0.0,0.0,0.0,0.0,0.0,0.0,0.0,1.5212,1.5492,1.552,1.5878,1.6445,1.7112,1.7404,1.7849,1.9374,1.9806,2.0042,2.0972,2.1716,2.227,2.2556,2.2772,2.3178,2.4115,2.5561,2.6938,2.7921,2.8782,0.0,3.0464,3.1522,3.2509,3.3401,3.4265,3.5122,3.6015,3.6109,3.6331,3.6844,3.6913,3.6913,3.6913,3.6913,3.6913,3.6913,3.6913,3.6913,3.6913,3.6913,3.6913,3.6913,3.6913,3.6913,3.6913,3.6913,3.6913,3.6913,3.6913,3.6913,3.6885,3.6331,3.6395,3.687,3.6273,3.633,3.6813,3.6813,3.6813,3.6813,3.6813,3.6421,3.5907,0.0,0.0,0.0,0.0,0.0,0.0,0.0,0.0,0.0,0.0,0.0,0.0,0.0,0.0,0.0,0.0,0.0,0.0,1.7101,1.7522,1.8073,1.8784,1.9334,1.9684,1.9837,2.0196,2.008,1.9479,1.9253,1.9025,1.8772,1.8039,0.0,1.7453,0.0,0.0,1.6489,1.5987,1.5853,1.5937,1.5379,1.5235,1.5326,0.0,0.0,0.0,0.0,0.0,0.0,0.0,0.0,0.0,1.6,1.6434,1.6906,1.7535,1.8075,1.8681,1.9553,2.0333,2.1,2.1548,2.2336,2.3189,2.4031,2.3834,2.3882,2.5387,2.6915,2.8328,2.9383,3.0232,3.113,3.2186,3.2945,3.3773,3.4907,3.5283,3.5728,3.6569,3.6664,3.6733,3.6885,3.6913,3.6913,3.6913,3.6913,3.6913,3.6913,3.6913,3.6913,3.6913,3.6913,3.6913,3.6913,3.6913,3.6913,3.6913,3.6913,3.6913,3.6913,3.6913,3.6913,3.6885,3.6733,3.6995,3.7537,3.7329,3.7096,3.6813,3.6813,3.6813,3.6813,3.6813,3.6684,3.6521,0.0,0.0,0.0,0.0,0.0,0.0,0.0,0.0,1.2626,1.2988,1.3482,1.3998,0.0,0.0,0.0,1.5854,1.638,0.0,1.756,1.8166,1.8786,1.9409,1.9902,2.0273,2.0527,2.077,2.0757,2.0463,2.0011,1.9715,1.9548,1.8968,0.0,1.8481,0.0,1.7385,1.7334,1.6801,1.6543,1.6479,1.6042,1.5901,1.59,0.0,0.0,0.0,0.0,0.0,0.0,0.0,0.0,0.0,1.6268,1.6835,1.747,1.8026,1.8631,1.9316,2.0166,2.0884,2.1578,2.2172,2.3148,2.429,2.5628,2.5614,2.5741,2.7231,2.8528,2.9709,3.0798,3.1662,3.2483,3.3278,3.4081,3.4879,3.5584,3.5975,3.6355,3.6844,3.6913,3.6913,3.6913,3.702,3.71,3.71,3.7207,3.7274,3.7274,3.7274,3.7274,3.7274,3.7155,3.71,3.71,3.698,3.6913,3.6913,3.6913,3.6913,3.6913,3.6913,3.6913,3.6913,3.7139,3.746,3.7821,3.8047,3.7917,3.7555,3.7555,3.7555,3.7555,3.7555,3.7396,3.7205,0.0,0.0,1.09,0.0,0.0,0.0,0.0,1.2634,1.3005,1.3433,1.4048,1.4588,0.0,0.0,0.0,1.6488,1.685,1.7331,1.7989,1.8889,1.9548,1.987,2.0446,2.0908,2.1242,2.1242,2.1432,2.1794,2.0735,2.0197,2.0179,1.9831,1.9645,1.9611,0.0,1.8486,1.8416,1.7734,1.7205,1.6834,1.6783,1.6696,1.6545,1.6139,0.0,0.0,0.0,0.0,0.0,0.0,0.0,0.0,1.6511,1.7206,1.8062,1.8545,1.9136,1.9871,2.1003,2.15,2.197,2.2905,2.4151,2.5603,2.7221,2.7868,2.8365,2.9284,3.0138,3.1027,3.2101,3.3003,3.3718,3.3958,3.5,3.5774,3.5813,3.6435,3.6913,3.6913,3.6912,3.6953,3.6953,3.7235,3.745,3.745,3.7676,3.7781,3.7781,3.7781,3.7781,3.7781,3.7555,3.745,3.745,3.7127,3.698,3.698,3.6953,3.6953,3.6953,3.6913,3.6913,3.6912,3.7529,3.7782,3.7849,3.8437,3.8691,3.8689,3.8689,3.8689,3.8689,3.8689,3.834,3.7888,0.0,0.0,1.1595,1.1661,0.0,0.0,1.2634,1.3021,1.3498,1.4097,1.4539,1.4931,1.5332,1.5919,0.0,1.6866,1.7206,1.7864,1.9001,1.9282,1.9732,2.0471,2.0871,2.1259,2.1669,2.1673,2.1708,2.1794,2.1242,2.096,2.096,2.0301,0.0,1.997,0.0,1.9175,1.8847,1.8592,1.825,1.7832,1.7428,1.7236,1.7165,1.6754,1.6536,0.0,0.0,0.0,0.0,0.0,0.0,0.0,1.7683,1.8154,1.8576,1.9199,2.0007,2.078,2.1204,2.2018,2.2996,2.395,2.572,2.7442,2.8193,2.942,3.0346,3.0152,3.0883,3.183,3.274,3.3803,3.4615,3.4874,3.5701,3.6401,3.6614,3.6777,3.6913,3.6913,3.7127,3.7303,3.7303,3.7555,3.7702,3.7702,3.7782,3.7781,3.7781,3.7781,3.7781,3.7781,3.7742,3.7702,3.7702,3.7634,3.7607,3.7607,3.7382,3.7303,3.7275,3.702,3.6913,3.6912,3.7315,3.7595,3.7821,3.8223,3.8504,3.8689,3.8689,3.8689,3.8689,3.8689,3.8631,3.8499,0.0,0.0,0.0,0.0,0.0,0.0,0.0,0.0,1.4064,1.4572,1.4964,1.5447,1.6136,1.6526,0.0,0.0,1.7932,1.8551,1.9344,1.967,2.0158,2.0901,2.1289,2.1656,2.2035,2.2035,2.2199,2.2515,2.2154,2.1876,2.1667,0.0,0.0,2.1022,0.0,2.0119,1.99,1.9632,1.9184,1.8654,1.837,1.7971,1.7528,1.7412,1.7246,1.7073,1.7083,0.0,0.0,0.0,0.0,0.0,0.0,0.0,1.9488,1.9943,2.0744,2.1581,2.2048,2.2942,2.4112,2.5569,2.7187,2.8582,2.921,3.0465,3.1542,3.1768,3.235,3.3029,3.3793,3.4738,3.5508,3.5771,3.6294,3.6726,3.6873,3.7048,3.7127,3.7127,3.7422,3.7595,3.7595,3.7849,3.8036,3.8036,3.8155,3.8221,3.8221,3.8221,3.8221,3.8221,3.8103,3.8036,3.8036,3.7889,3.7781,3.7781,3.7676,3.7529,3.7382,3.706,3.6913,3.6913,3.7233,3.749,3.7635,3.7929,3.8252,3.8504,3.8504,3.8584,3.8689,3.8689,3.8689,3.8689,0.0,0.0,0.0,0.0,0.0,0.0,0.0,0.0,0.0,1.5045,1.5479,1.6082,1.6904,1.7098,1.7421,0.0,0.0,0.0,1.9456,2.0086,2.0727,2.135,2.1708,2.2078,2.2457,2.2475,2.2757,2.3389,2.3113,2.2827,2.2531,2.2021,2.1927,2.2169,2.1432,0.0,0.0,0.0,0.0,0.0,1.9405,1.8911,1.8181,1.815,1.8019,1.7843,1.7637,1.758,1.7605,1.7463,0.0,0.0,0.0,0.0,2.0404,2.0706,2.15,2.2462,2.3108,2.4148,2.5439,2.7262,2.8452,2.9433,3.0305,3.1377,3.2442,3.3381,3.3785,3.4189,3.4818,3.5616,3.6233,3.6473,3.6726,3.6913,3.698,3.7235,3.7422,3.7448,3.7702,3.7889,3.7889,3.8172,3.8359,3.8359,3.8584,3.8689,3.8689,3.8689,3.8689,3.8689,3.8477,3.8359,3.8359,3.8075,3.7956,3.7956,3.7929,3.7742,3.7448,3.7127,3.6953,3.6913,3.7195,3.7342,3.7422,3.7635,3.7929,3.8212,3.8212,3.8359,3.8542,3.8542,3.8542,3.8542,0.0,0.0,0.0,0.0,0.0,0.0,0.0,0.0,0.0,0.0,1.6412,1.6839,1.6985,1.7518,1.8045,1.8474,1.8806,1.9229,1.9802,0.0,0.0,2.2121,2.2207,2.2544,2.3155,2.3173,2.3354,2.3732,2.3696,2.3763,2.3913,0.0,0.0,2.2599,0.0,0.0,2.1408,0.0,0.0,0.0,0.0,2.0141,2.0095,1.9023,1.8583,1.8543,1.8338,1.8367,1.8545,1.8701,1.8928,0.0,0.0,0.0,2.0694,2.1371,2.25,2.3639,2.3966,2.5528,2.7333,2.8284,2.9286,3.0342,3.1415,3.2519,3.3407,3.3759,3.4124,3.4583,3.5351,3.6032,3.6473,3.6473,3.6726,3.698,3.7303,3.737,3.7489,3.7714,3.8025,3.824,3.824,3.8477,3.8651,3.8651,3.8691,3.8689,3.8689,3.8689,3.8689,3.8689,3.8662,3.8651,3.8651,3.8582,3.8582,3.8582,3.833,3.8065,3.7742,3.7448,3.7167,3.6913,3.6953,3.7127,3.741,3.745,3.7624,3.7861,3.7861,3.7889,3.7929,3.7929,3.7929,3.7929,0.0,0.0,0.0,0.0,0.0,0.0,0.0,0.0,0.0,0.0,0.0,1.7227,1.7835,1.8284,1.8706,1.9075,1.9659,2.0278,2.0916,2.1495,2.1966,2.2293,2.267,2.2989,2.3292,2.347,2.3728,2.4008,2.4008,2.4155,2.4412,2.4127,2.3791,0.0,0.0,0.0,0.0,0.0,0.0,0.0,0.0,2.1118,2.0578,2.026,1.9854,1.9424,1.9332,0.0,1.9448,1.9524,1.9688,1.9986,2.065,0.0,0.0,0.0,2.3609,2.4671,2.5748,2.7086,2.8356,2.9127,3.0325,3.1484,3.2182,3.317,3.4028,3.4332,3.4914,3.5457,3.5805,3.6219,3.654,3.6699,3.6805,3.702,3.7342,3.7529,3.7742,3.8036,3.833,3.8504,3.8504,3.8622,3.8689,3.8689,3.8689,3.8689,3.8689,3.8689,3.8689,3.8689,3.8689,3.8689,3.8689,3.8689,3.8689,3.8689,3.8584,3.8357,3.8076,3.7958,3.7635,3.7168,3.698,3.698,3.7128,3.7128,3.7301,3.7597,3.7597,3.7676,3.7781,3.7781,3.7781,3.7781,0.0,0.0,0.0,0.0,0.0,0.0,0.0,0.0,0.0,0.0,0.0,1.7902,1.8722,0.0,0.0,0.0,2.0488,2.1229,2.1885,2.2238,2.2479,2.2548,2.3116,2.3456,2.3536,2.3768,2.4022,2.4297,2.4396,2.4543,2.4738,2.505,2.4908,0.0,2.4224,0.0,0.0,0.0,0.0,0.0,0.0,2.2116,2.1291,2.144,2.0999,2.0323,2.02,0.0,0.0,0.0,0.0,0.0,0.0,2.2121,0.0,0.0,0.0,2.5901,2.7475,2.8416,2.9175,3.0089,3.1252,3.2361,3.2969,3.3721,3.4403,3.4829,3.5538,3.6099,3.6099,3.6366,3.6659,3.6873,3.6913,3.7032,3.7448,3.7676,3.7956,3.8359,3.8584,3.8689,3.8689,3.8689,3.8689,3.8689,3.8689,3.8689,3.8689,3.8689,3.8689,3.8689,3.8689,3.8689,3.8689,3.8689,3.8689,3.8689,3.8689,3.8582,3.8399,3.8319,3.8067,3.7595,3.7195,3.698,3.6913,3.6913,3.706,3.7275,3.7275,3.738,3.7567,3.7567,3.7567,3.7567,0.0,0.0,0.0,0.0,0.0,0.0,0.0,0.0,0.0,0.0,0.0,1.9299,1.9349,1.9945,2.0339,2.0356,2.0986,2.1637,2.2229,2.2588,2.292,2.323,2.3594,0.0,2.4155,2.4168,2.4311,2.4572,2.489,2.5056,2.5082,2.5358,2.5459,2.5407,2.5019,2.4828,2.4764,0.0,0.0,0.0,0.0,0.0,2.3073,2.2276,0.0,0.0,0.0,0.0,0.0,0.0,0.0,0.0,0.0,0.0,2.3865,0.0,0.0,0.0,2.8636,2.9315,3.0065,3.138,3.1948,3.2565,3.3915,3.427,3.4482,3.5057,3.5685,3.6099,3.6099,3.654,3.6885,3.6913,3.6913,3.7128,3.7702,3.7781,3.8036,3.8611,3.8689,3.8689,3.8689,3.8689,3.8689,3.8689,3.8689,3.8689,3.8689,3.8689,3.8689,3.8689,3.8689,3.8689,3.8689,3.8689,3.8689,3.8689,3.8689,3.8689,3.8662,3.8426,3.8279,3.8212,3.7624,3.7195,3.6913,3.6913,3.6913,3.6912,3.6912,3.6912,3.6953,3.6953,3.6953,3.6953,0.0,0.0,0.0,0.0,0.0,0.0,0.0,0.0,0.0,0.0,0.0,0.0,0.0,0.0,0.0,2.1032,2.1624,2.225,2.2897,2.3051,2.3267,2.3607,2.3888,2.4102,2.4195,2.4569,2.481,2.4917,2.5211,2.5358,2.5371,2.5684,2.5911,2.6066,2.5743,2.5575,2.5472,2.5359,0.0,0.0,0.0,0.0,0.0,0.0,0.0,0.0,0.0,0.0,0.0,0.0,0.0,0.0,0.0,0.0,0.0,2.6655,2.7734,2.8698,2.9723,3.0535,3.1233,3.1898,3.2519,3.319,3.4111,3.4296,3.4457,3.507,3.5685,3.6099,3.6099,3.654,3.6913,3.6913,3.6913,3.7099,3.7714,3.7781,3.8036,3.8622,3.8689,3.8689,3.8689,3.8689,3.8689,3.8689,3.8689,3.8689,3.8689,3.8689,3.8689,3.8689,3.8689,3.8689,3.8689,3.8689,3.8689,3.8689,3.8689,3.8689,3.8689,3.8582,3.8466,3.8292,3.8065,3.7704,3.7195,3.698,3.6913,3.6913,3.6913,3.6913,3.6913,3.6913,3.6913,3.6913,0.0,0.0,0.0,0.0,0.0,0.0,0.0,0.0,0.0,0.0,0.0,0.0,0.0,0.0,0.0,2.2026,2.2401,2.2862,2.3443,2.355,2.3714,2.3919,2.4307,2.4502,2.4502,2.497,2.5224,2.5224,2.5537,2.5665,2.5678,2.6085,2.6366,2.6533,2.6479,2.6387,0.0,0.0,0.0,2.6007,0.0,0.0,2.4769,0.0,0.0,0.0,0.0,0.0,0.0,0.0,0.0,0.0,0.0,0.0,0.0,0.0,2.8934,2.9582,3.0577,3.1299,3.1916,3.2363,3.2951,3.3574,3.415,3.4296,3.4457,3.507,3.5591,3.5979,3.6086,3.6473,3.6806,3.6885,3.6913,3.7087,3.7595,3.7742,3.7996,3.8504,3.8651,3.8689,3.8689,3.8689,3.8689,3.8689,3.8689,3.8689,3.8689,3.8689,3.8689,3.8689,3.8689,3.8689,3.8689,3.8689,3.8689,3.8689,3.8689,3.8689,3.8689,3.8689,3.8582,3.8426,3.8348,3.7958,3.7382,3.7155,3.698,3.6913,3.6913,3.6913,3.6913,3.6913,3.6913,3.6913,0.0,0.0,0.0,0.0,0.0,0.0,0.0,0.0,0.0,0.0,0.0,0.0,0.0,0.0,0.0,2.3261,2.3305,2.3474,2.3785,2.4062,2.4222,2.4235,2.4802,2.5109,2.5109,2.5371,2.5512,2.5512,2.5858,2.6024,2.6038,2.656,2.682,2.6847,2.7181,2.7336,2.7308,0.0,2.6986,2.7436,0.0,2.6235,2.6252,0.0,0.0,0.0,2.4928,2.4928,0.0,0.0,0.0,0.0,0.0,0.0,0.0,0.0,0.0,3.03,0.0,0.0,0.0,3.2821,3.32,3.3574,3.415,3.4296,3.4457,3.507,3.5405,3.5698,3.6046,3.6313,3.6579,3.6873,3.6913,3.702,3.7342,3.7635,3.7929,3.8252,3.8504,3.8689,3.8689,3.8689,3.8689,3.8689,3.8689,3.8689,3.8689,3.8689,3.8689,3.8689,3.8689,3.8689,3.8689,3.8689,3.8689,3.8689,3.8689,3.8689,3.8689,3.8689,3.8689,3.8689,3.8426,3.7986,3.7422,3.741,3.7195,3.6913,3.6913,3.6913,3.6913,3.6913,3.6913,3.6913,0.0,0.0,0.0,0.0,0.0,2.1225,2.1323,2.1415,2.1531,0.0,0.0,0.0,0.0,0.0,0.0,2.3665,2.3665,2.3768,2.4062,2.4337,2.4591,2.4842,2.5197,2.5398,2.5398,2.5697,2.5858,2.5858,2.6333,2.6587,2.6587,2.6994,2.7275,2.7468,2.7804,2.8072,2.8217,2.7885,0.0,0.0,2.7883,2.7386,0.0,0.0,0.0,0.0,0.0,2.5543,0.0,0.0,2.6006,2.6512,0.0,0.0,0.0,0.0,0.0,0.0,3.2005,0.0,0.0,0.0,0.0,0.0,3.415,3.4296,3.4457,3.507,3.5405,3.5698,3.6046,3.6313,3.6579,3.6873,3.6913,3.702,3.7342,3.7448,3.7624,3.7889,3.8223,3.8397,3.8397,3.8584,3.8689,3.8689,3.8689,3.8689,3.8689,3.8689,3.8689,3.8689,3.8689,3.8689,3.8689,3.8689,3.8689,3.8689,3.8689,3.8689,3.8689,3.8689,3.8689,3.8689,3.8624,3.8399,3.8026,3.7597,3.7195,3.6913,3.6913,3.6913,3.6913,3.6913,3.6913,3.6913,0.0,0.0,2.1505,2.2038,2.212,2.212,2.212,2.2273,2.2391,0.0,0.0,0.0,0.0,0.0,0.0,0.0,2.4128,2.4315,2.473,2.4885,2.5058,2.5251,2.5545,2.5758,2.5879,2.6192,2.6393,2.6546,2.6861,2.7001,2.7014,2.7483,2.7764,2.7917,2.8345,2.8706,2.8965,2.8933,0.0,0.0,2.8649,0.0,0.0,2.7446,2.7084,0.0,0.0,0.0,2.6548,2.6689,2.7167,0.0,0.0,0.0,0.0,0.0,0.0,3.1785,0.0,3.2808,3.3078,3.3334,0.0,0.0,3.415,3.4296,3.4457,3.507,3.5324,3.5538,3.5832,3.6019,3.6246,3.6659,3.6726,3.6833,3.7155,3.7301,3.7448,3.7595,3.7889,3.8105,3.8105,3.8357,3.8544,3.8544,3.8651,3.8689,3.8689,3.8689,3.8689,3.8689,3.8689,3.8689,3.8689,3.8689,3.8689,3.8689,3.8689,3.8689,3.8689,3.8689,3.8689,3.8689,3.8689,3.8544,3.8252,3.7771,3.7382,3.7087,3.6953,3.6913,3.6913,3.6913,3.6913,3.6913,0.0,0.0,2.2395,2.2673,2.2742,2.2742,2.2742,2.3041,2.3268,0.0,0.0,0.0,0.0,0.0,0.0,0.0,2.4693,2.4938,2.5459,2.5552,2.5592,2.5592,2.5938,2.6265,2.648,2.6734,2.7001,2.7309,2.7336,2.7355,2.7416,0.0,0.0,0.0,2.8831,2.9237,2.9553,2.9847,0.0,2.9611,2.9197,2.9141,0.0,0.0,2.8089,0.0,2.7761,2.7757,2.7975,2.8011,0.0,0.0,0.0,0.0,0.0,0.0,3.1585,3.2251,3.2567,0.0,0.0,0.0,0.0,0.0,3.415,3.4296,3.4457,3.507,3.5191,3.5284,3.5551,3.5605,3.5778,3.6366,3.6473,3.6553,3.6873,3.7155,3.7342,3.7342,3.7595,3.7754,3.7754,3.8036,3.8252,3.8252,3.8504,3.8662,3.8662,3.8691,3.8689,3.8689,3.8689,3.8689,3.8689,3.8689,3.8689,3.8689,3.8689,3.8689,3.8689,3.8689,3.8689,3.8689,3.8689,3.8555,3.8319,3.7996,3.7676,3.737,3.702,3.6913,3.6913,3.6913,3.6913,3.6913,2.2932,2.2999,2.3119,2.3505,2.3572,2.3572,2.3572,2.3625,2.3679,2.3679,0.0,0.0,0.0,0.0,0.0,0.0,0.0,2.5365,2.5485,2.5959,2.6213,2.6213,2.674,2.7081,2.7115,2.7168,2.7222,2.7309,2.7516,2.7756,2.8018,2.8371,0.0,0.0,2.9232,2.9553,2.9824,3.0163,0.0,3.0541,3.045,0.0,2.9896,2.9712,2.9405,2.905,2.897,2.8949,2.9037,0.0,2.9586,2.998,0.0,0.0,0.0,0.0,0.0,0.0,0.0,0.0,0.0,0.0,0.0,0.0,3.415,3.4296,3.4457,3.507,3.5191,3.5284,3.5551,3.5605,3.5712,3.6126,3.618,3.634,3.6833,3.6953,3.698,3.698,3.7275,3.749,3.749,3.7742,3.7889,3.7889,3.8212,3.8399,3.8399,3.8584,3.8689,3.8689,3.8689,3.8689,3.8689,3.8689,3.8689,3.8689,3.8689,3.8689,3.8689,3.8689,3.8689,3.8689,3.8689,3.8662,3.8582,3.8319,3.7891,3.737,3.702,3.6913,3.6913,3.6913,3.6913,3.6913,2.3631,2.3694,2.3801,2.4146,2.4209,2.4249,2.4414,2.4441,2.4494,2.4641,2.4871,0.0,0.0,0.0,0.0,0.0,0.0,0.0,2.6393,2.6687,2.6847,2.6847,2.7148,2.7355,2.7502,2.767,2.7817,2.7957,2.823,2.8422,2.8625,2.8898,0.0,0.0,2.9749,3.0029,3.019,3.0608,3.0875,3.0996,3.0849,0.0,3.0412,3.0204,3.0018,2.9868,2.9598,2.9594,2.9782,3.0324,3.0588,0.0,0.0,3.1849,3.2016,0.0,3.2663,3.2998,0.0,0.0,0.0,3.3414,0.0,0.0,0.0,3.4296,3.4457,3.507,3.5191,3.5244,3.5391,3.5418,3.5511,3.5805,3.5845,3.6006,3.6433,3.662,3.6699,3.6699,3.6981,3.7155,3.7155,3.7422,3.7676,3.7781,3.7956,3.8103,3.8292,3.8426,3.8555,3.8689,3.8689,3.8689,3.8689,3.8689,3.8689,3.8689,3.8689,3.8689,3.8689,3.8689,3.8689,3.8689,3.8689,3.8689,3.8691,3.8397,3.8025,3.7569,3.7275,3.706,3.6913,3.6913,3.6913,3.6913,2.4249,2.4289,2.4382,2.4658,2.4698,2.4805,2.5136,2.5176,2.5251,2.5459,2.5558,2.5625,0.0,0.0,0.0,0.0,0.0,0.0,2.7269,2.7416,2.7469,2.7469,2.7569,2.7743,2.7949,2.8211,2.8465,2.8684,2.8881,2.9028,2.9103,2.9366,2.9561,2.9695,3.0176,3.0467,3.0578,3.1022,0.0,3.1266,0.0,3.1009,3.0946,3.0614,3.0621,3.075,3.0387,3.0412,3.0691,3.1333,0.0,3.1682,3.2381,3.2634,0.0,0.0,0.0,0.0,0.0,0.0,0.0,0.0,0.0,3.3654,0.0,0.0,0.0,3.5084,3.5191,3.5191,3.5191,3.5191,3.5271,3.5485,3.5525,3.5631,3.5899,3.6153,3.6353,3.6433,3.662,3.6766,3.6805,3.7128,3.7382,3.7607,3.7674,3.7849,3.8105,3.8172,3.833,3.8611,3.8624,3.8651,3.8689,3.8689,3.8689,3.8689,3.8689,3.8689,3.8689,3.8689,3.8689,3.8689,3.8689,3.8689,3.8691,3.8466,3.8143,3.7782,3.7489,3.7195,3.6913,3.6913,3.6913,3.6913,2.4618,2.4546,2.4658,2.5002,2.5042,2.5149,2.5424,2.5445,2.5478,2.5504,2.5764,2.6018,0.0,0.0,0.0,0.0,0.0,0.0,2.7309,0.0,2.8106,2.8106,2.8551,2.8815,2.8841,2.8903,2.8908,2.8948,2.8988,2.9157,2.9432,2.9495,2.9789,3.0306,3.0373,3.0671,3.1106,3.1173,3.1383,0.0,3.1864,3.1821,0.0,3.1803,3.1875,3.1942,3.2184,3.229,3.233,0.0,3.2443,3.2481,0.0,3.2768,0.0,0.0,0.0,0.0,0.0,0.0,0.0,0.0,3.3627,0.0,0.0,0.0,3.4829,3.5137,0.0,3.5191,3.5191,0.0,0.0,3.5244,3.5244,3.5257,3.5297,3.5525,3.5805,3.6113,3.618,3.6273,3.6513,3.6806,3.698,3.6992,3.7275,3.7448,3.7489,3.7744,3.7996,3.8348,3.8348,3.8466,3.8689,3.8689,3.8689,3.8689,3.8689,3.8689,3.8689,3.8689,3.8689,3.8689,3.8689,3.8689,3.8689,3.8662,3.833,3.7782,3.7489,3.7195,3.6913,3.6913,3.6913,3.6913,2.5152,2.5125,2.5165,2.5304,2.5331,2.5438,2.5738,2.6052,2.6246,2.6246,2.6553,2.68,0.0,0.0,0.0,0.0,0.0,0.0,0.0,0.0,2.8657,2.8657,2.8876,2.9001,2.9001,2.9183,2.9299,2.9299,2.9437,2.97,3.0016,3.0016,3.023,3.0644,3.0782,3.0996,3.1226,0.0,3.181,0.0,0.0,0.0,0.0,3.2342,3.2382,3.2396,3.2554,3.2594,3.2621,0.0,3.2824,0.0,0.0,0.0,0.0,0.0,0.0,0.0,0.0,0.0,0.0,0.0,0.0,0.0,0.0,0.0,3.4869,0.0,0.0,0.0,0.0,0.0,0.0,0.0,3.5191,0.0,3.5191,3.5297,3.5485,3.5778,3.5965,3.6153,3.6273,3.6513,3.6659,3.6659,3.6941,3.7195,3.7382,3.7517,3.7702,3.7996,3.8212,3.8359,3.8466,3.8624,3.8689,3.8689,3.8689,3.8689,3.8689,3.8689,3.8689,3.8689,3.8689,3.8689,3.8689,3.8689,3.8328,3.7781,3.7676,3.7342,3.6913,3.6913,3.6913,3.6913,2.5732,2.5606,2.5545,2.5625,2.5705,2.5879,2.6292,2.67,2.6947,2.6947,2.7155,0.0,2.7395,2.7496,0.0,0.0,0.0,2.8505,0.0,0.0,2.9143,0.0,2.921,0.0,0.0,2.9579,2.9749,2.9749,3.002,3.0274,3.0497,3.0497,3.0658,3.0915,3.1106,3.1293,3.1466,0.0,3.2144,3.2251,3.257,3.2755,3.2822,3.2741,3.2768,3.281,3.281,3.281,3.2837,3.3051,3.3118,0.0,3.3347,0.0,0.0,0.0,0.0,0.0,3.3414,0.0,0.0,0.0,0.0,0.0,0.0,0.0,0.0,0.0,0.0,0.0,0.0,0.0,0.0,0.0,0.0,3.5191,0.0,3.5191,0.0,3.5458,3.5765,3.5952,3.5952,3.6219,3.6393,3.6393,3.6647,3.6901,3.7128,3.7235,3.7382,3.7676,3.7918,3.8145,3.8292,3.8506,3.8622,3.8689,3.8689,3.8689,3.8689,3.8689,3.8689,3.8689,3.8689,3.8689,3.8689,3.8689,3.8328,3.7781,3.7781,3.742,3.6913,3.6913,3.6913,3.6913,2.6326,2.5905,2.5598,2.5931,2.6192,2.658,2.7175,2.7262,2.7275,2.7275,0.0,0.0,0.0,0.0,0.0,0.0,0.0,2.8975,2.8988,0.0,2.9495,0.0,0.0,0.0,0.0,0.0,3.0373,3.0373,3.0644,3.0768,3.0782,3.0782,3.0929,3.1186,3.1199,3.152,3.2078,3.2091,3.2289,3.2607,3.2877,3.3133,3.336,0.0,3.3146,3.3387,3.3387,0.0,0.0,3.3362,3.34,0.0,0.0,0.0,0.0,0.0,0.0,0.0,0.0,0.0,0.0,3.3801,0.0,0.0,0.0,0.0,3.5191,0.0,0.0,0.0,0.0,0.0,0.0,0.0,0.0,0.0,0.0,0.0,0.0,0.0,0.0,0.0,0.0,3.5912,3.6113,0.0,3.6353,3.6513,3.654,3.6766,3.706,3.741,3.7422,3.7704,3.8292,3.8321,3.8437,3.8689,3.8689,3.8689,3.8689,3.8689,3.8689,3.8689,3.8689,3.8689,3.8689,3.8689,3.8328,3.7781,3.7781,3.742,3.6913,3.6913,3.6913,3.6913,2.6988,2.6834,2.666,2.6547,2.6794,2.7061,2.7282,2.7449,2.7649,0.0,0.0,0.0,0.0,0.0,2.8778,0.0,0.0,2.9325,2.9325,2.9815,0.0,0.0,0.0,3.0501,0.0,0.0,3.0671,3.0671,3.0765,3.0889,3.1052,3.1052,3.1236,3.153,3.1717,3.1917,3.2131,3.2519,0.0,0.0,0.0,3.3641,3.3721,0.0,3.3641,3.3748,3.3948,3.4015,0.0,3.4015,3.4015,3.3949,3.3788,3.3721,3.3681,3.3467,3.3414,0.0,0.0,0.0,3.3748,3.3855,0.0,0.0,0.0,0.0,0.0,0.0,0.0,0.0,0.0,0.0,0.0,0.0,0.0,0.0,0.0,0.0,0.0,0.0,0.0,0.0,0.0,0.0,0.0,0.0,3.6046,0.0,3.6246,3.6473,3.6687,3.6794,3.7196,3.7489,3.7704,3.8105,3.8348,3.8426,3.8624,3.8689,3.8689,3.8689,3.8689,3.8689,3.8689,3.8689,3.8689,3.8504,3.8183,3.7782,3.7595,3.7275,3.6913,3.6913,3.6913,3.6913,2.7309,2.7389,2.7342,2.7028,2.7329,2.7657,2.7743,2.7989,0.0,0.0,2.8631,0.0,2.8975,0.0,2.9223,0.0,2.9619,2.9856,2.9962,3.0323,0.0,3.0537,3.0711,0.0,0.0,0.0,3.0942,3.0942,3.1049,3.1196,3.1383,3.149,3.1637,3.1861,3.2155,3.2318,3.2438,3.2837,3.3064,0.0,0.0,3.3948,0.0,0.0,3.4135,3.4068,0.0,3.4296,3.4296,3.4296,3.4296,3.4256,3.4095,3.4042,3.4002,3.3762,3.3709,3.3709,3.3709,3.3881,0.0,3.4201,3.4508,0.0,3.4923,0.0,0.0,0.0,0.0,0.0,0.0,0.0,0.0,0.0,0.0,0.0,0.0,0.0,0.0,0.0,0.0,0.0,0.0,0.0,0.0,0.0,0.0,0.0,0.0,3.6193,3.6393,3.65,3.6874,3.7196,3.741,3.7771,3.8093,3.8292,3.8477,3.8611,3.8689,3.8689,3.8689,3.8689,3.8689,3.8689,3.8691,3.8397,3.8105,3.7782,3.7489,3.7195,3.6913,3.6913,3.6913,3.6913,2.7355,2.7583,2.7682,2.7422,2.7857,2.8326,2.8577,0.0,2.9001,0.0,2.9041,2.9055,2.9081,2.9379,2.9659,2.9918,3.0243,0.0,3.0768,3.0808,0.0,0.0,3.0835,3.0835,3.0835,0.0,0.0,0.0,3.1567,3.1714,3.1727,3.2008,3.2118,3.2131,3.2463,3.2768,3.2998,3.3011,3.3173,3.3467,3.3801,3.4095,3.435,3.4604,3.4577,3.4337,3.4337,3.4337,3.4337,3.4337,3.4337,3.4337,3.4323,3.431,3.431,3.4296,3.4296,3.4296,3.4296,3.431,3.4402,3.4722,0.0,0.0,0.0,0.0,3.5191,0.0,0.0,0.0,0.0,0.0,0.0,0.0,0.0,0.0,0.0,0.0,0.0,0.0,0.0,0.0,0.0,0.0,0.0,0.0,0.0,0.0,0.0,3.5885,3.6206,3.6473,3.6473,3.6766,3.737,3.7382,3.7704,3.8252,3.8292,3.8426,3.8691,3.8689,3.8689,3.8689,3.8689,3.8689,3.8691,3.8399,3.8105,3.7782,3.7489,3.7167,3.6913,3.6913,3.6913,3.6913,2.8257,2.8476,2.8628,2.8583,2.8689,2.881,2.889,0.0,0.0,0.0,2.9664,2.9838,3.0301,3.0408,3.0488,3.0568,3.0658,0.0,0.0,0.0,0.0,3.1092,3.1353,3.1473,3.1473,3.154,0.0,3.158,0.0,3.1984,3.1998,3.2316,3.2474,3.2476,3.2757,3.2931,3.3011,3.3213,3.348,3.3814,3.4348,3.4615,3.4709,0.0,3.503,3.4977,3.4977,3.4977,3.4977,3.4977,3.4977,3.4937,3.4723,3.4669,3.4629,3.4363,3.4296,3.4296,3.4296,3.4482,3.4696,3.4776,3.495,3.5137,0.0,0.0,0.0,0.0,0.0,0.0,0.0,0.0,0.0,0.0,0.0,0.0,0.0,0.0,0.0,0.0,0.0,0.0,0.0,0.0,0.0,0.0,0.0,0.0,3.5311,3.5551,3.5885,3.6206,3.6393,3.6659,3.702,3.7275,3.749,3.7637,3.8093,3.8348,3.8397,3.8611,3.8689,3.8689,3.8689,3.8689,3.8662,3.8143,3.7889,3.7754,3.7233,3.698,3.6913,3.6913,3.6913,3.6913,2.877,2.901,2.925,2.9384,2.9504,2.9557,2.9424,0.0,0.0,3.0234,3.0301,0.0,3.0755,3.0795,3.0849,3.0969,3.0982,0.0,0.0,0.0,0.0,3.1573,3.177,3.1874,3.1874,3.2008,0.0,3.2099,0.0,3.2316,3.2329,3.2623,3.2781,3.2795,3.3064,3.3278,3.3425,3.3681,3.3988,3.4321,3.4655,3.4869,0.0,3.5137,3.5191,3.5191,3.5191,3.5191,3.5191,3.5191,3.5191,3.5164,3.503,3.4976,3.495,3.475,3.4696,3.4696,3.4696,3.483,3.4976,3.4976,3.5084,3.5191,3.5191,3.5191,3.5191,0.0,0.0,0.0,0.0,0.0,0.0,0.0,0.0,0.0,0.0,0.0,0.0,0.0,0.0,0.0,0.0,0.0,0.0,0.0,0.0,0.0,0.0,3.5351,3.5578,3.5872,3.6166,3.6446,3.6726,3.702,3.7233,3.741,3.7849,3.8143,3.8321,3.8584,3.8689,3.8689,3.8689,3.8689,3.8662,3.8034,3.7781,3.7742,3.7127,3.6913,3.6913,3.6913,3.6913,3.6913,2.917,2.9446,2.974,2.998,3.027,0.0,0.0,3.0297,0.0,3.0808,0.0,3.0915,3.0955,3.0996,3.1129,3.1346,0.0,3.1623,3.2131,3.1941,3.1928,3.2144,3.2158,3.2158,3.2158,3.246,0.0,0.0,0.0,3.2648,3.2661,3.2971,3.3118,3.3131,3.34,3.3681,3.3961,3.4255,3.4523,3.4789,3.4829,3.5003,3.5204,3.5244,3.5257,3.5257,3.5297,3.5257,3.5191,3.5191,3.5191,3.5191,3.5191,3.5191,3.5191,3.5191,3.5191,3.5191,3.5191,3.5191,3.5191,3.5191,3.5191,3.5191,3.5191,3.5191,3.5191,3.5191,3.5191,3.5191,0.0,0.0,0.0,0.0,0.0,0.0,0.0,0.0,0.0,0.0,0.0,0.0,0.0,0.0,0.0,0.0,0.0,0.0,0.0,0.0,3.5324,3.5591,3.5912,3.6246,3.65,3.6766,3.706,3.7342,3.7634,3.7956,3.8252,3.8555,3.8689,3.8689,3.8689,3.8689,3.8662,3.8103,3.7823,3.7674,3.7127,3.6913,3.6913,3.6913,3.6913,3.6913,3.0056,3.039,3.0581,3.0635,3.0688,3.0782,3.0946,3.0835,3.0822,3.1092,3.137,3.1634,3.1851,3.2115,3.2313,3.2353,3.2342,0.0,0.0,0.0,0.0,3.2514,3.2514,3.2514,3.2514,3.2567,3.2594,0.0,0.0,3.2931,3.2944,3.3492,3.3746,3.3748,3.4028,3.4163,3.4269,3.4589,3.4736,3.4816,3.5043,3.5151,3.5217,3.5431,3.5525,3.5565,3.5832,3.5605,3.5191,3.5191,3.5191,3.5191,3.5191,3.5191,3.5191,3.5191,3.5191,3.5191,3.5191,3.5191,3.5191,3.5191,3.5191,3.5191,3.5191,3.5191,3.5191,3.5191,3.5191,3.5191,3.5191,0.0,0.0,0.0,0.0,0.0,0.0,0.0,0.0,0.0,0.0,0.0,0.0,0.0,0.0,0.0,0.0,0.0,0.0,0.0,3.5324,0.0,3.5912,3.6246,0.0,0.0,3.6912,3.698,3.7527,3.7821,3.7929,3.8435,3.8689,3.8689,3.8689,3.8689,3.8662,3.8359,3.7918,3.7422,3.706,3.6913,3.6913,3.6913,3.6913,3.6913,3.0551,3.0725,0.0,0.0,0.0,0.0,0.0,3.169,0.0,3.1653,3.1968,3.2219,3.2342,3.2514,3.2594,3.2594,3.2594,3.2661,3.2808,3.2674,3.2661,3.2808,3.2822,0.0,3.2822,0.0,3.3011,3.3011,0.0,3.3305,3.3479,3.3748,3.3961,3.4122,3.4416,3.4549,3.4576,3.4883,3.5016,3.503,3.5137,3.5284,3.5405,3.5551,3.5698,3.5872,3.6046,3.5912,3.5672,3.5672,3.5672,3.5672,3.5672,3.5551,3.5418,3.5418,3.5311,3.5191,3.5191,3.5191,3.5191,3.5191,3.5191,3.5231,3.5391,3.5311,3.5244,3.5391,3.5297,3.5191,3.5191,3.5191,0.0,0.0,0.0,0.0,0.0,0.0,0.0,0.0,0.0,0.0,0.0,0.0,0.0,0.0,0.0,0.0,0.0,3.5191,3.5324,0.0,0.0,0.0,3.65,0.0,3.6913,3.6913,3.7529,3.7781,3.7821,3.8437,3.8689,3.8689,3.8689,3.8689,3.8662,3.8223,3.7782,3.737,3.702,3.6913,3.6913,3.6913,3.6913,3.6913,3.0889,3.0982,0.0,0.0,3.1664,0.0,3.2158,3.2476,3.2581,3.2262,3.2476,3.2688,3.2688,3.2808,3.2888,3.2888,3.2942,3.3051,3.3278,3.3078,3.3024,3.3185,3.3198,3.3158,3.3091,3.336,3.3507,0.0,0.0,0.0,3.3975,3.4067,3.4229,3.4497,3.4776,3.4883,3.4896,3.5097,3.5191,3.5204,3.5271,3.5391,3.5618,3.5738,3.5965,3.6206,3.626,3.6259,3.6259,3.6259,3.6206,3.6099,3.6099,3.5912,3.5698,3.5698,3.5565,3.5378,3.5378,3.5378,3.5378,3.5378,3.5378,3.5444,3.5672,3.5538,3.5444,3.5645,3.5498,3.5284,3.5284,3.5244,0.0,0.0,0.0,0.0,0.0,0.0,0.0,0.0,0.0,0.0,0.0,0.0,0.0,0.0,0.0,0.0,3.5191,3.5191,0.0,0.0,0.0,3.6246,3.65,0.0,3.6913,3.6913,3.7529,3.7781,3.7821,3.8437,3.8689,3.8689,3.8689,3.8689,3.8662,3.8143,3.7742,3.7448,3.7127,3.6952,3.6913,3.6913,3.6913,3.6913,3.1159,3.1586,0.0,0.0,0.0,3.2527,3.2554,3.2795,3.2864,3.2594,3.2784,3.2957,3.2957,3.3452,3.3786,3.3786,3.4002,3.4136,3.4163,3.4136,3.4042,3.384,3.3826,3.3668,3.3374,3.3681,3.3841,0.0,0.0,3.423,3.4256,3.4575,3.4856,3.511,3.5137,3.5151,3.5151,3.5191,3.5191,3.5217,3.5458,3.5578,3.5658,3.6219,3.6433,3.6473,3.6726,3.6833,3.6833,3.6833,3.65,3.6099,3.6099,3.6086,3.6059,3.6059,3.6033,3.6019,3.6019,3.6019,3.6019,3.6019,3.6019,3.6033,3.6046,3.6033,3.6033,3.6046,3.5792,3.5565,3.5565,3.5378,3.5191,0.0,0.0,0.0,0.0,0.0,0.0,0.0,0.0,0.0,0.0,0.0,0.0,0.0,3.5191,0.0,0.0,0.0,0.0,3.5591,3.5912,3.6246,3.65,3.6766,3.6913,3.6913,3.7529,3.7781,3.7821,3.8437,3.8689,3.8689,3.8689,3.8689,3.8691,3.8399,3.8065,3.7742,3.7448,3.7168,3.6913,3.6913,3.6913,3.6913,0.0,0.0,0.0,0.0,0.0,0.0,0.0,3.335,3.3751,3.3844,3.3666,3.3546,3.3546,3.3895,3.4148,3.4148,3.4255,3.4296,3.4296,3.4296,3.4243,3.4148,3.4148,3.4082,3.3936,3.4082,3.4148,0.0,0.0,0.0,3.4589,3.471,3.4884,3.5191,3.5191,3.5191,3.5191,3.5191,3.5297,3.5445,3.5551,3.5818,3.6179,3.6406,3.662,3.6739,3.6873,3.6913,3.6913,3.6913,3.6766,3.658,3.658,3.6473,3.6326,3.6326,3.6233,3.6099,3.6099,3.6099,3.6099,3.6099,3.6099,3.6153,3.6286,3.6233,3.6153,3.6299,3.6099,3.5899,3.5899,3.5658,3.5431,0.0,0.0,0.0,0.0,0.0,0.0,0.0,0.0,0.0,0.0,0.0,0.0,0.0,0.0,0.0,0.0,0.0,0.0,3.5885,3.6179,3.6473,3.6726,3.6846,3.6913,3.6913,3.7529,3.7781,3.7821,3.8437,3.8689,3.8689,3.8689,3.8689,3.8691,3.8397,3.8212,3.8036,3.7597,3.7315,3.7167,3.698,3.6913,3.6913,3.2683,0.0,3.3193,0.0,3.3399,3.3629,3.3724,3.4214,3.4697,3.5039,3.4808,3.4619,3.4524,3.4602,3.4675,3.4675,3.4614,3.455,3.455,3.455,3.4536,3.4456,3.4456,0.0,3.4296,3.4402,3.4456,3.4456,3.4536,0.0,3.4923,3.4857,3.4964,3.5191,3.5191,3.5191,3.5204,3.5284,3.5444,3.5618,3.5792,3.6112,3.6513,3.6579,3.6726,3.6913,3.702,3.706,3.706,3.7127,3.7167,3.7127,3.6953,3.6766,3.6619,3.6619,3.6473,3.6326,3.6326,3.6326,3.6326,3.6326,3.6326,3.638,3.658,3.6473,3.6393,3.658,3.6393,3.6233,3.6233,3.5965,3.5698,3.5618,0.0,0.0,0.0,0.0,0.0,0.0,0.0,0.0,0.0,0.0,0.0,0.0,0.0,0.0,0.0,0.0,0.0,0.0,0.0,0.0,3.6913,3.6913,3.6953,3.706,3.7555,3.7849,3.7956,3.8477,3.8689,3.8689,3.8689,3.8689,3.8689,3.8506,3.8359,3.8252,3.7839,3.7595,3.7489,3.7155,3.706,3.702,3.4087,3.4363,3.4573,3.4573,3.4801,3.5084,3.5417,3.5484,3.561,3.5944,3.6212,3.6271,3.5988,3.5739,3.5595,3.5595,3.5332,3.5191,3.5191,3.5191,3.5057,0.0,0.0,3.4642,3.4296,3.4603,3.4789,3.4789,0.0,0.0,3.5191,3.5191,3.5191,3.5191,3.5191,3.5191,3.5217,3.5471,3.5605,3.5658,3.6259,3.6473,3.654,3.6806,3.6913,3.6953,3.7275,3.7382,3.7422,3.7702,3.7781,3.7674,3.7087,3.6913,3.6913,3.6913,3.6885,3.6885,3.6885,3.6885,3.6885,3.6885,3.6885,3.6885,3.6885,3.6885,3.6885,3.6885,3.6687,3.65,3.65,3.6287,3.6006,3.5645,0.0,0.0,0.0,0.0,0.0,0.0,0.0,3.5191,3.5191,0.0,0.0,0.0,0.0,0.0,0.0,0.0,0.0,3.6086,3.6353,0.0,3.6913,3.6913,3.706,3.741,3.7676,3.7969,3.8292,3.8584,3.8689,3.8689,3.8689,3.8689,3.8689,3.8689,3.8544,3.8292,3.8292,3.8105,3.7754,3.7489,3.7382,3.7342,3.4433,3.4671,3.4857,3.4857,3.5123,3.5386,3.5484,3.6009,3.6518,3.6831,3.7268,3.7615,3.7705,3.6975,3.6484,0.0,3.641,3.6361,0.0,3.598,3.5703,3.5608,3.5267,3.5017,3.4923,3.5017,3.5057,3.5057,0.0,0.0,3.5191,3.5191,3.5191,3.5191,3.5191,3.5311,3.5471,3.5565,3.5832,3.6246,3.6433,3.662,3.6806,3.7128,3.7235,3.7275,3.7569,3.7676,3.7674,3.7782,3.7781,3.7782,3.7567,3.7529,3.7529,3.7529,3.7529,3.7529,3.7529,3.7529,3.7529,3.7529,3.7529,3.7529,3.7529,3.7382,3.7235,3.7235,3.698,3.6766,3.6766,3.6553,3.634,3.6246,3.5858,0.0,0.0,0.0,0.0,0.0,0.0,3.5191,0.0,3.5191,0.0,0.0,0.0,0.0,0.0,0.0,0.0,0.0,3.6619,0.0,3.6913,3.6913,3.706,3.741,3.7676,3.8076,3.8584,3.8662,3.8689,3.8689,3.8689,3.8689,3.8689,3.8689,3.8651,3.8544,3.8359,3.824,3.8105,3.7782,3.7555,3.7382,3.5347,3.5589,3.5792,3.5792,3.6073,3.633,3.6469,3.6935,3.7384,3.7702,3.8146,3.85,3.8678,3.8192,0.0,3.7409,3.7297,3.7235,3.7235,3.6891,3.6587,3.6348,3.603,3.5737,3.5551,3.5551,3.5471,3.5364,3.5244,3.5191,3.5204,3.5311,3.5364,3.5364,3.5471,3.5631,3.5805,3.5912,3.6166,3.6513,3.662,3.6834,3.7128,3.7315,3.7448,3.7595,3.7889,3.7996,3.7996,3.8103,3.8143,3.8143,3.8143,3.8143,3.8075,3.7861,3.7781,3.7781,3.7781,3.7781,3.7781,3.7781,3.7781,3.7781,3.7781,3.7676,3.7555,3.7555,3.7301,3.7087,3.7087,3.6846,3.6619,3.6513,3.6165,3.5858,3.5631,0.0,0.0,0.0,0.0,0.0,0.0,3.5191,0.0,0.0,0.0,0.0,0.0,0.0,0.0,3.6473,3.6766,0.0,3.6913,3.702,3.7233,3.7555,3.7956,3.8328,3.8689,3.8689,3.8689,3.8689,3.8689,3.8689,3.8689,3.8689,3.8689,3.8691,3.8504,3.8437,3.8397,3.8103,3.7891,3.7704,3.6641,3.6905,3.7124,3.7124,3.7427,3.7735,3.8042,3.8115,3.8233,3.8503,3.881,3.9,3.9029,3.9322,3.9208,3.84,3.8083,3.7917,3.7917,3.789,3.7621,3.7044,3.6936,3.6666,3.618,3.6126,3.5939,3.5631,3.5391,3.5257,3.5257,3.5538,3.5631,3.5645,3.5952,3.6113,3.6153,3.6393,3.6513,3.658,3.6833,3.7127,3.7422,3.745,3.7624,3.7889,3.8212,3.8319,3.8359,3.8624,3.8689,3.8689,3.8689,3.8689,3.8582,3.8036,3.7861,3.7861,3.7861,3.7861,3.7861,3.7861,3.7861,3.7861,3.7861,3.7849,3.7821,3.7821,3.7624,3.7422,3.741,3.7155,3.6846,3.658,3.6513,3.6286,3.5738,0.0,0.0,0.0,0.0,0.0,0.0,3.5257,3.5364,0.0,0.0,0.0,0.0,0.0,3.654,3.654,3.6766,3.6913,3.6912,3.7235,3.7557,3.7849,3.8437,3.8689,3.8689,3.8689,3.8689,3.8689,3.8689,3.8689,3.8689,3.8689,3.8689,3.8689,3.8689,3.8689,3.8662,3.8426,3.8319,3.8212,3.6978,3.7266,3.7486,3.7486,3.7764,3.7998,3.8072,3.8265,3.8517,3.8839,3.8956,3.9088,3.9336,3.9685,3.9792,3.9585,3.9291,3.9109,3.9109,3.8708,3.8426,3.8279,3.7393,3.6855,3.6788,3.6342,3.6073,3.5965,3.5926,3.5885,3.5899,3.5939,3.5965,3.5992,3.6073,3.622,3.6393,3.6473,3.6767,3.7196,3.7263,3.7448,3.7742,3.7998,3.8145,3.8212,3.8504,3.8611,3.8624,3.8691,3.8689,3.8689,3.8689,3.8689,3.8662,3.8544,3.8475,3.8475,3.8475,3.8475,3.8475,3.8475,3.8475,3.8475,3.8475,3.833,3.8172,3.8172,3.7929,3.7635,3.745,3.7343,3.7167,3.6874,3.6619,3.6446,3.6313,3.6112,3.5966,0.0,3.5885,3.5885,3.5885,3.5885,3.5926,0.0,0.0,3.6353,3.6473,3.6699,3.6806,3.6806,3.6873,3.702,3.7275,3.737,3.7664,3.8172,3.8544,3.8689,3.8689,3.8689,3.8689,3.8689,3.8689,3.8689,3.8689,3.8689,3.8689,3.8689,3.8689,3.8689,3.8689,3.8622,3.8477,3.8281,3.7339,3.7603,3.7823,3.7823,3.8086,3.8324,3.8485,3.862,3.8854,3.9175,3.9351,3.9538,3.9714,4.0021,4.0226,4.0226,4.0065,3.9963,3.9963,3.9678,3.9408,3.9138,3.8488,3.789,3.7373,3.7046,3.6679,3.6273,3.6166,3.6099,3.6099,3.6233,3.6273,3.63,3.6393,3.662,3.6901,3.6901,3.7168,3.7597,3.7597,3.7771,3.8036,3.824,3.8388,3.8504,3.8651,3.8689,3.8689,3.8689,3.8689,3.8689,3.8689,3.8689,3.8689,3.8689,3.8689,3.8689,3.8689,3.8689,3.8689,3.8689,3.8689,3.8689,3.8689,3.8584,3.8477,3.8477,3.8252,3.7998,3.7851,3.7704,3.7489,3.7167,3.7021,3.6821,3.654,3.6366,3.6246,3.6113,3.6099,3.6099,3.6099,3.6099,3.6153,3.6259,3.6433,0.0,3.6687,3.6805,3.6913,3.6913,3.706,3.7235,3.741,3.7664,3.8038,3.8477,3.8622,3.8689,3.8689,3.8689,3.8689,3.8689,3.8689,3.8689,3.8689,3.8689,3.8689,3.8689,3.8689,3.8689,3.8689,3.8689,3.8611,3.8466,3.7676,3.794,3.8159,3.8159,3.8397,3.8678,3.8956,3.9044,3.919,3.9512,3.9831,4.0021,4.0065,4.0358,4.0563,4.0563,4.0607,4.0607,4.0517,4.0561,4.0344,3.9821,3.9769,3.9273,3.8225,3.7976,3.7454,3.6647,3.6353,3.6233,3.6233,3.6513,3.6647,3.6647,3.6913,3.7195,3.7448,3.7448,3.7624,3.7889,3.7889,3.8135,3.8489,3.8489,3.8706,3.8992,3.8992,3.8992,3.8992,3.8992,3.8992,3.8992,3.8992,3.8992,3.8992,3.8992,3.8992,3.895,3.876,3.8689,3.8689,3.8689,3.8689,3.8689,3.8689,3.8689,3.8689,3.8689,3.8504,3.8359,3.8321,3.8065,3.7782,3.7517,3.7422,3.7222,3.6727,3.6579,3.6473,3.626,3.6233,3.6233,3.6233,3.6233,3.6313,3.654,3.6553,3.6659,3.6885,3.6953,3.698,3.698,3.7263,3.745,3.7529,3.8065,3.8477,3.8689,3.8689,3.8689,3.8689,3.8689,3.8689,3.8689,3.8689,3.8689,3.8689,3.8689,3.8689,3.8689,3.8689,3.8689,3.8689,3.8689,3.8689,3.8662,3.8013,3.8251,3.8444,3.8444,3.8707,3.8941,3.8985,3.9234,3.9553,3.9875,3.9963,4.0109,4.0387,4.0722,4.0912,4.0912,4.1133,4.1034,4.0519,4.0766,4.0885,4.0803,4.0579,4.0345,4.0163,3.889,3.7901,3.7263,3.6941,3.6766,3.6766,3.7128,3.7263,3.7275,3.7527,3.7674,3.7742,3.7742,3.7929,3.8212,3.8212,3.8686,3.9403,3.9403,3.9792,4.031,4.031,4.031,4.031,4.031,4.031,4.031,4.031,4.031,4.031,4.031,4.031,4.0079,3.8992,3.8689,3.8689,3.8689,3.8689,3.8689,3.8689,3.8689,3.8689,3.8689,3.8662,3.8584,3.8348,3.8252,3.8103,3.7782,3.7557,3.737,3.7275,3.7021,3.6805,3.6766,3.6766,3.6766,3.6766,3.6766,3.6806,3.6833,3.6833,3.6873,3.6913,3.7168,3.7315,3.7315,3.737,3.7635,3.8174,3.8477,3.8662,3.8689,3.8689,3.8689,3.8689,3.8689,3.8689,3.8689,3.8689,3.8689,3.8689,3.8689,3.8689,3.8689,3.8689,3.8689,3.8689,3.8689,3.8689,3.8689,3.8851,3.8968,3.9029,3.9029,3.9161,3.9322,3.9497,3.9685,3.989,4.0212,4.0429,4.059,4.0751,4.1046,4.1207,4.1207,4.134,4.1268,4.1002,4.1133,4.1207,4.1207,4.1088,4.0909,4.06,3.928,3.8424,3.8143,3.7644,3.738,3.738,3.7527,3.7624,3.7635,3.7742,3.7889,3.8093,3.842,3.8725,3.9023,3.9383,3.9768,4.0151,4.0151,4.0339,4.0598,4.0598,4.0598,4.0598,4.0598,4.0598,4.0598,4.0598,4.0681,4.0836,4.0836,4.0604,4.0212,3.96,3.9326,3.9169,3.9169,3.9169,3.9169,3.9169,3.9169,3.9129,3.8942,3.8916,3.8836,3.8555,3.8504,3.8426,3.8103,3.7958,3.7811,3.7635,3.7354,3.7168,3.7168,3.702,3.6913,3.6913,3.6913,3.6913,3.6913,3.706,3.7168,3.7168,3.7448,3.7704,3.7891,3.7891,3.8105,3.8504,3.8651,3.8689,3.8689,3.8689,3.8689,3.8689,3.8689,3.8689,3.8689,3.8689,3.8689,3.8689,3.8689,3.8689,3.8689,3.8689,3.8689,3.8689,3.8689,3.8689,3.8689,3.9509,3.9509,3.9509,3.9509,3.9568,3.9714,3.9963,4.0124,4.0314,4.0563,4.0885,4.109,4.109,4.134,4.1516,4.1516,4.1588,4.1618,4.1618,4.1618,4.1589,4.1516,4.1588,4.1364,4.083,3.9827,3.9163,3.8879,3.8331,3.7949,3.7781,3.7889,3.7986,3.8115,3.8182,3.8457,3.8874,3.9331,3.9628,3.9891,4.0381,4.067,4.0799,4.0799,4.09,4.1015,4.1015,4.1015,4.1015,4.1015,4.1072,4.1143,4.1143,4.134,4.1567,4.1567,4.1185,4.0699,4.0485,4.0238,4.0001,3.9866,3.9837,3.9794,3.9629,3.9599,3.9533,3.9276,3.9169,3.902,3.8836,3.8729,3.8622,3.8426,3.8348,3.8212,3.7956,3.7676,3.7489,3.7489,3.7275,3.7099,3.7099,3.7099,3.7099,3.7099,3.7342,3.7489,3.7489,3.7771,3.8076,3.8399,3.8399,3.8506,3.8689,3.8689,3.8689,3.8689,3.8689,3.8689,3.8689,3.8689,3.8689,3.8689,3.8689,3.8689,3.8689,3.8689,3.8689,3.8689,3.8689,3.8689,3.8689,3.8689,3.8689,3.8689,3.9509,3.9509,3.9509,3.9509,3.9758,3.9977,3.9992,4.0519,4.0955,4.0956,4.1207,4.1384,4.1384,4.1661,4.185,4.185,4.2143,4.2333,4.2333,4.2333,4.2187,4.1866,4.2172,4.2047,4.146,4.1031,4.0292,3.9181,3.8878,3.8417,3.7809,3.8103,3.8567,3.9122,3.9353,3.9822,4.044,4.047,4.0497,4.054,4.0569,4.0929,4.1446,4.1446,4.1776,4.2263,4.2263,4.2263,4.2263,4.2263,4.2481,4.273,4.273,4.2963,4.3211,4.3211,4.2989,4.2511,4.1624,4.1391,4.1228,4.0666,4.0534,4.037,3.9734,3.9599,3.9599,3.9559,3.9316,3.91,3.906,3.8876,3.8689,3.8662,3.8466,3.8292,3.8281,3.7998,3.7782,3.7782,3.7754,3.7742,3.7742,3.7742,3.7742,3.7742,3.7754,3.7782,3.7782,3.8076,3.8399,3.8662,3.8662,3.8691,3.8689,3.8689,3.8689,3.8689,3.8689,3.8689,3.8689,3.8689,3.8689,3.8689,3.8689,3.8689,3.8689,3.8689,3.8689,3.8689,3.8689,3.8689,3.8689,3.8689,3.8689,3.8689,4.0109,4.0109,4.0182,4.0387,4.0546,4.068,4.0857,4.1063,4.1251,4.1251,4.1529,4.1705,4.1705,4.2011,4.2216,4.2216,4.2333,4.2421,4.2421,4.2421,4.2348,4.2216,4.2333,4.2277,4.2062,4.1589,4.1088,4.0644,4.0132,3.9776,3.9547,3.9671,3.9841,4.0057,4.0168,4.0367,4.0627,4.1,4.1159,4.1187,4.1575,4.1862,4.2063,4.2063,4.2192,4.2421,4.2421,4.2538,4.2699,4.2699,4.2933,4.3211,4.3211,4.3431,4.368,4.3914,4.3867,4.3672,4.3319,4.2679,4.1994,4.1769,4.1394,4.1021,4.0781,4.0418,4.011,3.9893,3.9743,3.954,3.9167,3.902,3.8886,3.8729,3.8611,3.8544,3.8544,3.829,3.8105,3.8105,3.7929,3.7781,3.7781,3.7781,3.7781,3.7781,3.7996,3.8105,3.8105,3.8399,3.8662,3.8942,3.8942,3.8876,3.8689,3.8689,3.8689,3.8689,3.8689,3.8689,3.8689,3.8689,3.8689,3.8689,3.8689,3.8689,3.8689,3.8689,3.8689,3.8689,3.8689,3.8689,3.8689,3.8689,3.8689,3.8689,4.1112,4.107,4.1089,4.1117,4.1133,4.1179,4.1384,4.1501,4.1572,4.1572,4.185,4.2055,4.2055,4.226,4.2421,4.2421,4.2421,4.245,4.2538,4.2655,4.2655,4.2553,4.2655,4.2699,4.2699,4.231,4.1992,4.179,4.1286,4.0911,4.0723,4.064,4.0698,4.0886,4.0886,4.0986,4.1187,4.1604,4.1776,4.1805,4.222,4.2421,4.2421,4.2421,4.2465,4.2553,4.2553,4.2772,4.3065,4.3065,4.327,4.3519,4.3519,4.3709,4.4001,4.4236,4.4294,4.4294,4.4294,4.3666,4.296,4.2749,4.2374,4.1936,4.1497,4.109,4.0673,4.0257,4.0077,3.986,3.946,3.9236,3.902,3.8876,3.8769,3.8689,3.8689,3.8544,3.8426,3.8426,3.8223,3.8075,3.8075,3.8075,3.8075,3.8075,3.829,3.8426,3.8426,3.8691,3.8916,3.91,3.9196,3.9169,3.8982,3.8982,3.8982,3.8982,3.8876,3.8836,3.8806,3.8729,3.8689,3.8689,3.8689,3.8689,3.8689,3.8689,3.8689,3.8689,3.8689,3.8689,3.8689,3.8689,3.8689,3.8689,4.2459,4.2306,4.2111,4.1511,4.1427,4.1427,4.1427,4.169,4.1894,4.1894,4.2216,4.2421,4.2421,4.2421,4.2421,4.2421,4.2421,4.2538,4.2875,4.3226,4.327,4.2904,4.3226,4.3387,4.3387,4.3387,4.308,4.242,4.2148,4.1657,4.1002,4.0752,4.0929,4.1518,4.1518,4.1833,4.2421,4.2421,4.2421,4.2421,4.2421,4.2421,4.2421,4.2421,4.2611,4.2904,4.2904,4.3138,4.3387,4.3387,4.3592,4.3796,4.3796,4.4045,4.4294,4.4294,4.4294,4.4294,4.4294,4.4294,4.4158,4.3575,4.3409,4.3064,4.1725,4.1423,4.1225,4.0636,4.0254,3.9997,3.9997,3.95,3.91,3.91,3.8876,3.8689,3.8689,3.8689,3.8689,3.8689,3.8689,3.8689,3.8689,3.8689,3.8689,3.8689,3.8689,3.8689,3.8689,3.8953,3.91,3.91,3.9423,3.9599,3.9599,3.9599,3.9599,3.9599,3.9276,3.91,3.91,3.8806,3.8689,3.8689,3.8689,3.8689,3.8689,3.8689,3.8689,3.8689,3.8689,3.8689,3.8689,3.8689,3.8689,3.8689,4.303,4.2987,4.3007,4.3013,4.3015,4.3105,4.3345,4.3083,4.2872,4.2872,4.2605,4.2421,4.2421,4.2421,4.2494,4.2743,4.2743,4.2904,4.3226,4.3519,4.3636,4.3548,4.346,4.3387,4.3387,4.3387,4.3285,4.3094,4.3007,4.2861,4.2686,4.2614,4.2672,4.2832,4.2832,4.2934,4.3109,4.3109,4.2977,4.2772,4.3021,4.2977,4.2787,4.3021,4.3153,4.3255,4.3255,4.3431,4.368,4.368,4.3884,4.4163,4.4163,4.4206,4.4294,4.4294,4.4294,4.4294,4.4294,4.4294,4.4249,4.4084,4.3709,4.3304,4.2898,4.2071,4.1362,4.1151,4.0704,4.0294,4.0037,3.985,3.9677,3.9493,3.9196,3.8982,3.8982,3.8806,3.8689,3.8689,3.8689,3.8689,3.8689,3.8689,3.8689,3.8689,3.8876,3.8982,3.8982,3.9276,3.953,3.9714,3.9823,4.0,4.0214,3.9813,3.9599,3.9599,3.949,3.9346,3.91,3.902,3.8876,3.8689,3.8689,3.8689,3.8689,3.8689,3.8689,3.8689,3.8689,3.8689,3.8689,3.8689,3.8689,3.8689,4.4057,4.4013,4.4006,4.3924,4.3898,4.3972,4.4158,4.3904,4.3648,4.3648,4.3254,4.2941,4.2941,4.2872,4.2889,4.3094,4.3197,4.3343,4.3548,4.3841,4.4001,4.4001,4.3841,4.3753,4.3753,4.3753,4.3753,4.3753,4.3621,4.3548,4.3548,4.346,4.3387,4.3387,4.3387,4.3387,4.3387,4.3387,4.327,4.3138,4.3314,4.327,4.3138,4.3314,4.346,4.3548,4.3548,4.3753,4.4001,4.4001,4.4133,4.4294,4.4294,4.4294,4.4294,4.4294,4.4294,4.4294,4.4294,4.4294,4.4294,4.4294,4.401,4.3679,4.3439,4.2583,4.1725,4.1453,4.0922,4.0441,4.0254,4.0077,3.996,3.9783,3.949,3.9316,3.9316,3.902,3.8876,3.8876,3.8769,3.8689,3.8689,3.8689,3.8729,3.8846,3.9129,3.9316,3.9316,3.9599,3.9823,3.9997,4.0147,4.0294,4.0512,4.0137,3.9963,3.9963,3.9813,3.9637,3.9463,3.9207,3.9022,3.8846,3.8758,3.8689,3.8689,3.8689,3.8689,3.8689,3.8689,3.8689,3.8689,3.8689,3.8689,3.8689,4.5545,4.5416,4.5189,4.4636,4.4507,4.4479,4.4479,4.4409,4.438,4.438,4.4109,4.3916,4.3858,4.3619,4.346,4.3431,4.368,4.384,4.384,4.4133,4.4294,4.4294,4.4294,4.4294,4.4294,4.4294,4.4294,4.4294,4.4001,4.384,4.384,4.3592,4.3475,4.3475,4.3475,4.3475,4.3475,4.3475,4.346,4.3431,4.346,4.346,4.3431,4.346,4.3636,4.384,4.384,4.4045,4.4294,4.4294,4.4294,4.4294,4.4294,4.4294,4.4294,4.4294,4.4294,4.4294,4.4294,4.4294,4.4294,4.4294,4.4294,4.4158,4.3605,4.296,4.2314,4.1634,4.0983,4.0572,4.0512,4.0254,4.0037,4.0037,3.9813,3.964,3.964,3.9343,3.914,3.914,3.8913,3.8769,3.8769,3.8769,3.8876,3.9127,3.9463,3.964,3.964,3.989,4.0037,4.0037,4.0334,4.0512,4.0512,4.0512,4.0512,4.0512,4.0184,4.0037,3.9967,3.942,3.9169,3.91,3.8836,3.8729,3.8689,3.8689,3.8689,3.8689,3.8689,3.8689,3.8689,3.8689,3.8689,3.8689,4.8158,4.7726,4.7325,4.7198,4.6794,4.6481,4.6481,4.6049,4.5761,4.5761,4.5303,4.4754,4.426,4.413,4.4002,4.3753,4.4001,4.4192,4.4192,4.425,4.4294,4.4294,4.4294,4.4294,4.4294,4.4294,4.4294,4.4294,4.4236,4.4192,4.4192,4.4133,4.4089,4.4089,4.4089,4.4089,4.4089,4.4089,4.3958,4.3753,4.4002,4.3958,4.3753,4.4002,4.4133,4.4192,4.4192,4.425,4.4294,4.4294,4.4294,4.4294,4.4294,4.4294,4.4294,4.4294,4.4294,4.4294,4.4294,4.4294,4.4294,4.4294,4.4294,4.4279,4.4114,4.3635,4.299,4.2314,4.1664,4.1057,4.0572,4.0441,4.0391,4.0391,4.0117,3.989,3.989,3.9666,3.9493,3.9493,3.9452,3.9383,3.9383,3.9383,3.9423,3.9493,3.9743,3.989,3.989,4.0214,4.0391,4.0391,4.0471,4.0512,4.0512,4.0512,4.0512,4.0512,4.0431,4.0254,3.9997,3.9863,3.957,3.91,3.902,3.8886,3.8689,3.8689,3.8689,3.8689,3.8689,3.8689,3.8689,3.8689,3.8689,3.8689,4.8988,4.8714,4.8485,4.8485,4.8227,4.7899,4.7595,4.7262,4.6961,4.6672,4.6234,4.5832,4.5497,4.5282,4.5022,4.455,4.437,4.4294,4.4294,4.4294,4.4294,4.4294,4.4294,4.4294,4.4294,4.4294,4.4294,4.4294,4.4294,4.4294,4.4294,4.4294,4.4294,4.4294,4.4294,4.4294,4.4294,4.4294,4.4206,4.4045,4.4236,4.4192,4.4045,4.4236,4.4294,4.4294,4.4294,4.4294,4.4294,4.4294,4.4294,4.4294,4.4294,4.4294,4.4294,4.4294,4.4294,4.4294,4.4294,4.4294,4.4294,4.4294,4.4294,4.4294,4.4294,4.3844,4.3199,4.2553,4.1862,4.1225,4.0616,4.0512,4.0512,4.0512,4.0364,4.0254,4.0254,3.997,3.9783,3.9783,3.968,3.9599,3.9599,3.9706,3.9783,3.9783,4.0067,4.0254,4.0254,4.0401,4.0512,4.0512,4.0512,4.0512,4.0512,4.0512,4.0512,4.0512,4.0512,4.0401,4.0224,4.0077,3.9823,3.953,3.9383,3.9265,3.9132,3.9132,3.9132,3.9132,3.9132,3.9132,3.9132,3.9132,3.9022,3.8876,4.9801,4.9727,4.9601,4.9498,4.94,4.9096,4.8435,4.8332,4.8131,4.7512,4.7243,4.7008,4.6818,4.6432,4.5949,4.5339,4.4802,4.4428,4.4323,4.4294,4.4294,4.4294,4.4294,4.4294,4.4294,4.4294,4.4294,4.4294,4.4294,4.4294,4.4294,4.4294,4.4294,4.4294,4.4294,4.4294,4.4294,4.4294,4.4294,4.4294,4.4294,4.4294,4.4294,4.4294,4.4294,4.4294,4.4294,4.4294,4.4294,4.4294,4.4294,4.4323,4.4428,4.4458,4.4488,4.4593,4.4622,4.4622,4.4622,4.4622,4.4622,4.4622,4.4563,4.4458,4.4458,4.401,4.3364,4.2719,4.204,4.1393,4.0784,4.0572,4.0512,4.0512,4.0512,4.0512,4.0512,4.0254,4.0077,4.0077,3.9893,3.9746,3.9746,3.996,4.0077,4.0077,4.0334,4.0512,4.0512,4.0512,4.0512,4.0512,4.0512,4.0512,4.0512,4.0512,4.0512,4.0512,4.0512,4.0512,4.0481,4.0214,4.0037,3.9997,3.9743,3.964,3.9599,3.9599,3.9599,3.9599,3.9599,3.9599,3.9599,3.9599,3.9383,3.906,5.308,5.2631,5.2101,5.1598,5.1036,5.045,4.981,4.9735,4.9522,4.8908,4.8796,4.8356,4.7265,4.6557,4.5949,4.5339,4.5205,4.4936,4.4353,4.4294,4.4294,4.4294,4.4294,4.4294,4.4294,4.4294,4.4294,4.4294,4.4294,4.4294,4.4294,4.4294,4.4294,4.4294,4.4294,4.4294,4.4294,4.4294,4.4294,4.4294,4.4294,4.4294,4.4294,4.4294,4.4294,4.4294,4.4294,4.4294,4.4294,4.4294,4.4294,4.4398,4.4966,4.5175,4.5279,4.5785,4.5949,4.5949,4.5949,4.5949,4.5949,4.5949,4.5547,4.5175,4.5175,4.4667,4.401,4.3409,4.2719,4.2073,4.1393,4.0848,4.0512,4.0512,4.0512,4.0512,4.0512,4.0471,4.0431,4.0431,4.0405,4.0361,4.0361,4.0401,4.0431,4.0431,4.0471,4.0512,4.0512,4.0512,4.0512,4.0512,4.0512,4.0512,4.0512,4.0512,4.0512,4.0512,4.0512,4.0512,4.0512,4.0441,4.0264,3.9997,3.997,3.9813,3.9599,3.9599,3.9599,3.9599,3.9599,3.9599,3.9599,3.9599,3.9383,3.91,5.3698,5.3497,5.3221,5.2967,5.2661,5.2158,5.1195,5.1067,5.0705,4.9728,4.9318,4.8877,4.8331,4.7514,4.6924,4.6655,4.6179,4.5742,4.544,4.5061,4.485,4.485,4.485,4.485,4.485,4.485,4.4762,4.4571,4.4397,4.4294,4.4294,4.4294,4.4294,4.4294,4.4294,4.4294,4.4294,4.4294,4.4294,4.4294,4.4294,4.4294,4.4294,4.4294,4.4294,4.4294,4.4294,4.4294,4.4294,4.4294,4.4563,4.4906,4.5205,4.5547,4.586,4.6127,4.6186,4.6186,4.6186,4.6186,4.6186,4.6186,4.5994,4.5711,4.5384,4.507,4.4593,4.3605,4.2854,4.2207,4.1527,4.0909,4.0512,4.0512,4.0512,4.0512,4.0512,4.0512,4.0512,4.0512,4.0512,4.0512,4.0512,4.0512,4.0512,4.0512,4.0512,4.0512,4.0512,4.0512,4.0512,4.0512,4.0512,4.0512,4.0512,4.0512,4.0512,4.0512,4.0512,4.0512,4.0512,4.0512,4.0431,4.0294,4.0294,4.0214,4.011,4.011,4.011,4.011,4.011,4.011,4.008,3.9893,3.9637,3.9343]}]]